GFSSW_sfc_thetae_000.txt.gz
Theta_e
324 325 325 325 325 325 326 326 326 326 326 326 327 328 327 326 322 304 300 308 312 329 325 305 302 301 301 300 300 297 291 287 287 288 291 293 291 289 289 290 288 289 289 291 292
322 323 325 325 325 325 326 325 325 325 325 325 326 327 326 324 304 300 317 325 328 328 303 301 299 300 298 297 297 293 289 290 291 290 290 292 291 291 289 287 287 286 288 290 290
320 320 323 324 324 325 325 324 324 324 325 325 325 326 324 317 300 299 325 326 326 322 304 301 300 298 294 295 294 291 288 292 293 294 294 293 290 291 290 287 289 287 287 288 287
318 319 320 323 323 324 325 324 323 324 325 325 324 325 322 307 291 303 325 324 322 309 302 299 298 295 293 292 294 292 293 293 296 296 293 291 291 290 290 291 290 289 289 286 286
318 318 318 321 322 323 324 324 323 324 324 325 324 324 313 301 298 306 319 314 303 303 299 298 296 293 291 291 293 292 292 295 295 295 294 293 292 291 290 289 288 288 287 286 285
319 319 319 320 321 323 324 323 323 323 323 325 324 322 306 296 306 304 302 302 301 301 298 298 295 296 294 293 292 291 293 294 294 294 293 292 289 289 289 286 285 287 285 284 285
318 318 319 320 321 322 322 323 322 322 323 324 324 312 301 300 304 303 304 300 299 299 298 297 297 295 294 290 294 292 290 291 290 292 292 292 289 288 288 286 285 284 283 284 284
317 317 318 319 320 320 321 322 321 321 323 323 323 307 298 305 305 303 301 300 300 300 299 299 298 297 293 293 292 289 288 286 289 291 290 289 286 291 287 285 284 283 282 283 283
315 316 318 319 319 319 320 320 319 321 324 323 308 303 297 310 302 303 298 298 299 299 298 301 298 292 292 289 287 287 284 284 288 291 289 288 287 290 286 285 284 283 283 283 282
315 315 318 319 319 319 320 320 318 317 316 312 305 298 298 298 302 303 298 299 297 297 298 296 292 290 288 288 284 284 283 284 283 287 287 286 288 292 287 284 286 285 283 282 282
314 315 317 319 319 320 314 301 299 295 298 296 294 295 297 302 303 300 298 298 297 294 291 292 289 288 288 289 289 286 283 283 285 287 286 286 287 291 291 285 285 283 282 283 283
314 314 315 317 319 318 303 298 297 297 293 296 296 296 300 300 296 298 298 294 292 289 290 289 288 290 291 289 287 284 283 283 285 286 286 285 285 289 291 287 287 287 283 283 283
313 313 315 317 317 305 298 297 303 299 291 293 296 297 297 301 295 295 296 292 290 288 288 288 290 291 290 286 285 283 282 282 283 284 283 281 281 282 287 288 288 287 287 285 283
314 313 315 315 305 299 297 300 302 299 283 287 292 296 298 297 293 295 294 292 288 288 289 289 290 289 285 286 286 282 285 283 282 280 277 282 278 280 285 286 285 287 284 284 283
314 313 317 313 303 297 300 301 299 292 274 288 292 298 295 293 292 292 293 291 288 289 289 289 286 285 285 286 286 285 284 282 281 279 276 277 274 278 279 283 287 287 286 285 283
314 314 314 307 300 298 300 297 294 284 276 285 293 292 291 291 290 292 290 291 289 288 287 288 287 287 287 285 285 286 282 280 277 276 272 278 277 277 278 282 284 284 283 283 281
315 314 311 306 300 298 299 295 284 277 286 285 289 290 288 288 289 290 288 286 287 284 284 286 285 284 287 284 285 283 282 277 274 271 276 275 273 282 284 284 285 285 282 282 280
315 313 310 308 301 299 295 290 279 283 283 288 289 288 288 289 287 288 286 285 287 286 282 283 283 285 286 286 284 281 282 278 270 270 277 273 275 282 284 284 280 279 279 281 279
314 309 307 308 301 300 290 282 283 286 287 288 288 285 285 287 288 286 285 284 288 289 288 283 283 284 285 284 284 281 279 282 276 264 269 278 279 282 284 282 281 279 280 280 278
310 307 306 307 304 299 284 287 286 291 289 290 285 287 283 285 285 285 285 286 289 290 290 288 284 282 281 282 280 281 283 277 277 271 265 276 277 281 286 284 285 279 279 279 277
308 301 302 305 305 296 288 285 287 293 293 289 286 284 286 285 286 283 285 287 290 288 290 288 287 282 281 280 280 277 278 277 279 276 272 268 280 283 285 286 286 282 281 279 278
306 295 302 306 295 295 290 288 292 290 293 292 290 288 286 288 286 284 285 290 291 289 286 287 285 282 283 278 278 280 281 281 278 275 273 273 281 283 286 286 284 282 281 278 278
301 299 303 303 289 290 288 288 291 289 290 291 290 290 290 288 285 286 287 290 290 290 287 287 283 281 281 279 279 277 280 281 280 277 275 274 280 282 282 282 280 280 280 278 277
300 291 295 296 296 290 289 288 288 291 292 291 289 290 287 286 290 287 285 289 289 291 295 293 285 282 281 282 281 277 279 280 282 278 280 280 283 288 289 290 292 285 278 278 277
300 294 295 287 291 293 291 289 287 287 291 291 289 289 288 287 287 287 288 286 286 290 287 289 285 286 286 288 280 280 281 281 278 281 279 283 283 287 289 291 292 293 287 278 276
300 295 295 293 294 292 292 290 288 288 290 288 288 289 291 288 289 287 289 287 289 283 283 283 283 285 284 286 282 281 285 285 280 281 281 283 283 291 293 294 292 292 286 279 276
308 303 298 293 291 289 289 289 290 293 293 293 292 291 289 290 294 295 292 291 292 288 281 280 281 275 280 281 279 277 282 286 287 287 284 279 285 290 290 290 290 289 282 280 278

GFSSW_sfc_thetae_003.txt.gz
Theta_e
322 322 325 326 326 326 327 327 325 326 326 326 326 327 327 326 323 304 299 309 312 328 326 306 304 304 304 303 303 301 293 290 291 291 294 294 294 294 294 293 293 295 293 294 294
320 320 321 324 325 326 326 326 325 325 326 326 325 327 327 325 303 299 317 326 328 329 304 302 301 303 300 300 299 295 291 293 294 293 294 294 294 294 293 292 292 291 292 292 293
319 320 320 322 323 325 326 325 325 324 325 325 325 325 325 319 301 299 325 326 326 321 305 303 301 300 298 298 297 295 291 294 295 296 296 295 293 293 292 291 294 293 291 291 291
319 320 320 321 322 323 324 325 325 324 324 325 325 325 323 306 293 303 325 323 322 308 303 300 300 297 295 294 296 293 294 295 297 297 295 294 293 292 291 296 294 294 292 291 290
318 318 319 320 321 322 323 324 325 324 323 324 325 324 309 298 300 306 319 314 303 302 299 298 297 295 294 293 295 293 293 296 296 296 295 294 293 293 291 294 293 291 290 290 290
317 318 318 320 321 322 322 323 324 323 323 324 325 322 305 296 305 303 302 302 301 300 298 298 296 296 295 294 293 293 294 295 294 295 295 293 292 292 293 289 289 288 289 289 289
315 316 317 319 321 322 322 323 323 322 322 324 324 311 300 299 305 302 303 299 299 299 298 298 299 296 296 292 294 293 291 292 292 293 293 293 291 290 293 288 288 287 287 287 288
314 314 316 318 320 321 321 322 322 321 322 324 323 305 297 305 305 302 301 299 300 299 299 299 298 297 294 295 292 290 289 288 291 292 292 292 289 293 290 287 288 286 285 286 287
314 313 315 317 319 319 320 321 320 321 323 323 306 301 296 309 301 302 298 298 299 299 298 300 297 293 293 290 289 288 286 286 289 291 291 290 289 292 289 286 288 286 285 285 286
313 313 314 316 317 319 320 320 318 317 314 310 304 299 297 297 302 302 297 299 297 298 297 296 292 290 288 289 284 285 285 286 285 289 289 288 288 293 292 287 289 288 286 285 285
313 313 314 315 317 320 314 301 298 293 297 296 294 294 296 301 302 299 298 297 296 294 290 292 290 287 289 289 288 287 286 286 287 288 287 287 288 291 294 288 288 287 285 285 285
314 313 313 315 317 318 301 298 297 297 292 296 295 296 297 300 295 298 297 294 292 290 290 289 288 291 291 289 288 286 284 284 286 286 286 285 286 290 292 292 294 290 286 286 285
314 313 313 314 317 303 297 298 301 298 291 294 295 295 296 299 294 294 296 292 289 287 287 286 288 290 290 286 286 284 284 283 285 284 284 282 282 283 287 289 289 289 289 287 286
315 314 313 315 305 300 296 298 301 297 282 286 290 295 298 297 292 294 293 291 287 287 287 288 289 289 286 286 287 284 286 284 283 282 279 283 280 282 286 288 288 288 287 288 286
316 314 314 312 302 297 298 300 298 290 273 287 290 298 296 293 291 291 292 290 287 287 288 287 286 285 286 287 287 286 284 283 282 280 278 279 276 282 281 284 289 290 288 288 287
316 314 314 307 300 298 299 296 294 283 275 285 293 291 291 291 290 291 290 290 289 288 286 287 287 288 288 285 285 286 283 281 278 277 273 281 280 280 281 284 287 288 288 288 285
316 314 312 307 300 299 298 294 283 276 284 283 287 289 288 288 289 289 287 286 286 283 283 284 285 285 287 285 285 284 283 278 275 273 276 276 275 284 285 285 288 289 288 286 285
315 314 311 309 302 300 295 290 278 281 283 287 288 287 287 288 287 287 285 284 287 285 283 283 283 284 286 288 286 282 284 279 272 272 279 273 275 283 285 289 286 284 284 282 283
315 310 307 307 302 300 292 282 282 284 287 286 287 284 284 287 287 285 284 283 287 289 287 283 283 283 285 284 285 281 280 283 276 265 272 280 282 284 286 285 283 282 281 282 283
310 307 306 307 304 298 287 286 285 289 288 288 284 286 281 284 283 284 283 285 287 289 291 288 284 283 282 282 280 282 283 279 278 273 268 277 281 283 284 286 286 285 283 284 283
309 301 305 306 307 296 284 284 286 292 291 288 285 283 283 283 285 282 284 286 288 288 291 289 288 282 282 281 280 279 279 279 280 278 273 272 281 284 286 287 287 288 285 285 284
306 295 303 307 294 295 289 287 292 288 290 290 288 286 284 285 284 282 283 288 290 289 286 288 286 283 279 279 280 280 282 283 279 277 275 275 281 286 287 288 287 287 285 285 283
302 299 303 305 289 290 288 288 290 288 289 290 289 288 287 284 283 284 285 289 290 290 287 288 285 279 282 279 279 279 280 282 280 278 280 275 281 288 287 286 285 285 284 284 283
301 291 294 296 298 293 291 290 289 292 291 290 288 290 287 285 287 287 284 288 289 291 296 294 286 285 281 283 281 278 278 281 282 280 281 281 283 288 290 289 288 286 282 284 282
302 293 293 286 290 293 293 290 290 288 290 291 290 290 288 286 287 287 288 286 287 289 289 289 285 287 288 288 282 281 281 282 280 282 280 283 283 287 290 291 292 293 293 288 281
301 293 296 292 293 291 292 290 289 290 290 289 289 291 290 287 289 286 289 287 288 283 285 286 284 285 285 287 283 282 283 285 284 283 282 283 283 291 293 293 292 292 292 291 289
308 304 296 292 291 289 289 290 291 293 294 293 293 291 289 290 294 294 295 293 292 289 287 284 284 282 280 285 280 277 283 286 287 288 286 282 286 290 289 290 290 291 291 291 290

GFSSW_sfc_thetae_006.txt.gz
Theta_e
322 322 323 324 325 326 327 327 327 326 326 327 327 327 327 327 325 311 307 313 316 329 326 311 311 311 312 310 310 308 303 300 299 298 301 301 301 301 300 301 301 303 302 301 304
321 322 322 323 323 324 326 326 326 326 326 326 326 326 327 326 312 308 317 326 329 329 310 309 308 310 309 307 307 305 302 300 302 302 301 302 302 303 300 300 300 300 301 299 301
320 320 321 321 322 324 324 325 326 326 325 325 326 326 325 322 310 308 322 328 328 324 311 309 309 307 306 307 305 303 302 302 302 303 302 302 300 302 301 300 304 304 305 299 299
318 319 319 320 321 323 324 324 325 325 325 324 325 325 324 315 301 310 325 322 323 314 309 307 307 306 305 303 303 301 301 302 302 303 301 300 301 299 301 305 303 305 304 300 299
316 316 318 319 320 322 323 323 324 325 324 324 325 324 317 308 308 312 319 316 311 309 307 306 306 305 304 302 302 301 301 302 303 302 302 299 300 301 301 304 305 300 299 299 299
315 315 315 317 319 321 322 322 323 324 324 324 325 323 311 302 311 310 308 308 307 308 306 306 306 305 303 303 302 301 301 302 301 301 301 299 301 298 303 300 301 299 300 300 300
316 315 314 316 318 319 321 322 323 323 323 323 325 316 308 306 311 309 308 306 306 307 306 305 307 305 304 300 301 299 299 302 300 300 299 299 298 298 305 297 299 298 299 299 299
316 315 315 315 317 318 320 321 322 322 322 323 323 313 306 311 313 307 307 306 306 306 306 305 306 304 302 301 299 298 297 297 299 299 298 299 295 303 303 299 300 301 299 297 298
315 314 315 315 316 317 319 320 320 320 323 323 315 310 304 313 308 308 307 305 305 305 305 304 305 302 301 299 298 298 295 295 296 299 297 297 297 301 300 297 299 301 301 297 297
314 314 315 315 315 317 318 319 318 319 318 312 308 306 305 304 308 307 305 306 304 305 304 304 303 301 299 299 292 296 294 295 294 297 295 296 295 300 302 299 299 302 303 299 295
314 313 314 315 315 317 316 310 305 303 306 305 304 303 301 307 308 305 304 304 303 301 298 300 298 296 299 300 299 296 295 295 299 295 294 295 295 297 300 300 300 300 302 299 296
314 314 314 315 315 317 309 304 304 304 297 303 301 301 302 307 301 304 304 301 300 297 298 297 294 301 298 297 295 295 295 295 297 293 292 293 292 296 297 298 300 300 302 301 297
315 315 314 314 315 310 305 304 308 307 300 301 302 301 302 304 300 301 302 300 299 295 296 295 298 295 296 294 293 294 294 296 293 292 291 289 291 292 295 295 297 298 300 300 298
316 315 315 314 309 308 303 305 308 306 293 294 295 300 302 302 296 298 299 299 296 295 294 296 297 295 294 294 295 293 296 293 291 290 289 290 286 293 294 294 296 299 299 297 296
316 316 314 314 309 306 303 306 307 300 283 294 294 302 300 298 296 295 298 297 295 293 295 295 292 292 293 295 295 294 291 291 289 289 286 290 285 291 288 290 295 299 301 299 298
316 316 314 310 309 307 305 306 302 290 281 290 296 295 296 296 294 295 295 297 296 294 294 295 293 294 296 290 291 290 290 288 286 286 283 289 287 290 291 292 295 299 298 298 297
316 315 313 311 305 305 305 303 290 283 289 289 292 294 294 293 293 293 291 291 291 289 290 292 292 292 292 291 291 290 291 287 287 284 284 286 284 289 294 295 296 299 300 297 297
316 315 312 310 306 306 302 296 283 290 290 292 293 292 292 293 293 292 290 291 292 291 289 289 288 289 292 295 294 289 292 288 283 284 286 282 282 290 294 297 298 294 295 293 294
316 313 309 311 306 305 296 287 287 292 293 290 291 289 290 292 292 291 291 293 294 292 290 288 290 289 289 290 293 287 286 292 288 279 282 288 292 293 292 292 292 293 294 294 293
312 308 307 309 306 302 292 288 291 294 292 293 289 292 289 291 288 290 290 294 294 294 297 293 287 289 286 289 287 288 290 285 287 282 281 285 287 288 291 292 292 291 293 296 295
312 301 307 307 307 297 287 289 292 294 294 292 292 291 290 291 291 290 291 293 295 293 294 294 291 287 287 286 288 285 286 285 286 285 283 281 286 291 292 294 293 295 297 298 296
308 297 305 307 294 294 289 293 293 293 294 294 293 292 291 291 289 290 290 292 296 293 289 294 291 288 289 286 287 290 289 289 284 283 284 285 286 293 294 295 294 296 295 296 296
303 300 304 306 290 289 293 293 293 293 293 293 292 293 292 290 286 290 292 295 294 294 291 291 287 285 287 284 284 285 286 288 289 288 284 282 284 295 296 294 294 295 296 295 295
303 292 295 297 299 294 291 292 291 295 293 292 290 292 289 289 291 289 290 292 294 294 295 295 289 288 284 287 286 285 286 286 287 284 285 285 288 292 294 294 296 295 293 294 295
304 294 293 285 288 293 294 293 292 290 294 294 291 291 290 287 289 289 292 293 290 292 292 292 286 288 290 291 291 289 288 287 284 286 284 287 288 292 294 295 296 297 297 296 296
299 293 294 293 293 291 291 291 291 294 294 292 290 293 291 288 290 291 292 290 290 290 291 289 286 288 285 289 288 286 288 289 289 288 288 287 286 293 295 296 295 295 295 294 295
302 304 297 291 290 288 288 289 291 294 296 297 295 292 291 292 295 296 297 296 293 291 289 287 286 284 281 287 286 282 285 287 288 291 290 286 290 295 294 294 294 296 295 294 294

GFSSW_sfc_thetae_009.txt.gz
Theta_e
322 323 323 324 324 325 326 326 326 327 327 327 326 327 327 328 324 315 310 315 318 327 324 315 313 314 316 313 314 313 303 302 302 301 304 305 303 306 306 306 305 307 307 306 309
321 321 322 323 323 324 325 325 325 326 326 326 325 327 326 326 317 312 321 324 326 327 313 312 311 312 311 310 310 307 304 304 306 306 304 305 304 307 302 303 304 305 307 304 306
319 319 320 321 322 323 324 324 325 325 326 326 325 326 325 324 311 312 325 326 325 322 314 313 312 312 309 310 309 308 303 306 306 306 305 305 304 306 303 303 307 306 307 304 304
317 317 317 319 320 322 323 323 324 325 325 325 325 326 324 318 302 312 324 324 325 317 312 310 310 308 307 306 308 303 307 306 306 305 304 303 306 303 304 306 308 309 310 306 303
316 315 316 317 318 320 321 322 323 324 324 324 325 325 319 310 309 314 318 318 314 311 310 310 309 309 305 307 306 304 306 305 306 305 304 305 302 303 305 309 310 308 304 306 304
317 315 315 315 317 318 319 320 322 323 323 324 324 323 314 303 313 313 311 311 310 310 309 309 309 310 306 305 305 305 304 305 306 305 305 301 303 302 306 308 308 308 305 305 305
317 316 315 315 316 317 318 319 321 322 322 323 324 320 310 307 314 312 310 309 309 310 308 309 310 308 308 305 306 303 300 304 305 304 302 302 299 300 306 305 304 305 305 305 305
316 315 315 316 315 316 317 319 320 321 322 323 324 316 306 313 316 310 311 308 309 309 309 309 309 308 306 305 303 300 301 297 304 303 302 301 296 303 307 304 303 305 306 304 305
316 315 315 316 316 316 317 318 319 320 322 323 318 313 304 312 310 311 311 307 308 308 308 307 309 306 304 301 299 301 296 298 301 303 301 299 298 303 306 304 303 304 305 306 305
314 314 315 315 315 316 317 319 319 318 319 316 312 307 307 305 310 309 308 309 306 307 305 305 305 302 302 300 293 296 296 298 298 301 299 298 297 301 304 303 303 304 305 305 306
314 314 314 315 316 316 316 312 308 307 309 306 307 306 304 309 311 307 307 305 306 304 300 303 299 296 300 302 301 299 297 296 299 302 298 297 298 300 303 303 303 303 304 305 305
316 315 314 316 316 316 314 305 308 306 298 305 305 305 306 310 304 306 306 302 301 298 302 299 295 301 302 300 299 299 296 295 300 301 295 296 296 300 302 302 303 302 303 304 306
316 316 315 316 316 314 308 307 312 311 300 301 305 303 304 305 302 304 304 303 300 298 299 296 299 300 298 298 296 296 295 296 296 300 297 294 293 296 300 301 301 301 302 303 304
317 316 316 315 311 312 307 308 312 310 293 296 297 302 303 304 297 302 305 302 299 296 298 298 301 299 297 295 297 293 299 298 296 294 290 295 287 295 298 299 299 299 301 303 302
316 316 316 313 311 308 307 310 312 305 284 297 296 304 303 299 298 297 300 298 296 296 297 296 297 294 294 296 299 295 295 295 295 293 293 292 289 293 292 293 295 299 302 305 304
316 316 314 312 313 312 310 310 307 292 284 293 297 296 297 298 296 296 297 299 299 296 296 296 297 297 298 294 295 295 293 292 292 291 286 291 291 291 294 294 297 300 302 304 302
316 315 313 314 309 311 310 306 291 285 294 293 294 296 296 296 295 294 292 291 292 289 291 296 295 297 296 293 293 293 292 288 287 286 285 294 289 293 298 298 298 299 301 303 301
316 315 313 314 314 312 306 297 285 291 294 296 295 295 293 296 295 294 293 292 294 294 292 291 289 294 295 295 296 291 293 289 284 284 287 288 286 292 299 300 300 300 300 300 300
316 314 311 312 310 312 299 288 291 294 297 296 295 291 292 294 294 295 294 294 297 295 290 290 290 292 294 294 297 292 287 295 290 288 285 289 293 298 298 297 297 297 298 298 298
314 311 310 313 308 305 292 290 298 299 298 295 291 294 291 293 291 292 293 297 296 298 298 295 288 295 288 291 292 291 294 287 289 283 281 286 289 290 293 294 296 295 297 299 299
312 303 311 310 307 298 286 289 298 302 299 292 292 292 293 293 295 293 293 297 299 297 298 295 293 290 289 287 290 287 287 288 288 289 284 282 287 294 295 296 297 298 299 300 301
308 298 307 307 294 293 288 293 298 299 298 293 293 292 292 294 292 292 292 296 299 298 292 295 291 287 290 295 293 293 291 291 285 284 287 286 286 297 297 297 297 297 299 301 302
303 301 306 306 291 288 293 295 297 297 297 292 291 293 293 290 286 291 293 298 299 296 292 293 288 284 286 289 287 287 291 291 292 289 285 283 286 297 298 298 299 297 299 299 298
304 294 295 297 299 295 290 292 293 299 297 296 292 293 291 289 291 289 290 295 294 294 295 295 290 287 283 288 291 287 288 289 289 285 285 286 288 293 295 296 298 299 300 300 299
301 297 296 288 291 293 295 293 292 291 297 297 292 292 290 288 289 288 291 292 294 293 294 291 284 288 290 291 292 289 289 289 287 287 284 287 288 292 295 296 298 299 299 298 298
293 296 295 294 296 291 292 291 291 294 295 293 292 294 293 289 291 291 293 292 291 292 290 292 284 287 284 288 288 286 288 289 289 290 290 290 289 296 297 298 297 297 298 297 297
297 295 288 289 291 290 291 291 292 296 297 298 298 295 293 293 296 297 298 297 296 290 287 286 285 284 281 287 286 281 286 288 289 292 291 287 292 297 296 297 297 298 298 297 297

GFSSW_sfc_thetae_012.txt.gz
Theta_e
322 322 323 324 324 325 326 326 326 326 327 327 327 327 327 327 325 315 309 317 320 327 323 315 313 312 313 312 312 310 298 296 299 298 299 301 298 301 299 298 300 303 300 300 305
320 320 321 322 322 323 324 325 325 325 326 326 326 326 327 326 317 313 324 328 328 327 315 311 309 310 307 309 308 303 300 300 301 300 298 301 300 300 297 298 298 300 301 302 302
318 318 319 319 320 322 323 323 324 324 325 325 325 326 326 323 312 312 329 328 326 323 315 312 311 310 306 308 306 304 299 302 302 302 302 300 300 302 298 297 300 300 301 300 299
317 317 317 318 318 320 321 322 323 324 324 325 325 325 324 320 301 314 325 324 324 318 312 311 309 305 303 304 307 299 304 304 305 303 301 299 301 300 300 300 302 301 301 300 299
318 316 316 317 317 318 319 320 321 322 323 323 324 325 320 309 308 314 322 321 314 312 309 308 306 306 303 304 304 300 302 304 303 302 301 302 299 299 299 302 304 304 302 300 300
318 317 316 316 316 317 318 319 320 321 322 322 324 323 313 301 313 314 310 311 311 309 307 307 306 306 303 302 300 301 301 301 302 302 302 299 298 299 300 303 303 303 300 300 300
318 317 316 316 316 316 317 318 319 321 321 322 323 321 310 305 313 311 310 309 309 309 307 309 308 305 306 302 303 301 296 299 300 301 299 299 295 296 301 300 300 301 301 300 300
317 316 315 316 316 316 317 318 319 320 321 322 324 318 305 314 311 309 310 308 309 309 309 308 307 306 303 303 300 295 295 291 298 300 298 297 291 299 302 300 299 298 298 300 300
316 315 314 315 316 316 317 317 318 321 322 322 317 313 304 314 309 310 309 307 307 308 307 307 307 303 301 295 293 295 289 292 296 300 297 295 292 298 299 299 297 297 298 299 300
315 315 315 315 316 316 317 318 320 318 318 320 313 306 306 305 309 309 307 308 306 305 304 303 301 296 295 293 287 289 290 293 292 296 296 293 293 297 299 298 297 298 299 299 300
316 315 316 316 316 318 315 312 307 309 309 304 305 304 305 308 311 306 306 305 305 302 296 300 294 291 294 297 297 295 293 292 296 298 294 293 294 296 298 298 297 299 300 300 299
316 316 316 316 317 317 314 305 306 305 296 303 304 305 307 309 303 305 305 299 299 294 297 295 291 297 298 297 295 293 291 291 295 297 293 292 293 296 297 298 299 299 300 300 297
317 316 316 316 317 314 309 306 310 311 298 298 302 302 302 305 300 302 302 300 297 295 295 293 295 299 297 294 293 292 290 291 291 294 291 288 288 291 295 298 299 299 300 298 297
318 317 316 316 312 311 307 309 311 310 291 294 298 302 303 303 296 303 303 301 297 294 295 294 298 297 295 293 294 289 294 294 292 288 284 289 283 289 292 293 295 296 298 295 296
317 316 316 315 309 307 308 309 310 306 280 297 296 304 303 298 297 296 299 298 294 294 293 292 292 292 292 293 295 291 292 290 290 288 286 286 283 287 292 291 293 295 298 297 297
317 316 315 312 312 312 311 309 306 289 280 293 297 295 295 296 296 296 296 298 296 293 293 293 295 293 293 292 292 292 290 289 286 285 280 286 285 284 288 291 292 294 296 295 296
317 316 313 315 309 312 310 305 289 282 294 293 293 295 294 294 294 292 291 289 288 284 286 290 291 292 293 290 290 289 287 280 278 277 280 287 284 289 291 292 293 294 295 295 296
317 316 313 314 313 310 305 295 282 293 291 295 294 294 291 294 293 292 291 288 291 289 287 285 285 291 292 292 290 287 288 281 275 277 282 282 281 286 294 296 295 295 294 295 294
317 315 312 313 310 309 299 285 290 296 299 296 295 291 291 292 292 292 289 290 292 292 287 286 286 290 291 291 292 288 284 289 282 277 277 285 287 291 292 293 293 292 292 292 293
313 311 309 314 311 306 293 291 296 302 302 298 291 292 289 291 289 290 290 293 292 295 296 290 286 290 287 288 288 287 289 282 283 273 272 282 284 286 288 290 290 290 290 291 292
311 305 311 313 310 299 286 288 296 303 303 297 295 291 290 290 291 291 291 294 294 294 296 293 289 287 286 284 285 283 283 285 286 283 278 278 283 287 289 290 290 290 292 293 293
309 298 308 309 295 294 289 294 298 298 301 297 293 291 291 291 289 289 289 292 295 295 290 293 289 284 286 290 288 289 288 288 283 281 280 283 284 294 290 291 292 292 293 293 294
302 302 306 306 292 291 292 294 296 296 296 296 295 295 295 291 286 290 292 296 297 293 289 291 285 281 283 288 287 284 287 289 289 286 283 280 283 292 295 293 291 292 293 293 294
299 293 296 298 299 295 293 291 291 297 296 297 295 295 292 290 293 290 291 294 295 295 296 294 287 284 281 284 289 285 287 287 287 282 283 283 285 290 293 293 295 296 297 294 294
297 293 297 289 290 294 295 293 291 290 297 298 294 294 290 287 290 288 290 291 294 296 294 290 283 285 287 288 288 287 286 287 286 286 282 285 285 289 292 293 294 296 296 296 294
290 291 291 291 291 290 292 290 290 293 294 293 292 295 294 290 292 290 290 291 290 291 291 291 283 285 283 286 286 284 286 287 287 287 287 288 287 293 294 295 295 296 296 296 296
296 295 289 287 288 287 288 289 290 291 293 296 295 294 292 294 297 297 298 297 296 293 289 286 285 283 280 285 284 280 285 286 287 289 289 285 289 294 293 294 295 296 297 297 295

GFSSW_sfc_thetae_015.txt.gz
Theta_e
321 321 322 322 323 324 325 325 325 325 325 325 326 326 327 326 326 314 307 315 317 328 321 310 308 307 306 305 306 303 292 290 293 294 294 297 296 297 298 296 298 301 298 299 301
319 319 320 320 321 322 323 323 324 324 324 325 325 325 326 325 315 309 321 334 330 327 312 306 304 305 301 303 303 298 293 295 298 295 294 297 297 297 295 295 296 297 297 300 299
318 318 319 319 319 320 321 321 322 323 323 324 324 325 325 322 309 307 328 331 330 323 311 308 306 305 300 301 300 298 294 298 299 299 298 297 295 298 296 294 296 297 298 298 296
318 317 317 317 318 319 320 320 321 322 322 323 324 324 324 316 291 311 326 327 326 314 309 305 303 300 297 297 303 296 300 301 302 300 298 296 298 297 297 299 301 300 300 299 297
318 317 316 316 317 318 319 319 320 321 322 322 323 324 316 304 304 314 324 321 313 309 305 304 301 300 297 299 300 297 298 301 301 300 299 299 297 296 297 299 300 301 299 298 298
318 317 316 315 316 317 318 319 319 320 320 321 323 323 306 296 309 311 308 309 308 305 303 303 302 302 299 298 296 297 298 298 299 299 299 298 295 297 298 300 300 300 298 297 298
317 316 316 315 316 316 317 318 319 320 319 321 322 320 306 301 308 307 308 305 305 305 303 304 303 300 299 298 299 297 295 295 297 297 297 298 294 294 301 297 298 298 298 297 298
317 315 315 315 316 316 317 318 319 319 320 321 323 314 298 310 305 306 306 304 305 305 305 305 304 302 300 299 297 292 291 288 294 296 297 296 290 296 299 296 297 297 295 296 298
317 315 315 316 316 316 317 318 318 319 321 322 312 307 299 313 305 306 305 303 304 304 303 306 303 298 297 291 288 288 285 287 292 297 295 293 291 296 297 295 296 295 295 296 297
317 316 316 316 316 317 318 318 318 317 316 319 314 300 302 301 307 305 303 305 302 302 300 299 296 292 291 288 283 285 285 289 289 292 292 290 292 296 296 294 295 294 293 295 298
318 316 316 317 318 318 315 306 299 299 303 298 299 299 302 305 307 303 303 302 302 299 292 295 289 288 292 293 291 289 287 286 293 295 293 293 293 295 297 294 293 296 297 298 298
318 317 317 317 318 318 310 302 301 301 292 300 299 302 305 305 300 303 303 297 296 291 293 292 288 294 294 294 292 290 288 288 292 293 291 291 291 295 294 296 297 296 297 299 299
318 317 317 317 317 311 305 302 306 305 294 297 299 297 298 303 298 299 300 297 293 291 291 290 292 297 295 292 291 291 288 289 288 291 290 288 286 290 294 296 298 299 299 300 299
318 317 317 316 310 307 302 305 307 304 285 290 294 299 300 300 293 300 300 298 293 291 291 291 295 293 291 290 292 288 292 291 290 285 284 286 282 287 291 292 294 297 297 297 293
318 317 316 316 306 304 305 306 305 298 275 293 294 303 300 293 293 294 296 294 291 291 290 290 289 289 289 292 292 290 291 289 287 285 284 285 282 285 290 289 292 296 297 297 295
317 317 316 312 307 308 308 305 301 284 276 289 294 293 292 293 293 293 293 295 293 290 290 289 291 291 291 290 291 291 288 287 285 283 280 283 284 284 285 290 291 295 296 296 295
318 317 314 314 307 309 308 303 288 279 290 289 289 292 290 290 291 290 288 286 285 282 282 286 289 290 292 288 288 288 285 278 276 275 279 285 282 288 289 291 293 294 295 296 293
317 317 314 315 311 310 307 295 284 291 289 293 291 290 288 291 291 289 286 284 287 285 284 282 283 288 291 291 287 285 287 279 272 277 282 281 278 285 292 294 294 294 295 292 293
316 314 312 313 312 310 300 287 291 293 297 297 298 288 287 290 289 288 285 285 288 288 284 283 283 288 288 289 291 285 283 288 281 270 275 284 285 290 289 291 291 292 288 291 292
312 311 309 313 312 305 294 293 295 299 301 299 293 296 290 289 288 288 286 289 289 291 294 289 284 289 287 288 286 287 288 281 281 272 270 282 279 285 289 293 294 288 289 290 291
309 303 308 311 311 299 288 290 294 300 300 297 295 295 294 293 294 290 288 292 293 291 292 289 288 287 285 283 285 283 284 285 284 281 279 278 283 286 288 288 288 289 289 290 291
304 296 308 311 296 295 293 294 297 297 299 298 294 296 294 295 293 293 293 294 295 294 290 291 287 282 285 287 287 287 287 287 282 281 280 282 283 295 291 290 289 291 291 290 292
299 299 307 307 291 293 293 294 296 295 296 296 295 296 297 293 288 292 292 297 299 296 292 293 285 281 282 287 285 285 286 287 287 284 282 279 281 295 295 294 290 289 290 291 292
295 290 297 298 299 295 293 293 292 296 295 296 295 296 294 291 294 291 292 295 296 296 297 296 286 284 282 286 288 285 286 286 287 282 283 282 284 289 292 293 294 295 297 297 298
291 288 292 287 291 293 294 293 291 291 296 296 293 293 292 289 291 290 292 293 295 295 294 293 283 285 287 289 289 288 288 288 286 286 282 285 286 288 291 293 294 295 296 296 296
287 286 290 287 289 289 292 290 290 291 292 291 291 293 292 289 290 288 290 291 290 288 291 292 285 287 284 287 287 285 287 287 287 287 287 287 287 295 296 297 296 297 297 296 296
290 293 289 284 282 283 283 286 288 289 289 290 288 286 285 287 291 289 290 290 290 291 290 289 286 285 281 286 285 280 285 287 287 289 289 284 289 294 293 294 296 297 297 296 297

GFSSW_sfc_thetae_018.txt.gz
Theta_e
321 321 321 321 322 322 323 323 324 324 324 325 325 325 326 326 325 311 304 312 316 330 322 309 308 306 304 303 304 300 290 288 291 292 293 295 294 296 296 295 296 300 297 297 299
320 319 320 320 320 321 322 322 322 323 323 324 324 324 325 325 312 307 319 333 332 331 309 305 302 303 299 301 301 297 289 291 296 295 293 296 296 295 294 294 294 297 297 298 298
319 318 318 319 319 320 321 321 321 321 322 323 323 324 324 322 305 305 330 334 332 327 309 307 305 303 298 299 299 297 292 296 298 297 297 296 294 297 294 293 296 296 297 297 295
318 318 317 317 318 319 320 320 320 320 321 322 323 324 323 313 290 307 329 331 330 312 307 304 302 299 297 296 300 294 298 298 300 300 297 295 296 295 295 300 299 299 297 296 295
318 317 316 316 317 318 319 319 320 320 320 321 322 323 314 301 302 314 326 325 315 309 304 302 300 299 296 297 297 296 297 299 300 299 297 298 297 295 295 298 299 299 297 297 297
318 317 316 316 316 317 318 319 319 320 320 320 321 323 303 292 306 312 309 310 307 304 302 302 300 301 298 297 296 295 297 297 297 298 297 297 295 296 300 297 298 298 296 296 298
318 317 316 316 316 317 317 318 318 319 319 320 321 319 305 298 306 307 306 304 304 303 300 301 302 299 297 296 298 296 294 294 296 296 295 296 293 293 301 295 297 297 296 296 297
318 317 316 317 317 318 318 319 319 319 319 320 322 312 296 308 304 304 304 303 303 303 303 303 302 299 297 298 295 291 290 287 292 294 295 295 290 295 298 296 297 296 296 295 297
318 317 317 317 317 317 318 319 319 319 320 322 311 303 297 311 303 305 304 302 302 303 302 305 301 296 296 290 287 286 284 285 290 295 294 292 290 296 295 294 295 296 294 296 297
318 317 317 317 317 318 319 319 317 316 317 318 312 298 300 300 305 303 302 303 300 300 299 298 294 290 290 287 282 284 283 286 287 291 290 289 290 296 296 293 293 294 293 293 296
319 318 318 317 318 319 315 305 297 296 302 296 297 296 300 304 305 301 303 302 301 296 290 293 288 286 291 291 289 286 285 285 289 292 290 290 291 294 298 294 292 295 297 296 294
319 319 318 318 318 318 307 301 299 299 292 298 298 299 302 303 298 301 303 297 295 290 291 289 286 292 292 291 291 289 287 287 291 293 289 290 290 293 295 296 297 297 296 297 299
319 318 318 318 318 310 303 300 305 304 291 294 297 295 296 302 297 297 300 295 291 289 290 289 291 294 292 289 289 288 287 288 288 289 288 286 287 288 292 295 297 297 298 299 299
319 318 317 317 310 306 301 304 306 303 283 288 293 295 298 299 292 298 298 296 291 290 289 289 294 292 290 289 291 287 291 290 288 284 283 286 282 285 289 291 293 295 297 298 299
318 318 318 316 306 305 305 305 304 295 278 291 292 301 299 292 292 293 295 294 289 289 289 288 288 288 288 291 291 290 289 288 285 283 282 282 281 284 289 288 291 295 296 298 299
318 318 317 312 308 309 307 304 300 285 280 288 292 291 291 293 292 292 292 294 292 288 289 289 290 290 290 290 290 289 287 286 283 282 279 284 283 283 285 289 290 294 296 297 298
317 318 314 314 308 309 306 301 294 285 292 288 288 290 289 288 289 289 288 287 286 282 281 284 286 288 291 287 287 287 285 278 276 275 278 284 281 288 288 291 292 293 294 295 297
314 317 314 316 312 309 308 299 287 293 291 293 291 289 287 289 289 288 285 283 286 283 282 281 282 287 289 289 286 285 287 279 274 278 282 281 279 286 291 293 293 293 295 293 292
314 315 312 314 311 311 302 290 291 294 297 296 296 289 286 290 289 287 284 284 287 288 284 281 283 287 288 288 290 283 282 289 280 269 273 283 285 289 288 290 291 291 290 290 290
307 310 310 313 313 308 296 294 295 299 300 299 293 295 290 289 291 289 287 288 287 289 293 288 283 288 286 286 285 286 287 280 280 272 270 281 279 285 287 291 289 289 289 288 289
306 300 306 312 310 300 290 293 296 300 301 297 295 294 294 293 293 290 291 291 291 290 292 290 287 286 284 283 286 283 283 283 283 282 280 278 282 288 286 287 287 288 289 289 289
303 292 308 311 296 296 293 295 297 296 299 299 295 295 294 294 292 294 293 295 296 292 289 292 288 283 286 288 286 286 286 287 282 280 280 283 283 295 294 294 292 293 291 289 290
296 298 307 307 290 292 295 295 297 295 295 295 294 295 297 293 289 293 294 299 299 296 292 292 287 283 283 286 288 286 288 288 287 285 282 280 282 295 295 294 295 291 290 292 292
293 288 297 299 299 294 292 292 292 296 296 296 295 296 293 291 293 291 291 295 296 295 298 297 290 286 282 285 288 284 285 286 286 282 282 283 284 289 292 293 295 296 296 296 296
290 287 292 287 291 292 293 292 290 289 294 295 293 293 291 288 289 289 292 291 293 296 294 293 285 287 288 290 290 289 288 289 287 287 283 285 286 290 293 294 296 297 296 296 295
286 285 289 286 287 288 291 288 288 290 291 290 289 288 288 285 287 283 284 285 285 288 287 289 284 286 285 288 287 285 287 288 288 289 288 289 288 295 296 297 296 297 297 297 297
288 290 288 283 282 280 282 285 286 286 288 290 285 282 282 285 284 285 285 286 286 284 283 284 283 282 279 285 284 281 285 286 288 289 289 284 290 291 290 291 292 290 289 289 289

GFSSW_sfc_thetae_021.txt.gz
Theta_e
321 321 321 321 321 322 323 323 323 323 323 324 324 324 324 325 324 310 303 310 314 330 319 308 306 305 303 302 302 297 289 286 289 290 293 294 293 295 295 295 295 298 296 296 297
320 319 320 320 320 321 322 322 322 322 322 323 323 324 324 324 311 305 317 328 332 330 307 305 302 302 298 299 300 296 287 289 292 293 292 294 294 294 296 293 293 296 296 297 295
319 318 319 319 319 320 320 321 321 321 321 322 322 323 323 320 301 300 327 333 334 324 308 305 303 302 296 297 298 295 291 294 297 298 296 295 293 295 293 293 295 296 297 296 294
318 318 318 318 318 319 319 320 320 321 321 321 321 322 323 312 290 303 330 333 331 312 306 303 300 297 295 295 298 293 297 296 298 299 296 294 295 293 294 300 298 298 295 295 294
318 318 317 317 318 318 319 319 319 320 320 321 321 322 312 297 299 311 328 327 314 307 303 301 298 297 294 294 295 294 296 298 298 298 297 296 296 294 295 299 297 298 296 296 296
318 318 318 318 317 318 319 319 319 320 319 320 321 322 302 291 303 313 311 310 306 303 300 300 299 300 296 295 295 294 295 296 296 296 296 296 296 294 299 296 297 296 296 295 295
319 318 318 318 318 318 319 319 320 320 320 320 320 318 301 297 305 309 307 305 305 303 299 300 299 298 295 294 296 295 293 293 293 295 295 295 292 292 300 295 296 295 296 295 296
319 318 318 318 318 319 319 320 320 320 320 320 320 310 294 305 303 304 303 301 302 302 302 301 301 298 295 296 294 289 289 286 291 292 292 294 288 296 297 295 295 296 294 294 296
318 317 318 318 318 318 319 320 320 319 319 321 310 301 295 309 301 303 302 301 301 301 300 305 300 295 293 289 286 284 282 284 288 293 292 291 289 295 295 293 294 294 295 295 295
319 318 318 318 318 318 319 319 317 315 317 317 311 294 296 298 303 302 300 302 299 298 297 296 293 289 288 286 282 282 282 284 285 290 289 288 289 294 297 293 293 294 295 296 297
319 319 319 319 319 320 314 303 297 295 301 296 297 294 297 301 303 299 302 301 299 294 289 291 287 285 290 290 288 285 284 283 288 291 288 289 290 293 296 296 292 293 296 297 298
319 319 319 319 319 319 305 300 298 299 291 297 298 299 301 302 297 299 301 296 294 290 290 288 285 291 290 289 288 288 286 285 290 292 287 288 288 292 293 295 297 297 296 297 298
319 319 318 318 318 310 301 299 304 302 290 293 296 295 296 301 296 297 299 294 291 289 289 289 289 293 290 287 287 286 284 287 286 288 287 285 287 288 291 293 296 297 298 298 298
320 319 318 318 310 305 302 303 305 299 284 288 291 294 296 297 291 297 296 295 290 289 288 288 292 291 287 286 289 286 289 289 287 283 282 285 280 285 289 291 291 294 296 296 297
319 319 319 317 307 306 306 304 303 294 284 293 291 299 297 291 291 292 294 293 288 288 287 286 287 286 286 289 289 288 288 287 284 281 281 281 279 283 286 286 290 293 295 296 297
318 318 318 312 309 310 307 305 299 289 284 290 291 290 290 291 290 291 291 293 291 288 287 288 288 289 289 289 289 288 285 284 282 281 278 282 282 283 283 287 288 291 293 295 297
314 316 314 314 309 309 308 303 293 287 294 290 287 289 287 286 288 288 287 286 285 281 280 283 285 287 290 286 286 287 283 277 275 274 277 282 280 287 289 289 291 293 293 293 292
312 315 314 316 312 311 308 299 288 293 291 293 289 288 287 289 288 286 284 283 285 282 281 280 282 285 288 288 285 284 284 278 271 274 281 280 280 288 290 292 291 289 290 291 291
311 312 312 314 311 311 303 291 291 295 297 294 296 291 286 288 288 286 283 283 286 287 283 280 281 285 287 287 289 282 281 285 280 271 272 282 285 292 288 289 288 289 287 288 289
303 306 307 313 312 309 298 292 295 299 300 299 292 294 288 288 289 288 288 287 287 288 290 286 282 286 284 286 285 285 286 280 279 275 270 280 280 284 288 292 294 289 288 288 289
302 297 304 312 311 301 291 291 295 300 301 297 295 294 293 293 294 293 293 293 290 288 290 291 288 286 288 284 285 282 282 282 283 282 279 277 282 293 291 288 287 287 288 289 291
298 290 307 311 296 297 292 294 297 296 299 298 296 296 294 294 293 292 292 294 297 294 288 290 289 284 285 288 286 285 285 285 281 279 281 283 283 295 295 295 294 295 295 291 290
294 293 307 307 290 291 295 294 297 295 295 295 294 295 295 292 288 291 292 297 298 295 292 291 285 282 284 284 285 285 288 288 288 286 281 278 281 294 295 294 296 295 292 292 292
290 285 296 299 298 293 291 292 292 297 296 296 295 296 292 290 293 290 290 294 294 294 297 296 290 286 281 284 288 283 285 287 287 283 282 283 285 290 292 293 295 296 297 296 293
290 285 290 287 289 292 292 290 289 288 294 295 292 292 291 287 288 287 289 288 290 292 291 290 284 286 286 287 286 285 284 287 286 287 283 285 286 290 293 292 290 288 289 288 288
285 284 287 284 286 286 288 287 287 288 290 288 288 289 288 286 286 282 280 283 282 284 284 286 279 282 280 283 283 282 286 286 285 285 286 286 286 284 282 281 280 281 281 281 282
286 288 287 283 281 280 281 284 283 284 288 287 283 282 281 283 282 283 283 283 283 280 279 280 279 276 274 279 278 274 279 281 283 284 281 279 277 280 278 277 278 280 280 281 282

GFSSW_sfc_thetae_024.txt.gz
Theta_e
320 320 321 321 321 322 322 323 323 322 323 323 323 324 324 324 323 309 301 310 313 330 319 307 305 303 302 301 300 296 289 286 288 288 292 293 293 294 296 295 295 297 296 296 296
319 319 320 320 320 320 321 322 321 322 322 322 322 323 323 323 309 304 316 328 332 328 306 304 301 301 298 298 299 295 287 288 291 291 292 293 293 294 296 294 293 295 296 296 295
319 319 319 319 320 320 320 320 320 321 321 322 322 322 322 319 298 297 326 329 334 323 306 303 302 300 295 297 297 294 291 292 294 295 295 294 292 294 292 293 294 296 297 295 294
319 318 318 319 319 320 320 320 320 320 320 320 321 322 322 309 290 300 331 334 332 308 304 302 299 296 294 294 297 293 296 295 296 297 295 293 294 293 294 300 298 298 297 295 294
319 319 318 318 319 319 320 320 320 320 320 320 320 322 309 294 298 312 329 328 310 305 302 300 297 296 293 293 294 293 294 297 297 297 296 296 296 294 294 299 298 297 296 295 295
319 319 319 319 319 319 320 320 320 320 320 320 320 321 302 290 301 315 314 308 306 303 300 300 298 299 294 294 294 293 294 294 295 295 296 295 297 293 296 297 296 295 295 294 295
319 319 318 319 319 319 320 320 320 321 320 320 320 316 300 296 304 309 308 304 304 302 298 299 299 297 295 292 294 293 291 291 292 293 293 294 292 290 298 294 295 294 294 295 294
319 318 318 318 319 320 320 321 321 321 320 320 320 308 293 303 303 303 302 300 301 300 300 300 300 297 294 294 292 287 287 285 289 291 291 293 287 296 295 292 294 294 294 293 295
319 318 318 319 319 319 320 320 319 321 320 320 308 299 293 308 300 302 301 300 300 299 299 303 298 294 292 287 285 283 282 283 286 292 291 290 286 294 293 292 292 293 294 295 296
319 318 319 319 319 319 320 318 317 316 317 317 310 294 296 295 301 300 299 301 298 297 296 295 292 288 287 285 281 282 280 283 283 288 287 287 288 292 296 291 294 296 296 295 297
319 319 319 319 320 320 313 301 296 293 299 295 296 293 294 300 301 298 301 300 297 293 289 290 286 285 290 288 287 283 283 282 286 289 286 288 289 291 294 295 295 296 296 295 297
320 319 319 319 320 319 303 298 297 297 292 297 297 299 300 300 295 297 300 296 293 289 288 286 283 290 289 287 287 286 285 284 288 290 286 286 287 291 292 293 296 296 296 297 298
320 319 319 319 318 310 301 299 303 301 290 294 295 294 295 300 295 296 298 293 290 288 287 287 288 291 289 286 286 284 283 285 285 286 285 284 285 286 290 292 294 296 296 296 296
320 319 319 319 312 305 303 302 304 298 288 291 290 293 295 295 290 296 296 294 289 288 287 287 290 289 286 285 287 285 288 287 286 282 279 284 279 286 292 292 290 293 293 292 293
318 319 319 317 309 308 305 304 304 294 283 293 290 297 296 290 290 291 293 291 287 287 287 286 286 285 285 287 287 286 287 285 283 281 279 279 278 282 285 286 289 290 292 292 292
315 316 318 313 310 309 307 305 300 292 284 291 290 289 289 290 289 290 291 292 290 287 286 286 287 288 288 288 289 288 285 284 281 280 276 281 281 281 283 286 288 290 292 292 292
312 313 315 315 310 309 308 305 293 287 294 290 286 288 286 285 287 287 287 286 284 281 280 282 285 287 288 285 285 285 283 277 275 274 277 280 279 286 287 289 290 292 292 291 290
310 311 314 315 311 313 310 300 285 293 293 296 290 288 287 288 288 286 283 283 285 282 280 280 283 285 287 287 285 283 284 278 273 272 281 278 278 285 289 291 290 288 290 289 289
308 307 309 314 311 312 304 290 290 292 297 296 297 293 290 289 290 288 285 283 286 287 285 281 281 284 286 286 287 281 281 285 281 273 273 282 286 289 288 286 286 288 288 287 289
299 302 303 313 312 308 298 292 294 298 298 298 292 295 288 288 287 287 286 287 286 288 290 287 283 286 284 286 285 285 286 280 280 275 272 280 279 284 288 291 291 288 286 288 289
298 295 302 311 311 301 290 290 296 299 300 296 294 293 294 292 293 292 293 293 288 287 289 292 287 285 287 283 284 282 282 282 283 282 278 277 281 292 288 286 286 286 290 290 293
296 287 304 312 297 296 290 293 296 296 298 296 297 296 294 293 292 291 291 295 297 293 288 292 290 284 286 290 288 287 286 286 282 279 280 282 282 294 293 293 291 290 289 288 288
289 291 305 307 288 289 293 292 295 294 294 294 293 294 295 291 288 291 292 295 296 294 292 291 287 282 281 283 285 284 286 287 287 286 281 278 281 294 294 293 283 284 285 285 285
288 282 290 298 295 291 289 289 289 296 295 296 294 294 292 290 292 289 290 293 292 293 295 295 289 285 281 284 286 283 286 287 285 279 281 281 284 289 285 282 280 281 281 282 283
286 282 288 285 287 289 290 290 287 286 292 293 291 290 290 287 288 286 289 287 289 290 289 289 283 286 285 284 283 283 282 282 281 282 278 281 283 286 279 278 279 282 281 281 281
281 283 285 281 284 282 284 284 285 287 288 287 286 288 288 285 285 283 279 282 280 283 282 284 276 280 277 280 280 278 280 280 280 280 281 283 281 279 279 280 279 281 280 279 280
284 285 286 280 280 279 278 281 281 282 284 284 282 281 281 283 283 283 284 283 282 280 278 278 274 269 270 277 273 269 274 276 277 278 277 275 274 277 276 277 278 279 281 280 279

GFSSW_sfc_thetae_027.txt.gz
Theta_e
320 321 321 321 321 322 322 322 322 322 322 323 323 323 323 324 323 310 301 309 313 331 318 307 306 305 305 303 303 300 292 289 291 290 294 297 296 298 299 299 299 300 301 302 300
320 320 320 321 321 321 321 321 321 321 322 322 322 323 323 323 310 303 315 326 333 326 306 304 302 302 300 301 301 297 290 291 293 293 295 296 296 298 298 297 297 298 300 299 300
320 320 320 320 320 321 321 321 321 321 321 321 321 322 322 318 298 297 328 328 333 321 306 304 303 302 298 300 299 296 293 294 294 294 296 297 295 298 296 296 297 298 300 299 297
320 319 319 320 320 321 321 321 321 321 321 321 321 321 322 308 290 298 330 332 332 307 305 302 301 298 296 295 298 294 296 295 298 297 296 296 297 295 296 302 302 301 301 299 297
320 320 320 319 320 321 321 321 322 322 321 321 321 321 307 293 297 314 330 330 308 305 302 300 298 297 295 294 296 294 295 297 297 297 297 297 297 296 295 300 301 298 298 298 298
320 319 319 320 320 321 321 321 322 322 321 321 320 320 297 291 302 318 317 309 306 303 301 300 299 299 295 294 294 294 295 295 295 296 296 296 298 295 297 300 298 297 298 297 297
320 319 319 319 320 321 321 321 322 322 321 321 320 315 296 296 304 310 309 305 304 302 299 300 300 299 297 293 295 294 292 292 292 294 294 294 293 291 299 296 297 297 296 295 297
319 319 319 319 320 320 321 321 321 320 321 320 320 308 291 302 304 304 302 300 301 301 300 300 300 298 296 296 292 289 289 286 290 292 292 294 288 295 295 293 295 295 295 295 297
319 318 319 319 319 320 320 321 319 322 320 320 307 295 292 307 300 301 300 299 300 300 300 302 300 295 293 289 286 286 283 283 287 292 291 291 289 293 294 293 295 296 296 297 299
319 319 319 319 319 320 320 317 316 315 317 317 308 293 295 295 300 300 299 301 298 298 297 296 292 289 287 286 282 283 281 283 284 289 288 288 289 293 295 293 294 296 297 298 298
319 319 320 320 320 321 311 300 299 297 297 293 294 292 294 298 300 298 300 299 297 294 289 291 287 285 289 289 286 284 283 282 285 289 287 289 289 291 293 293 294 295 296 296 297
320 320 320 320 320 319 303 298 296 297 292 298 297 297 299 299 295 296 300 295 292 288 289 287 284 289 289 287 287 286 285 284 288 290 286 286 288 292 293 294 295 296 296 296 296
321 320 320 320 319 310 300 299 303 300 291 296 296 294 296 299 294 295 298 293 290 287 287 286 288 290 288 286 286 284 283 285 284 286 286 284 285 287 290 291 294 295 296 296 295
320 319 319 320 312 305 302 301 303 299 289 292 291 293 294 295 290 295 295 293 289 288 287 286 289 289 285 285 287 284 287 287 285 283 280 285 279 286 292 293 293 293 293 292 293
316 318 319 317 311 310 307 305 304 295 285 292 289 296 295 289 289 291 293 291 287 287 287 286 286 285 285 287 287 286 286 285 284 282 281 281 279 283 286 287 290 293 293 293 294
314 314 317 314 311 308 306 305 302 293 285 292 289 289 288 289 289 290 290 292 289 286 285 286 288 288 288 287 288 287 285 284 281 281 276 281 281 281 285 287 288 292 292 292 292
310 311 315 315 310 309 309 308 294 287 297 289 285 288 286 286 288 287 286 285 284 281 279 283 284 287 288 285 287 287 283 278 276 275 278 281 279 284 288 289 290 291 292 291 291
308 310 311 315 310 312 311 299 285 293 294 298 297 293 291 291 289 286 284 283 287 285 282 279 283 284 287 287 286 284 285 280 275 273 282 279 279 284 289 291 289 290 290 290 291
307 305 305 312 312 312 304 291 290 291 296 295 295 292 288 290 292 290 290 293 293 288 286 285 284 284 286 286 287 283 282 287 281 276 274 281 285 289 288 289 289 288 290 288 288
299 299 302 310 312 309 297 290 293 298 298 298 292 295 288 288 287 286 285 286 287 288 289 288 283 287 286 285 285 286 287 281 281 275 274 280 280 283 288 290 287 285 286 287 287
297 293 299 312 311 300 289 288 293 298 300 295 294 293 293 290 291 290 289 295 293 290 290 290 288 286 288 283 284 283 282 283 283 284 278 277 281 289 286 282 282 284 285 284 284
294 283 302 311 295 294 290 292 295 293 296 295 296 294 292 292 290 290 290 293 296 292 288 293 290 284 287 291 288 287 285 285 282 280 281 282 282 294 285 284 282 281 282 283 283
291 288 300 306 287 288 292 291 293 292 292 293 291 293 293 290 287 290 290 294 295 293 292 292 286 281 281 283 285 284 286 287 288 286 282 279 281 291 290 283 281 280 281 281 282
287 279 287 298 293 290 286 287 287 291 292 294 292 292 290 288 291 288 289 293 293 293 295 294 287 284 280 283 285 283 286 286 285 279 280 280 281 285 287 282 279 281 281 281 281
284 281 286 278 283 288 289 287 284 284 290 290 288 288 287 285 285 285 287 287 288 288 287 288 282 284 285 286 282 281 280 281 279 280 277 279 279 283 281 278 279 280 281 282 282
281 280 283 281 284 285 285 283 283 284 286 284 285 283 284 282 285 283 282 282 280 281 282 284 277 278 272 279 280 277 278 278 279 279 279 280 279 279 279 279 278 278 279 279 280
283 285 285 279 279 278 277 280 280 281 282 282 281 279 279 283 283 283 284 283 282 280 278 278 276 272 272 277 272 270 273 276 276 276 276 274 274 273 274 277 277 276 278 279 278

GFSSW_sfc_thetae_030.txt.gz
Theta_e
321 321 322 322 322 322 322 322 322 322 322 323 323 324 324 323 323 317 306 313 317 329 321 313 313 312 312 310 309 308 302 298 299 298 301 305 303 305 306 306 306 308 309 311 309
320 321 321 321 321 322 322 322 322 322 322 322 322 323 323 323 315 308 321 325 331 326 312 311 309 310 308 308 309 306 301 300 303 304 302 304 304 306 304 305 306 306 310 309 308
320 320 320 320 321 322 322 322 322 322 322 322 322 322 322 322 306 305 325 328 333 322 313 311 311 309 305 307 307 305 300 304 302 303 303 303 303 305 304 303 307 307 309 311 308
320 320 320 320 320 321 322 322 323 322 322 322 322 322 322 315 298 305 330 331 331 314 311 309 308 305 304 302 306 301 304 304 304 303 303 302 304 303 304 306 309 310 310 310 308
320 320 320 320 320 321 322 322 323 323 322 322 321 321 314 303 304 321 331 331 315 311 309 308 306 305 302 303 302 301 303 304 305 304 303 304 303 303 304 308 309 309 307 307 308
320 320 320 320 321 321 322 322 323 323 322 322 321 320 306 297 309 325 324 313 312 311 308 308 307 307 303 301 301 302 302 302 303 302 303 301 302 302 304 307 306 306 306 307 307
320 319 319 319 320 321 322 322 322 322 321 321 321 317 303 303 312 320 315 313 311 310 307 307 307 306 304 301 303 301 298 300 301 300 300 301 298 298 305 306 304 305 306 306 306
320 319 319 319 320 321 322 322 322 321 322 320 321 314 301 306 313 311 310 307 309 308 307 307 308 305 303 303 299 297 296 293 300 297 299 300 294 302 305 302 302 304 306 306 307
319 318 319 320 320 320 321 321 318 322 321 321 313 304 300 310 305 307 308 305 306 306 307 306 307 302 301 297 295 296 291 294 295 298 297 298 295 301 303 301 301 302 304 304 306
319 319 319 320 320 320 321 315 317 318 319 318 311 300 303 300 305 304 306 306 303 305 303 303 301 298 297 295 289 293 292 293 292 297 296 294 294 298 301 300 300 301 302 304 304
320 320 320 320 321 322 314 310 311 307 306 305 305 300 300 304 305 303 304 303 303 301 297 299 295 292 296 297 297 294 292 291 295 298 294 294 295 297 299 299 300 301 302 304 304
321 321 321 321 321 319 312 307 303 303 301 305 303 302 303 305 301 301 304 300 299 296 296 294 291 297 297 295 293 293 291 291 295 297 293 294 293 296 298 299 300 300 302 303 303
320 320 320 321 320 317 309 306 309 307 300 303 301 299 300 303 300 301 302 299 296 293 293 294 297 296 294 293 291 293 291 292 292 294 294 292 293 294 299 298 300 301 301 301 300
319 319 319 319 317 314 309 307 309 306 298 299 296 298 299 300 296 299 301 298 296 294 294 294 296 293 291 291 293 290 296 292 290 289 286 292 286 294 298 299 300 300 299 300 301
316 317 319 318 318 315 309 308 308 302 287 297 294 302 300 295 296 296 300 299 294 293 293 294 291 290 291 292 293 291 292 291 290 289 287 289 286 294 295 293 297 297 298 299 299
312 314 317 317 318 313 310 308 307 297 287 296 295 294 294 295 294 296 297 299 296 293 293 293 294 293 294 293 293 293 292 291 289 288 284 291 288 290 293 294 296 296 296 296 295
310 310 316 317 314 313 314 314 296 289 301 294 292 293 293 292 292 293 293 293 294 291 291 295 296 293 293 291 291 291 289 284 285 284 285 287 287 290 296 296 294 293 293 293 293
308 310 312 317 314 314 313 303 287 294 296 301 297 295 297 296 296 294 295 293 297 293 290 288 287 290 292 292 292 289 290 284 280 282 286 291 286 292 297 293 294 294 293 293 292
306 311 309 313 314 314 306 290 292 295 299 297 297 295 295 295 296 296 295 296 296 295 289 288 288 292 290 292 292 288 286 292 285 286 281 287 292 294 293 291 292 291 292 290 290
303 303 304 313 315 311 297 290 293 300 300 299 293 296 291 294 292 291 291 292 291 291 293 291 286 294 292 291 291 291 293 285 286 278 277 284 287 288 289 288 290 289 288 288 289
302 295 302 313 313 301 289 290 293 299 300 296 293 293 293 292 294 292 292 296 298 296 294 292 290 290 292 289 289 287 285 286 286 284 280 279 284 293 290 288 288 287 287 287 287
299 288 305 312 295 296 291 293 295 295 298 297 296 295 293 293 291 290 290 294 299 293 291 293 291 285 288 295 294 291 289 289 283 281 284 283 284 295 289 287 286 284 284 286 286
294 293 303 307 288 290 294 293 295 294 294 294 293 295 295 291 287 290 292 296 297 296 293 293 288 283 285 289 290 288 290 289 290 288 283 281 284 290 288 284 284 283 283 284 284
292 286 293 299 298 291 289 289 289 294 293 295 293 295 292 290 292 289 290 294 296 294 292 294 287 284 280 283 287 285 286 286 284 280 282 282 283 287 289 288 284 283 282 283 283
290 285 290 287 289 291 291 288 287 287 292 293 290 291 289 285 286 286 289 288 290 288 290 289 283 285 285 287 286 284 283 283 281 282 277 281 281 284 286 281 280 280 281 283 283
286 286 287 285 285 287 289 287 285 286 287 286 286 288 285 284 286 283 285 286 285 285 284 284 280 281 278 282 282 279 280 280 280 280 279 280 280 286 281 282 281 280 280 280 281
288 290 287 282 283 283 283 284 283 286 283 285 284 283 282 284 286 286 286 285 285 282 281 280 279 278 274 280 277 273 277 280 281 282 281 276 279 279 278 280 280 280 280 280 281

GFSSW_sfc_thetae_033.txt.gz
Theta_e
321 321 322 322 322 323 323 323 323 323 322 323 323 323 323 324 324 320 310 316 319 330 324 316 314 314 315 312 313 312 302 300 301 301 302 307 304 309 310 307 309 310 310 313 314
320 321 321 321 322 322 323 323 323 323 323 323 323 323 323 323 316 312 321 326 333 328 315 312 310 312 310 310 311 307 302 302 306 306 304 305 305 306 306 306 307 309 312 314 312
320 320 321 321 321 322 323 323 323 323 323 323 322 322 322 322 311 308 327 330 333 325 316 315 313 311 307 309 309 307 301 305 306 307 306 305 304 307 304 303 306 306 309 312 313
320 320 320 321 321 322 323 323 323 324 323 323 322 322 322 318 299 310 330 330 332 318 314 311 310 306 305 304 308 302 305 306 307 307 305 304 306 304 305 305 309 310 311 311 311
320 320 320 320 321 322 323 323 324 324 323 323 322 322 318 306 306 324 330 331 320 314 311 309 307 306 302 304 305 303 304 305 306 306 306 306 304 304 304 308 310 310 310 310 310
321 320 320 320 321 322 323 323 323 323 322 322 322 321 311 302 312 323 325 321 314 312 311 310 307 309 305 303 302 304 303 303 304 304 304 302 303 304 305 308 308 308 308 309 309
320 320 319 320 321 322 322 323 323 322 321 322 322 318 307 307 315 321 320 316 314 313 310 312 311 307 306 303 306 303 298 301 302 303 303 303 299 300 306 307 306 306 307 308 309
320 319 319 320 321 322 322 323 322 321 321 320 322 315 304 308 315 314 314 310 313 313 311 310 311 307 305 306 302 298 300 294 302 301 301 301 295 303 306 304 304 304 306 307 308
319 319 319 320 320 321 322 321 318 321 321 321 316 310 302 310 306 309 311 307 309 309 309 308 309 304 304 298 296 299 293 296 298 303 300 298 296 302 305 303 303 304 305 306 307
320 320 320 320 321 321 321 316 319 319 320 318 312 302 305 302 307 306 309 309 306 306 304 304 303 299 299 297 290 295 296 297 296 300 300 298 297 301 304 304 303 304 305 305 306
320 321 321 321 321 322 320 316 314 311 312 310 311 307 311 307 308 305 306 305 306 303 298 301 296 294 298 300 299 297 295 294 297 300 298 297 297 299 302 302 303 304 305 305 305
321 321 322 321 322 322 317 313 308 308 306 314 312 309 310 307 303 303 306 301 300 297 300 296 293 299 301 300 296 295 293 293 297 300 298 296 295 298 300 302 303 304 304 304 304
321 321 320 321 321 321 315 311 312 310 305 308 306 305 304 305 305 306 304 303 299 298 297 295 299 302 297 296 294 295 294 294 293 296 297 295 293 297 302 305 303 302 303 303 301
320 320 320 320 317 321 314 311 312 311 300 302 300 300 300 303 298 302 303 301 299 296 298 297 298 295 295 293 295 291 297 295 293 291 287 294 285 295 300 301 298 299 299 299 299
318 318 320 317 322 318 312 313 312 307 288 299 296 305 302 298 299 298 303 300 296 296 295 294 294 293 292 294 296 292 295 293 292 290 290 291 288 294 300 296 296 297 297 297 296
313 315 317 319 321 317 315 313 311 298 287 298 297 296 296 296 296 299 299 301 300 295 296 295 298 296 296 296 296 296 293 293 294 291 286 292 292 292 294 294 294 295 295 295 295
309 310 316 321 315 319 319 316 298 290 302 298 295 296 297 295 294 295 296 295 296 292 294 296 296 302 297 294 296 292 290 287 286 286 286 291 291 293 297 295 296 294 294 294 295
307 310 313 319 321 319 318 305 288 295 297 303 300 298 297 299 300 297 297 296 301 297 294 290 288 296 295 294 293 292 292 287 280 282 286 292 286 293 296 295 296 295 294 294 293
307 312 311 314 319 319 309 293 292 296 300 298 299 296 296 299 298 298 298 296 298 298 291 290 289 295 293 294 294 292 288 294 287 286 283 287 292 298 294 293 294 294 293 292 291
307 306 306 314 319 314 300 293 295 300 301 300 293 296 291 295 294 294 294 296 293 294 296 293 287 296 295 293 293 290 292 286 286 278 278 284 287 289 291 291 292 291 290 290 290
304 298 306 314 316 302 291 292 294 298 299 297 294 293 293 291 293 292 293 297 299 296 296 296 290 291 294 291 290 289 286 287 287 286 280 279 284 295 291 293 291 289 288 288 289
300 292 308 314 296 297 292 293 295 296 299 297 297 295 293 293 291 291 291 294 300 296 292 295 291 285 288 294 296 294 290 290 283 282 284 283 284 298 291 291 289 287 287 287 287
295 296 306 307 290 292 295 294 295 294 295 295 294 296 296 292 288 290 291 297 298 296 293 294 288 282 283 287 291 289 290 289 289 286 282 281 284 294 292 288 286 286 285 285 285
295 288 295 298 299 293 291 290 291 296 295 295 293 294 292 290 292 288 289 295 296 295 293 294 288 284 280 282 288 285 287 288 286 281 282 282 284 288 290 290 291 287 285 285 285
293 289 293 288 290 292 292 290 288 288 293 294 290 290 289 285 287 286 289 291 292 290 292 291 282 285 285 286 286 284 283 284 283 284 280 282 283 286 288 287 284 283 282 283 284
289 288 291 291 292 291 290 288 287 288 289 287 288 290 290 287 288 284 287 287 286 288 286 286 280 282 278 283 282 280 283 283 283 283 282 282 282 289 286 285 284 284 282 281 282
292 293 291 287 287 288 288 288 288 290 288 289 288 287 285 288 289 288 289 288 287 284 283 282 280 278 274 279 279 274 278 280 281 283 282 278 281 282 281 281 281 281 282 281 282

GFSSW_sfc_thetae_036.txt.gz
Theta_e
321 322 322 322 322 323 323 324 324 323 323 323 323 323 323 324 323 321 312 318 320 330 327 315 313 312 313 311 312 309 297 294 297 297 298 302 298 302 302 300 302 304 302 305 310
321 321 321 322 322 323 323 324 324 324 324 324 323 323 323 323 316 311 324 331 332 331 315 311 309 310 306 308 308 302 297 298 301 300 299 301 300 300 299 300 300 302 306 308 309
320 321 321 321 322 322 323 324 324 324 324 324 323 323 323 321 312 310 328 330 332 327 316 314 312 309 304 306 305 304 298 302 302 304 303 301 300 302 299 297 300 300 303 303 305
321 320 321 321 321 322 323 324 325 325 324 324 323 323 322 318 298 315 329 330 331 318 314 311 308 304 302 301 305 299 303 303 304 304 302 300 302 300 300 300 304 304 304 304 303
321 321 321 321 321 322 323 324 325 325 324 323 323 323 318 307 306 324 328 331 321 315 309 308 305 304 300 301 301 299 301 303 303 302 302 303 300 300 301 304 305 305 305 303 303
321 320 320 320 321 322 323 324 324 324 323 322 322 321 313 302 314 324 323 322 314 311 309 308 305 306 302 300 298 300 300 300 301 301 301 299 299 298 301 303 302 303 302 302 302
321 320 320 320 321 322 323 323 323 323 322 322 322 318 308 305 316 320 319 316 313 311 308 310 309 305 304 299 302 301 295 297 299 300 298 299 294 296 301 302 300 301 300 301 302
320 319 319 320 321 322 323 323 322 321 322 320 322 316 303 310 313 314 314 311 313 313 310 309 309 305 302 303 300 296 295 290 298 299 298 297 289 298 301 299 299 300 301 301 303
320 319 319 320 321 321 322 322 318 321 321 321 317 312 303 311 307 309 310 308 309 310 308 308 308 302 300 294 291 293 287 290 294 300 297 294 291 298 301 299 298 300 300 300 301
320 320 320 321 321 322 322 323 319 319 320 319 313 303 304 303 307 308 308 309 306 305 304 303 300 295 294 291 285 288 290 292 291 296 297 294 293 297 299 299 299 298 299 299 299
320 321 321 322 322 323 322 316 311 309 309 308 310 306 312 306 308 306 307 305 305 302 295 298 292 289 293 295 295 292 291 290 293 297 294 294 294 295 298 298 298 298 297 298 298
321 321 322 322 322 322 319 314 307 308 303 313 313 313 313 308 303 303 306 299 299 294 297 294 290 296 298 297 294 293 290 289 293 297 293 292 291 295 297 297 297 296 297 297 296
321 322 321 321 321 319 316 310 313 311 302 308 308 307 305 306 305 303 303 301 297 295 296 292 296 300 297 294 293 292 290 290 289 292 293 290 288 291 296 297 297 297 296 295 294
321 321 321 320 317 321 314 312 313 312 297 301 300 300 301 304 299 303 304 301 298 295 296 295 296 295 293 292 293 288 294 291 290 286 282 289 279 288 294 292 294 293 292 292 292
320 319 320 317 320 316 312 314 313 307 285 300 296 306 302 298 298 298 301 299 295 295 293 292 292 291 291 292 294 291 292 290 289 286 284 286 282 287 293 289 290 291 291 291 291
316 317 318 318 321 316 316 314 310 295 285 295 297 296 295 296 296 298 298 299 297 294 294 293 294 293 294 295 293 294 289 289 288 286 279 287 286 286 287 290 289 291 291 291 291
312 314 316 320 314 318 318 314 296 288 301 295 294 295 296 293 294 295 294 291 291 287 288 292 292 294 296 291 292 289 286 281 279 278 279 288 285 288 290 291 291 290 290 290 291
309 310 312 319 318 319 317 304 288 295 296 301 299 297 295 296 296 294 293 292 297 295 290 287 284 291 292 291 288 288 288 282 275 276 279 286 281 289 291 292 292 292 290 290 289
308 309 309 314 320 319 308 292 291 295 299 297 299 295 295 299 298 296 294 294 295 295 290 287 287 291 291 290 290 287 285 289 284 284 281 283 287 289 291 290 290 290 288 287 287
305 304 305 313 319 313 300 293 296 300 300 300 293 295 290 293 293 293 291 293 292 293 295 292 286 293 291 290 289 287 289 284 284 276 270 279 280 284 287 288 289 288 286 287 287
304 298 306 314 316 302 291 293 296 300 300 296 294 293 292 290 291 290 290 294 297 292 294 294 289 288 290 288 288 286 285 285 285 282 276 276 279 288 288 289 286 285 286 286 286
301 291 307 313 295 296 290 293 295 294 297 296 295 293 291 290 289 289 289 292 298 295 290 294 290 282 285 291 292 289 287 288 282 280 281 282 281 288 287 286 286 286 287 286 286
294 296 306 307 288 289 293 293 295 293 294 294 293 295 294 290 287 290 290 295 297 295 292 292 285 278 279 284 289 286 287 288 287 285 280 278 280 291 287 286 287 288 287 285 284
294 287 295 298 297 293 290 291 290 296 294 295 293 294 291 289 291 287 288 294 294 293 295 294 287 280 274 279 284 279 282 284 282 279 278 279 280 285 287 286 286 287 288 283 283
293 288 293 286 290 291 292 290 289 288 293 293 291 291 289 284 286 286 288 289 291 291 291 290 280 281 283 284 282 280 280 282 280 281 276 278 278 283 285 283 281 280 280 280 281
288 287 289 288 291 290 290 287 287 288 290 288 287 289 289 285 286 278 283 284 283 285 285 286 272 277 270 279 280 278 280 280 280 280 280 280 279 286 281 281 281 281 280 279 279
291 292 289 288 287 287 287 287 288 289 290 289 288 286 285 286 287 286 287 285 285 282 281 280 275 267 264 276 274 267 275 278 279 281 280 275 279 277 277 278 278 278 279 279 280

GFSSW_sfc_thetae_039.txt.gz
Theta_e
321 322 322 322 323 323 324 324 324 324 324 324 324 324 324 324 322 320 310 315 318 332 325 311 309 307 307 305 305 302 292 289 291 292 294 298 297 300 300 297 298 301 300 302 306
321 321 321 322 322 323 324 324 324 324 324 325 324 324 324 323 316 309 323 333 333 332 311 306 304 305 300 302 303 297 291 293 296 293 295 297 295 295 295 296 296 297 301 304 307
321 321 321 322 322 323 324 324 325 325 325 325 324 324 324 321 307 306 327 330 331 328 313 309 307 305 299 299 300 299 294 297 299 300 299 299 298 298 295 294 297 297 299 300 304
322 321 321 321 322 322 323 324 325 325 325 324 324 324 323 315 292 312 328 330 330 316 311 306 303 299 297 295 301 294 300 300 301 301 299 298 299 298 297 300 301 300 301 301 300
321 320 321 321 321 322 323 324 325 325 325 324 323 323 315 303 303 321 326 329 318 312 306 304 300 299 295 296 297 294 296 299 300 300 299 299 297 298 298 302 302 302 302 300 300
321 320 320 320 321 322 323 324 325 325 324 322 322 321 308 297 315 322 321 319 312 308 304 304 301 302 297 296 294 296 297 297 298 299 298 296 295 297 299 299 299 299 298 298 298
321 320 319 320 321 322 323 324 324 323 322 322 323 317 305 301 314 318 318 312 310 308 305 306 304 301 299 296 298 297 293 295 296 296 296 296 292 295 299 298 298 298 296 298 299
320 319 319 319 321 322 323 324 324 320 322 320 322 313 298 307 308 313 310 307 309 309 307 306 305 302 299 300 297 293 290 287 295 296 296 294 288 296 298 296 297 298 296 297 298
319 318 319 320 320 321 322 323 322 321 321 322 314 307 299 311 305 305 305 305 306 305 304 306 303 298 297 291 288 288 284 287 291 297 294 292 288 296 298 297 295 295 295 296 296
319 319 319 320 321 322 322 323 318 318 319 319 314 298 301 300 305 305 304 306 303 302 300 299 296 291 290 288 282 285 284 288 287 293 294 291 291 294 296 296 295 294 293 294 293
319 319 320 321 322 323 320 312 308 306 306 304 303 299 305 303 305 303 304 302 302 298 291 294 289 286 289 290 290 289 287 286 289 294 290 290 290 293 296 293 293 292 293 292 292
320 320 321 322 322 322 316 307 304 305 301 308 310 310 307 306 301 301 303 296 296 291 293 290 287 293 294 294 292 289 287 286 290 293 290 289 289 293 294 292 292 292 291 291 291
320 321 321 321 320 317 310 305 309 306 297 304 305 305 302 306 302 299 300 297 293 291 291 288 292 296 295 292 290 289 287 287 288 289 290 286 285 288 291 292 292 292 291 291 289
321 321 321 320 314 315 308 309 309 306 292 298 299 299 299 301 296 301 301 298 295 292 292 292 296 294 291 290 291 286 291 290 289 284 280 286 279 286 288 288 289 289 288 288 288
320 320 321 319 315 313 311 310 309 304 283 297 295 302 299 297 296 295 298 295 292 292 291 290 290 289 288 290 292 288 290 288 287 284 281 283 279 284 288 286 287 287 288 288 288
319 319 319 318 317 313 312 309 307 292 283 292 294 294 292 293 293 295 295 296 295 291 290 290 292 291 291 293 292 291 288 287 285 283 277 283 283 283 285 287 287 288 288 288 287
317 317 316 320 313 315 315 311 295 287 298 291 290 293 292 289 290 292 290 288 288 285 285 289 289 291 294 289 290 289 284 279 277 276 278 285 283 286 287 289 289 287 286 286 286
314 315 314 318 317 316 314 303 288 293 293 297 294 293 292 292 291 290 289 287 291 289 287 285 284 289 291 290 288 286 286 280 272 275 277 284 280 286 288 289 289 288 287 286 286
309 308 310 313 318 316 306 292 292 294 296 297 297 292 291 295 295 290 288 290 293 292 288 285 285 289 289 289 290 286 284 288 281 283 280 281 285 288 288 287 286 285 285 284 285
306 304 306 314 317 312 300 293 294 298 298 299 291 294 288 291 292 291 290 290 289 290 292 289 283 290 288 289 288 287 288 282 281 272 273 278 279 281 284 285 285 284 284 284 284
303 298 306 313 313 301 290 292 295 299 299 296 292 291 289 288 291 289 289 291 293 289 293 291 287 285 289 286 286 284 283 284 286 283 277 271 278 287 287 286 283 283 285 285 285
300 292 305 311 295 295 291 293 296 294 296 294 293 291 289 289 287 286 287 289 295 293 289 292 288 278 284 289 289 288 286 285 278 277 278 279 280 288 286 285 286 285 286 285 286
295 295 305 306 287 289 292 292 294 291 292 293 291 293 292 288 285 288 289 293 294 293 290 291 283 272 276 282 286 284 286 286 286 283 275 275 277 286 285 286 287 288 286 284 283
294 288 294 299 295 290 289 290 289 294 293 294 292 293 290 289 290 286 288 292 292 292 295 293 285 277 274 277 282 278 281 282 279 272 271 275 277 284 285 282 284 285 286 282 281
292 287 292 286 290 291 291 290 288 288 292 293 290 290 288 284 285 285 287 288 289 293 290 288 277 281 281 281 280 279 279 280 279 280 273 277 277 281 283 280 279 279 281 281 281
287 287 289 288 291 290 291 287 287 289 290 288 288 289 289 285 284 279 283 283 284 285 286 284 272 276 269 279 279 277 278 278 278 279 278 279 278 285 279 280 279 279 279 278 278
290 290 289 288 286 287 287 288 287 289 287 289 290 287 285 284 286 286 285 285 285 283 281 280 274 267 265 276 272 267 273 277 278 279 278 274 278 274 277 279 277 277 278 278 279

GFSSW_sfc_thetae_042.txt.gz
Theta_e
321 321 322 322 323 323 324 325 325 325 325 325 325 325 325 324 322 317 306 314 315 331 323 309 306 305 305 303 303 299 290 287 289 290 292 297 295 298 298 295 296 299 296 300 303
320 321 321 322 322 323 324 324 324 325 325 325 325 325 324 324 313 308 321 333 334 331 309 304 302 303 299 300 301 295 288 290 294 293 293 296 294 295 295 296 295 295 299 302 304
321 321 321 321 322 322 323 324 325 325 325 325 325 324 324 320 304 304 324 328 332 327 310 307 305 303 297 298 298 296 291 295 297 298 297 296 296 296 293 294 296 297 296 298 302
322 321 321 321 321 322 323 324 325 325 325 325 324 324 323 313 292 309 327 329 330 315 309 304 301 297 295 294 299 293 298 298 300 299 297 295 298 297 296 299 301 299 299 298 298
321 321 321 321 321 322 323 324 325 325 325 324 323 323 313 301 302 318 325 327 313 309 304 302 298 297 294 294 295 293 294 297 298 298 297 297 296 295 296 300 300 299 299 297 296
320 320 320 320 321 322 323 324 325 325 324 322 322 321 305 295 315 321 318 315 309 306 303 302 300 300 296 295 293 294 295 296 297 297 296 295 293 294 297 296 298 298 296 295 296
321 320 320 320 321 322 323 324 325 325 322 322 322 316 305 299 314 318 315 310 308 306 303 304 302 299 298 294 297 295 292 294 295 295 294 295 291 293 298 296 296 295 293 295 295
320 319 319 319 320 321 323 324 324 323 322 321 323 312 297 306 308 312 309 305 307 307 305 304 304 301 298 298 295 291 289 287 293 294 294 293 288 295 297 294 295 293 292 294 294
319 318 319 319 320 321 322 323 323 321 322 322 311 304 298 310 304 304 305 304 305 304 303 305 301 296 295 290 286 287 283 285 290 294 293 290 288 294 297 294 294 291 291 292 291
319 318 319 320 320 321 322 323 320 318 318 318 314 298 301 298 303 303 302 305 302 300 298 298 294 290 288 286 282 284 284 286 286 292 291 289 289 293 295 294 292 289 289 290 290
319 319 319 320 321 323 320 312 307 305 306 303 300 298 301 302 304 302 303 301 301 297 290 293 288 285 288 289 288 286 285 285 288 292 289 289 289 292 292 290 289 289 289 289 289
319 319 320 321 322 322 316 307 305 305 301 308 306 306 304 303 299 300 302 296 295 290 292 289 286 292 292 291 289 288 286 285 289 292 289 288 288 288 290 290 289 288 288 288 288
319 319 320 321 321 316 310 306 308 305 298 302 305 305 303 306 302 300 299 296 292 290 290 287 291 294 292 291 290 288 287 286 288 288 287 285 285 286 289 289 289 289 288 288 287
320 320 320 320 314 314 308 308 308 305 291 296 299 299 299 301 296 300 299 297 293 290 290 290 294 293 290 290 291 286 290 289 287 284 280 285 279 284 287 286 287 286 285 285 286
320 319 320 320 313 312 312 309 307 303 283 296 295 300 298 297 295 294 297 295 292 292 291 290 289 289 289 290 291 288 289 287 286 282 281 281 279 282 286 284 284 284 285 285 286
319 319 319 318 316 315 311 310 308 293 283 290 293 292 291 292 292 294 294 295 293 289 289 290 291 290 291 291 290 290 287 287 283 281 277 281 281 281 284 285 284 285 285 285 285
319 319 318 321 313 312 312 311 294 287 295 289 289 291 289 288 289 291 289 287 286 284 284 287 288 289 291 288 288 287 284 279 277 275 277 284 280 283 285 286 286 284 284 284 284
319 318 317 319 316 315 314 302 287 292 292 294 291 290 288 289 288 289 288 286 289 288 286 285 283 288 290 290 288 285 285 278 270 273 276 283 280 283 285 286 286 286 285 284 284
315 310 313 315 316 317 307 292 292 294 296 294 293 288 288 292 290 287 286 287 291 290 287 284 284 287 288 288 290 285 283 286 280 281 279 280 281 285 285 284 283 283 283 283 283
306 305 306 314 318 313 302 295 296 300 298 298 290 292 287 291 291 287 287 290 291 292 291 289 282 289 288 289 287 286 288 281 280 268 273 277 279 280 281 282 283 282 282 283 284
304 300 307 312 312 303 294 294 296 299 299 295 292 291 291 290 292 288 289 290 290 289 293 290 286 284 287 285 285 282 282 282 284 279 271 269 277 284 285 284 282 283 284 284 283
301 294 307 311 296 296 291 294 298 296 298 296 295 294 291 290 288 287 287 289 293 293 289 290 286 278 283 287 287 286 284 283 280 276 277 278 279 287 287 285 284 284 285 284 285
296 295 306 306 290 290 293 293 295 292 292 293 291 293 293 290 287 287 287 291 292 292 290 291 282 271 277 281 284 283 284 285 284 281 273 277 277 285 284 284 284 285 285 284 283
295 288 294 298 296 293 290 290 291 294 292 293 291 292 290 288 289 285 287 291 291 291 295 293 281 278 277 277 281 278 281 282 279 271 272 278 277 281 283 283 283 282 284 283 280
293 290 292 287 291 291 292 291 289 288 292 293 290 289 289 286 286 285 288 286 288 292 288 288 278 282 280 281 280 279 279 281 279 279 274 278 277 281 282 280 281 282 281 281 279
288 287 290 288 294 291 291 288 288 290 290 288 288 290 290 287 286 283 285 285 284 285 285 284 274 277 271 279 281 277 279 278 280 280 279 279 278 284 282 279 278 278 281 280 279
291 291 290 289 288 288 288 289 289 290 288 290 291 287 287 288 288 287 286 286 286 284 282 280 275 271 271 275 273 267 272 277 277 278 277 273 277 274 277 279 278 278 277 277 278

GFSSW_sfc_thetae_045.txt.gz
Theta_e
321 321 322 322 323 323 324 324 325 325 325 326 326 325 325 324 322 314 301 312 315 330 322 307 304 303 303 302 302 296 288 285 288 289 291 295 295 296 295 294 295 297 298 297 302
320 321 321 322 322 323 324 324 325 325 325 326 326 325 324 323 311 306 318 330 332 330 307 302 300 301 298 299 299 293 286 288 292 293 293 294 293 294 295 294 293 294 298 300 303
321 321 321 321 321 322 323 324 324 325 326 325 325 324 324 320 302 301 325 328 332 326 308 305 303 301 295 297 297 294 289 292 295 296 295 294 294 295 292 293 295 295 297 298 299
322 321 321 321 321 321 323 324 325 325 325 324 324 323 322 311 293 306 327 327 328 313 307 303 300 296 293 292 297 293 297 296 298 298 296 294 296 294 295 297 298 297 296 295 294
321 321 321 321 321 321 322 324 325 325 325 323 323 323 311 299 302 316 325 325 311 307 303 301 297 296 292 293 294 292 294 295 298 297 295 295 295 294 295 298 297 296 296 295 295
321 320 320 320 320 321 322 323 325 325 325 322 323 321 302 294 312 319 316 310 307 305 302 301 299 299 295 293 292 293 294 294 295 295 295 294 292 292 296 295 295 295 294 293 293
321 320 320 320 320 321 322 323 324 324 323 322 322 315 303 299 313 316 313 308 307 304 301 302 301 298 296 293 295 294 291 293 293 293 293 294 291 292 296 295 293 292 292 292 292
320 320 319 319 320 321 322 323 324 324 322 321 322 309 298 305 309 311 308 304 306 305 304 303 302 300 296 296 294 289 288 286 291 292 292 292 288 295 295 294 291 291 289 290 291
320 319 319 319 319 320 322 323 322 323 321 322 310 303 298 309 303 304 304 303 303 302 302 305 301 295 295 289 285 286 282 284 289 293 291 289 287 294 295 293 291 288 288 289 289
319 319 319 319 319 321 322 323 319 317 318 318 314 299 301 297 302 303 301 304 300 299 297 297 292 289 288 285 282 283 283 284 285 289 290 288 289 293 292 291 288 286 287 287 287
319 319 319 319 320 322 319 312 306 305 307 302 299 299 299 301 303 300 302 301 300 295 289 291 286 285 288 289 287 286 284 284 286 291 288 288 289 289 290 288 287 286 286 286 286
319 319 319 320 321 322 317 308 307 306 301 307 305 302 304 302 298 299 302 296 294 290 291 288 285 291 290 289 288 286 284 284 288 290 289 287 288 287 288 287 287 286 285 286 286
319 319 319 320 321 318 311 310 308 305 298 302 305 305 304 303 302 300 299 295 292 289 289 287 291 293 291 288 288 286 285 285 287 287 286 284 284 285 286 287 287 286 286 286 285
319 318 318 320 316 313 308 309 307 305 292 295 299 301 300 303 298 300 299 296 291 290 289 288 292 291 289 288 290 285 290 288 287 283 280 284 278 283 285 284 284 284 283 284 284
319 318 319 320 312 309 312 308 307 303 283 296 295 300 298 299 295 293 296 294 291 291 290 289 289 288 288 289 291 288 288 287 285 282 280 280 279 281 284 282 282 283 284 284 284
319 318 319 319 316 315 309 308 306 293 284 290 292 291 292 292 292 293 293 295 294 290 288 290 290 290 291 289 290 290 287 285 282 281 276 281 281 280 282 283 283 283 283 284 284
318 318 317 321 314 314 311 309 293 287 294 288 288 289 288 287 289 290 289 287 286 283 283 286 287 288 290 288 287 287 285 279 276 275 276 280 279 282 284 284 285 283 283 283 283
318 318 318 321 318 312 312 301 287 293 293 292 290 288 286 288 287 288 286 285 288 287 284 283 283 288 290 289 287 285 285 278 270 273 276 282 279 284 283 284 285 285 283 283 282
318 317 317 319 315 314 306 293 291 294 295 291 290 286 285 289 287 286 285 285 289 289 287 284 284 287 287 287 289 284 282 285 279 270 275 279 282 283 283 282 282 282 282 282 282
312 311 311 318 316 311 301 295 296 300 298 294 287 290 284 289 288 285 284 288 290 290 291 288 282 287 287 288 286 286 288 281 279 268 268 276 278 280 280 281 281 281 282 282 283
306 301 308 316 314 305 295 296 298 299 299 295 291 291 290 290 290 286 287 290 291 288 292 289 286 283 286 285 284 283 282 282 283 277 270 268 275 283 284 283 282 282 283 283 283
303 295 307 310 299 298 297 296 298 295 299 296 295 293 291 290 289 290 289 291 291 292 289 290 285 278 283 285 285 284 284 283 280 276 276 277 278 285 285 285 284 283 284 283 283
298 296 305 305 293 291 294 295 297 295 296 296 295 295 295 292 288 288 287 290 292 291 290 291 282 273 278 281 283 282 284 283 282 279 274 273 277 285 283 283 283 283 284 284 284
296 290 294 298 296 292 291 291 291 295 294 296 294 293 290 288 293 287 286 290 291 291 295 293 282 279 279 279 282 279 282 283 278 272 274 279 279 280 282 283 283 283 283 284 283
293 291 293 288 290 292 293 290 290 288 292 294 290 291 290 286 286 285 287 287 288 291 288 288 280 280 280 280 279 280 279 281 279 280 277 279 279 281 284 283 283 283 281 283 280
290 288 291 289 293 291 292 288 288 291 290 289 288 290 291 287 287 284 286 286 285 284 285 284 275 278 279 279 281 279 280 281 281 281 280 280 280 286 282 282 281 281 280 282 280
291 291 291 288 289 290 288 289 289 292 291 291 291 289 288 290 289 287 287 288 287 285 283 280 277 276 277 275 274 272 275 278 279 280 281 278 282 275 278 279 279 279 278 280 280

GFSSW_sfc_thetae_048.txt.gz
Theta_e
320 320 321 322 322 323 324 325 325 325 326 326 326 325 325 324 321 311 299 310 314 328 321 305 303 303 302 301 299 294 287 284 287 287 289 293 294 294 295 293 295 295 300 296 302
321 321 321 322 322 322 323 324 325 325 326 326 325 324 324 323 309 303 318 330 332 328 305 300 298 300 297 298 298 291 285 286 289 291 294 293 292 294 294 292 293 293 296 298 298
322 321 321 321 321 322 323 324 324 325 326 325 324 324 323 319 302 299 325 328 331 322 305 303 302 299 294 297 297 292 288 290 293 294 294 293 293 293 295 293 292 292 296 295 294
322 322 321 321 321 321 322 324 325 325 326 325 323 323 322 308 293 304 326 329 329 310 305 302 299 295 292 292 295 292 295 294 296 296 294 293 294 293 294 294 295 294 294 294 293
321 321 321 321 321 321 322 323 324 325 325 324 323 323 309 297 301 314 325 322 310 305 302 299 296 295 291 292 293 293 293 295 296 295 294 294 293 292 294 293 294 295 294 292 292
320 320 320 320 320 321 322 323 324 325 325 323 323 321 300 294 311 316 313 307 306 303 300 300 298 298 294 292 291 292 292 294 294 294 294 293 291 291 292 292 293 294 291 291 291
320 320 320 320 320 321 321 322 324 324 324 322 321 314 300 300 314 314 310 306 306 303 300 300 300 297 295 292 294 292 290 291 291 291 292 293 289 290 292 291 291 290 289 290 289
320 319 320 320 320 320 321 322 324 324 323 321 321 307 299 304 310 310 306 304 305 304 303 302 301 298 295 295 292 288 287 285 290 291 291 292 288 292 292 291 289 288 287 288 288
319 319 319 319 319 319 321 322 322 322 321 322 309 301 298 308 303 304 303 302 302 301 301 303 300 294 294 289 285 285 283 283 288 291 290 288 287 293 291 290 287 286 286 287 287
319 319 319 319 319 319 321 322 320 317 316 317 312 299 302 297 301 302 301 303 299 298 297 296 292 288 287 285 282 283 281 283 284 288 289 287 288 290 289 288 285 284 284 285 285
320 319 319 319 319 321 319 311 306 304 305 302 300 299 299 300 302 299 301 300 298 294 289 290 286 285 287 288 286 285 283 283 285 289 287 288 288 287 287 286 284 284 284 284 285
320 320 319 319 320 322 318 307 307 305 300 307 305 301 302 301 297 299 302 296 293 290 290 287 284 289 289 288 287 285 283 283 287 289 288 287 286 285 286 285 285 284 284 284 284
320 319 319 319 320 319 314 310 307 305 298 302 304 303 304 301 299 298 299 295 292 289 288 286 290 291 290 287 286 284 283 284 286 286 285 283 284 284 284 285 285 285 285 285 284
320 319 318 319 316 315 311 315 308 306 292 294 298 301 301 302 297 301 299 296 291 289 289 287 291 291 287 287 288 283 289 288 286 283 280 283 279 282 283 282 283 283 283 283 283
319 318 318 320 312 311 313 308 306 303 282 295 296 299 299 300 295 294 297 296 290 290 290 289 289 288 287 288 290 287 288 287 284 281 280 280 278 281 282 280 281 282 283 283 283
319 318 318 317 316 314 309 308 306 292 283 291 292 291 293 292 292 293 293 295 294 290 288 290 289 290 290 289 290 289 287 285 282 280 276 281 281 280 281 283 282 282 283 283 283
318 318 317 320 312 313 310 308 293 285 293 288 287 289 290 287 288 290 289 288 287 284 283 285 287 288 290 286 286 287 284 279 276 275 277 280 278 282 284 284 284 283 283 283 283
318 317 317 319 321 312 310 300 286 292 292 290 289 287 286 287 287 287 286 285 288 286 283 282 282 287 289 287 285 285 285 279 272 272 275 281 278 284 284 283 285 285 284 283 282
318 316 316 318 320 314 303 292 290 292 296 289 288 283 283 286 285 286 285 285 289 287 285 283 284 286 288 287 288 283 282 285 278 269 273 279 281 283 282 281 281 282 282 281 282
314 312 312 320 316 311 300 293 295 299 297 292 288 287 282 286 284 283 283 287 288 289 291 288 282 286 285 287 286 285 287 281 279 270 268 276 277 279 281 280 281 280 281 281 282
308 302 309 320 314 305 294 294 298 301 299 294 293 288 286 287 286 283 284 287 290 289 292 289 287 283 286 284 283 283 282 281 282 277 270 268 275 283 284 282 281 282 283 283 282
305 297 308 315 300 299 297 298 300 300 298 296 295 294 290 290 286 284 285 288 292 293 289 290 286 279 282 284 284 283 283 283 279 276 275 276 278 284 284 284 284 283 284 283 283
300 298 305 307 293 294 296 297 298 294 296 296 294 295 294 290 288 288 289 291 291 292 291 290 283 273 278 281 282 282 283 283 282 279 274 273 276 284 283 283 283 282 283 283 283
297 291 295 298 297 295 292 292 293 296 296 297 295 294 292 290 293 289 287 289 291 291 295 294 284 280 280 280 283 281 282 283 281 274 275 280 281 281 282 283 282 282 283 283 283
295 293 294 288 290 292 292 290 290 289 293 295 292 292 291 287 289 289 288 288 290 292 289 290 282 280 279 280 280 280 281 282 280 283 279 282 281 282 285 285 284 283 282 282 282
291 290 291 290 295 292 291 285 287 289 288 286 289 291 292 286 288 284 287 287 287 286 287 285 278 278 273 280 280 279 281 281 283 280 280 280 280 283 283 283 282 283 282 281 282
291 292 290 290 290 290 290 289 288 292 292 293 290 290 289 292 291 288 290 289 290 287 285 283 279 275 275 276 277 278 279 280 280 281 281 278 284 277 279 281 282 282 281 280 282

GFSSW_sfc_thetae_051.txt.gz
Theta_e
320 321 321 322 322 323 324 325 325 325 325 325 326 325 325 324 322 311 300 309 312 327 320 305 305 304 304 303 301 298 289 286 289 290 293 297 297 299 299 298 299 300 300 298 300
321 321 321 321 322 322 323 324 325 325 326 326 325 324 323 323 309 303 317 328 331 327 305 301 300 301 299 300 300 293 288 289 292 293 294 296 296 297 298 296 298 299 299 298 298
321 321 321 321 321 322 323 324 325 325 326 325 323 324 323 318 301 300 324 328 331 320 305 304 303 301 297 298 298 294 290 291 294 295 297 296 296 297 296 295 298 298 296 296 296
321 321 321 321 321 321 322 323 324 325 325 325 324 323 322 307 293 304 326 328 329 308 305 302 300 297 294 293 297 293 296 295 298 298 296 295 297 296 296 297 296 295 295 294 293
321 320 321 321 321 321 322 323 324 325 325 325 324 323 307 298 301 313 325 323 310 305 302 300 298 297 292 294 295 295 295 296 297 296 295 295 295 295 295 293 295 294 293 292 291
320 320 320 320 321 321 321 322 324 325 325 325 323 321 299 295 311 315 312 306 305 303 301 301 298 299 295 294 293 293 294 294 295 295 295 294 293 294 293 294 293 292 290 290 290
320 320 320 320 321 321 321 322 323 324 324 324 321 313 299 301 313 312 308 305 305 303 301 301 300 298 297 293 295 293 291 292 293 293 293 294 291 292 292 293 291 289 289 289 289
320 319 319 320 320 320 320 322 323 323 323 322 321 306 300 304 311 310 306 304 304 303 303 302 302 299 296 296 292 290 289 288 292 292 292 293 290 291 292 292 289 288 287 288 288
319 319 319 320 319 319 320 321 322 321 321 321 307 300 299 308 304 307 304 303 302 301 301 302 299 295 295 290 287 286 285 285 289 292 292 291 290 289 291 289 287 286 286 287 287
319 319 319 320 319 319 320 322 322 316 315 316 310 299 302 298 301 302 301 302 299 299 298 296 292 289 288 287 283 284 284 284 286 289 290 289 290 288 288 287 285 285 285 286 286
320 319 320 320 319 320 319 311 306 303 304 302 300 299 299 299 301 299 302 300 298 295 291 291 288 287 288 288 287 286 285 285 287 290 289 289 289 289 287 286 285 285 285 285 285
320 320 320 320 320 321 318 307 306 304 299 306 305 301 301 300 295 298 301 295 293 289 290 287 285 290 290 288 287 286 284 284 287 289 289 288 288 287 286 285 286 285 285 285 285
320 319 319 319 319 319 315 311 307 305 297 302 304 302 302 300 296 296 299 295 292 288 288 286 289 290 290 286 286 284 284 284 286 287 287 285 285 284 284 285 285 286 286 285 285
320 319 319 318 315 315 312 316 314 305 291 293 298 302 299 300 295 301 299 296 291 289 289 287 291 290 287 286 287 283 288 287 286 285 282 284 280 284 283 283 284 284 284 284 284
320 319 318 319 310 310 312 314 307 302 280 293 295 299 300 299 295 294 297 296 290 290 290 289 288 288 287 288 289 287 289 287 286 283 281 282 280 283 283 281 282 283 284 284 284
319 319 318 317 314 313 308 308 306 291 282 291 292 291 294 292 292 293 293 295 294 290 288 290 291 290 291 289 289 288 286 285 282 282 277 283 283 282 281 283 283 284 284 284 284
318 318 316 318 311 312 310 309 292 285 293 288 287 290 291 287 288 290 289 287 287 284 283 286 287 288 290 286 288 287 285 279 277 276 278 280 279 283 285 285 285 284 284 284 284
318 317 316 318 319 311 310 301 284 290 291 289 288 287 288 287 286 287 286 285 288 287 284 284 282 287 289 288 286 285 285 280 274 274 276 281 278 284 285 285 285 286 286 284 283
317 316 315 318 319 314 302 290 288 291 295 288 286 283 283 285 286 285 284 285 290 287 286 282 284 286 287 288 288 284 283 285 278 275 275 280 282 285 284 282 282 283 283 283 283
315 312 312 319 319 311 298 291 293 297 295 292 288 287 282 283 283 283 283 287 288 289 290 287 282 285 285 287 286 286 287 281 280 272 270 277 278 280 282 282 281 281 283 283 283
311 304 312 319 317 305 294 294 297 299 298 294 292 291 285 285 285 283 284 286 289 289 292 288 286 283 284 283 283 284 283 282 283 278 272 270 276 283 284 284 281 282 284 284 283
308 297 308 318 300 301 296 299 300 299 301 298 295 294 289 288 286 284 284 286 290 291 288 290 286 278 281 283 284 284 284 283 281 276 276 276 278 284 284 284 284 283 284 284 284
302 302 306 306 295 295 297 298 300 298 299 297 294 295 293 290 286 285 285 290 291 291 290 290 284 275 279 282 282 282 283 283 282 281 275 275 277 284 283 283 283 283 283 283 283
299 293 296 298 298 298 296 294 294 297 298 299 296 296 293 290 292 289 287 289 291 291 296 295 285 285 284 283 284 281 282 282 284 276 278 281 278 282 284 284 283 283 284 283 284
298 294 295 289 294 295 296 293 291 292 294 296 293 295 294 291 291 290 287 287 290 293 290 291 287 282 279 280 281 282 282 282 282 285 281 283 282 283 286 286 286 284 283 282 283
292 291 292 290 294 293 294 288 290 291 291 289 290 293 293 291 293 289 288 288 288 287 288 287 284 283 280 281 281 279 281 283 284 283 284 281 281 286 288 285 283 284 283 283 283
292 292 292 291 290 290 289 289 289 292 291 293 291 290 288 291 293 292 293 292 291 286 285 285 281 281 279 278 279 279 280 281 281 281 284 280 285 281 282 283 284 283 283 284 282

GFSSW_sfc_thetae_054.txt.gz
Theta_e
321 321 322 322 322 323 324 325 325 326 325 325 326 325 325 324 323 317 309 314 317 327 322 313 312 311 313 310 308 305 301 297 297 298 300 304 303 304 305 304 305 305 304 302 305
321 321 321 321 321 322 323 324 325 326 326 325 325 324 324 324 315 310 320 327 331 328 311 309 307 308 308 307 308 305 300 297 300 302 302 303 303 304 303 303 303 303 304 304 305
321 321 321 321 321 321 322 324 324 325 326 326 325 325 324 321 309 307 326 328 330 321 312 311 310 308 304 306 305 302 299 299 300 302 303 303 302 304 302 301 303 302 302 302 303
321 320 320 320 320 321 321 323 324 325 326 326 325 324 322 314 300 310 326 328 329 314 312 309 308 304 302 300 304 300 301 301 302 303 302 302 303 302 302 301 300 301 300 300 300
321 320 320 320 320 321 321 322 324 325 325 325 325 323 313 308 309 318 325 326 316 312 309 307 304 304 300 301 302 301 301 302 303 302 302 301 301 301 298 300 300 299 299 298 298
320 320 320 320 321 321 321 322 323 324 325 325 324 321 309 304 317 320 315 311 311 310 308 308 305 306 302 301 300 301 300 301 302 301 301 300 299 300 297 300 298 298 297 297 297
320 320 320 320 321 321 321 321 322 324 324 324 322 316 308 309 319 318 312 310 311 309 307 308 308 305 304 300 301 300 298 300 301 299 299 301 296 297 297 299 297 296 296 295 295
320 319 319 320 320 320 320 321 322 323 323 322 321 312 307 308 319 314 313 310 310 310 309 309 309 305 303 302 299 298 298 296 298 298 298 299 296 295 297 298 296 295 295 294 294
319 319 319 319 320 320 320 321 320 321 321 321 315 309 306 312 310 314 312 308 307 307 307 307 307 303 302 299 297 295 295 293 296 298 298 298 297 296 296 297 295 294 294 294 294
319 319 319 320 320 319 319 321 322 318 317 317 313 306 307 303 305 307 308 309 305 305 304 304 302 299 297 297 292 295 292 293 295 296 297 296 297 294 294 295 294 293 293 293 293
320 319 320 320 320 320 320 319 312 309 311 307 307 306 304 303 306 304 307 305 305 303 298 299 297 294 297 299 298 296 294 294 295 295 295 297 297 297 294 293 293 293 293 292 292
320 320 320 320 320 320 320 313 311 310 304 310 309 306 305 304 299 301 306 301 300 296 297 295 293 299 297 297 295 294 293 293 294 294 294 295 295 298 293 293 293 292 292 292 291
320 319 320 320 319 319 315 314 311 311 306 306 308 307 306 303 301 300 303 300 297 294 294 295 296 297 295 292 292 293 292 293 293 293 294 292 293 294 289 290 290 291 292 292 292
321 319 319 319 315 316 312 318 318 315 298 299 302 307 302 304 299 303 304 301 296 294 294 294 297 293 292 292 293 291 294 293 291 291 289 291 289 292 290 289 289 289 291 291 291
320 319 319 319 315 311 314 320 319 311 285 299 299 303 302 303 300 297 301 299 296 293 295 294 292 293 292 293 294 293 294 292 292 291 290 289 288 293 289 287 288 289 290 292 291
319 319 318 317 316 316 314 314 311 294 285 295 296 296 297 297 294 296 297 300 299 294 294 296 296 296 296 293 295 293 292 290 290 290 284 290 289 291 289 291 290 290 290 291 290
318 318 316 319 311 311 313 309 292 285 299 292 293 295 297 293 292 293 292 293 293 290 291 294 293 294 294 292 292 293 291 286 284 283 283 286 286 292 295 292 292 290 290 291 290
318 317 316 319 317 312 312 301 284 293 296 293 291 293 294 292 292 292 292 291 295 294 291 290 288 291 294 296 292 290 293 288 281 280 284 284 283 290 291 292 291 293 292 291 289
317 317 316 317 317 313 305 290 289 295 299 293 290 290 291 290 293 291 292 294 295 294 292 289 290 292 292 292 295 289 287 293 283 279 284 287 288 290 288 287 288 289 290 289 289
314 312 311 319 317 310 299 292 294 300 299 299 291 293 290 289 290 290 290 295 293 296 299 294 289 289 289 292 291 291 294 286 287 281 280 283 284 289 286 288 287 287 288 289 290
311 303 313 319 314 303 292 293 297 302 301 295 295 295 293 290 291 289 292 294 296 293 297 293 291 287 288 288 289 287 287 288 290 288 284 282 285 292 292 292 288 289 290 291 290
308 295 314 318 301 301 295 298 300 300 303 299 298 297 293 290 288 290 291 295 296 295 291 296 291 285 286 289 290 292 290 290 287 281 284 283 287 290 292 292 292 291 291 292 291
301 301 308 310 292 294 298 298 300 298 299 299 297 297 299 292 287 291 293 294 294 295 294 294 290 285 285 287 288 286 289 291 292 288 285 284 287 288 289 289 291 291 290 290 291
301 293 299 300 303 295 296 295 296 301 300 300 298 298 294 293 293 292 291 292 294 295 297 297 291 289 287 290 291 286 288 288 289 287 287 286 291 286 289 289 289 290 290 291 290
299 296 299 291 294 296 296 296 294 293 298 300 295 297 295 291 292 291 295 290 292 294 294 294 287 291 293 290 291 291 288 288 287 289 287 290 289 290 291 291 291 292 291 290 290
293 294 294 296 296 295 295 292 292 295 293 291 294 296 296 293 294 289 293 291 292 290 290 290 287 290 287 289 286 285 289 289 288 290 290 290 289 295 293 293 292 291 290 289 289
293 294 294 293 291 292 293 293 292 295 293 295 294 294 291 295 294 294 293 293 291 289 288 287 287 284 283 287 282 279 285 288 288 291 291 286 291 289 288 289 291 291 290 290 290

GFSSW_sfc_thetae_057.txt.gz
Theta_e
320 321 321 322 322 323 324 325 325 326 326 326 327 326 325 325 324 320 312 316 319 329 320 314 314 313 314 311 311 310 301 298 299 300 302 306 304 307 309 307 307 307 306 306 308
320 321 321 321 321 322 323 324 325 325 326 326 327 325 325 324 318 314 319 327 331 329 313 310 308 310 309 309 310 306 301 300 302 304 303 306 305 306 305 305 305 305 307 307 309
321 320 320 321 321 321 322 323 324 325 326 326 326 325 324 322 313 310 323 327 330 320 313 312 311 309 305 308 307 305 300 302 301 304 306 305 304 306 304 303 305 305 305 305 306
321 320 320 320 320 321 322 323 323 324 325 326 326 325 323 318 301 312 326 328 330 316 313 311 309 306 304 303 306 301 303 303 304 304 304 303 306 304 304 304 304 304 304 304 304
321 320 320 320 320 321 321 322 323 324 325 325 326 324 318 311 311 319 325 326 317 314 311 309 306 306 303 303 304 303 303 304 305 305 305 305 303 303 303 303 303 302 302 302 302
320 320 320 320 320 321 321 321 322 323 324 325 325 321 313 305 318 321 316 314 313 312 310 309 307 308 304 303 302 304 303 304 304 304 304 301 303 302 302 303 301 301 300 301 300
320 320 320 320 320 321 321 321 322 323 324 324 323 317 311 310 320 320 315 313 313 311 308 310 310 306 306 302 304 303 300 304 304 304 302 303 299 299 302 302 300 300 300 299 299
320 319 319 320 320 321 320 320 321 321 323 321 321 316 309 312 320 316 315 312 313 312 311 311 311 308 306 305 302 300 301 298 303 301 301 301 298 301 301 300 301 300 300 299 298
319 319 319 320 320 320 320 320 320 321 321 321 318 314 308 314 311 316 315 310 310 310 310 310 310 305 304 300 299 300 296 299 300 302 300 299 299 300 301 300 301 301 299 298 298
319 319 319 320 320 320 319 320 322 321 318 318 315 308 310 305 309 313 313 312 308 308 306 305 304 301 300 299 293 297 297 298 297 300 299 299 298 299 299 300 300 300 299 298 298
320 319 320 320 320 320 319 320 313 311 313 309 310 309 307 305 309 309 310 308 307 305 299 303 298 296 299 301 301 300 298 297 300 300 297 299 299 302 299 298 299 299 298 298 297
320 320 320 320 321 320 320 313 314 312 305 313 312 310 308 307 301 305 309 303 302 298 301 297 294 301 303 301 300 299 296 296 300 298 296 297 297 301 301 298 299 299 298 297 295
320 320 320 320 320 318 316 314 315 314 306 307 311 309 309 305 303 302 305 304 300 298 298 297 300 301 300 297 295 296 295 296 296 297 297 296 295 298 301 299 297 298 298 297 296
321 319 319 319 314 317 313 318 318 320 298 301 303 309 307 307 302 309 306 303 298 296 298 297 302 297 296 295 296 293 299 297 295 293 290 297 288 298 300 293 294 294 295 295 296
319 319 319 318 315 313 315 320 321 315 286 303 302 308 306 304 303 299 305 300 298 296 296 296 294 294 294 295 297 295 297 296 295 293 293 294 289 295 297 292 292 294 294 295 295
318 319 318 317 316 315 318 318 315 293 285 297 300 299 298 302 297 298 298 301 300 298 297 297 299 298 298 298 298 298 295 293 293 293 287 293 292 293 294 293 295 294 294 295 294
317 317 317 319 311 314 317 310 292 285 301 296 295 298 299 297 294 295 294 293 293 289 291 295 296 298 298 294 295 296 293 288 286 284 284 292 292 294 300 296 298 293 293 294 294
315 317 316 319 316 315 313 300 283 294 297 298 297 298 296 298 296 293 292 291 296 297 294 292 290 296 297 297 295 292 294 289 282 285 288 286 285 292 296 297 296 296 295 295 293
315 316 315 318 314 316 305 290 290 296 301 299 295 294 295 296 296 294 294 294 297 297 291 292 293 296 297 299 299 293 290 297 288 283 283 288 290 295 291 290 292 294 293 293 292
313 311 310 319 315 310 300 291 294 301 302 300 293 296 293 294 292 293 294 298 298 299 301 298 291 293 293 294 295 294 297 287 288 282 281 288 288 290 288 289 290 292 292 292 292
310 303 312 320 314 303 291 293 297 303 303 298 297 296 296 296 295 293 296 299 300 299 298 298 294 289 290 289 290 289 289 292 292 290 286 285 288 296 296 294 291 292 292 293 292
306 296 316 317 299 297 291 296 299 301 303 300 301 299 297 296 294 294 295 299 301 299 293 298 293 289 291 294 295 295 292 292 287 285 287 288 289 292 297 297 295 293 293 294 294
300 301 313 311 292 291 296 296 298 298 299 299 297 300 301 297 290 294 297 302 301 298 296 296 289 285 287 290 290 288 291 293 293 291 287 285 289 292 292 294 296 294 294 294 294
300 293 301 303 303 295 293 294 294 301 299 300 299 301 298 295 296 294 295 296 297 298 299 298 291 289 288 292 292 286 288 290 290 286 287 288 291 289 291 292 293 295 295 294 294
298 295 300 291 293 296 296 295 293 292 299 300 297 297 296 292 293 292 295 297 293 295 295 296 286 290 292 294 294 290 289 289 287 289 287 290 291 296 293 294 294 295 294 293 293
293 294 297 297 298 295 295 293 292 294 295 293 294 298 297 293 294 291 294 294 292 291 290 293 287 289 287 292 293 290 291 291 290 290 290 292 293 301 300 296 294 294 293 292 292
296 295 293 292 294 293 293 292 292 296 296 297 295 294 294 297 299 296 294 293 293 291 288 287 286 285 284 289 289 281 286 289 291 293 293 288 293 289 291 291 292 293 293 292 292

GFSSW_sfc_thetae_060.txt.gz
Theta_e
320 321 321 322 322 323 324 325 325 326 327 327 327 327 326 326 324 321 313 316 321 328 321 313 313 312 312 310 311 307 296 293 294 295 297 302 299 301 302 300 301 303 300 301 304
320 320 321 321 321 322 323 324 325 325 326 327 327 327 326 324 318 315 318 329 331 329 314 310 308 309 305 307 307 301 296 296 298 298 298 302 300 301 298 300 299 300 303 304 305
321 320 321 321 321 321 322 323 324 325 325 326 327 327 325 321 314 311 326 329 330 321 313 312 310 308 303 305 303 301 296 298 298 302 303 301 299 301 297 297 298 299 300 302 302
321 320 320 320 321 321 322 322 323 325 325 326 326 326 323 318 301 314 326 328 329 315 313 311 308 305 303 301 305 297 301 300 303 302 301 299 301 298 299 297 301 300 301 301 300
321 321 320 320 321 321 322 322 323 324 325 325 326 325 319 310 310 318 324 325 318 314 310 309 304 305 301 301 302 299 301 302 303 302 301 302 299 299 298 299 300 300 301 299 299
321 320 320 320 320 321 321 321 322 323 324 325 325 322 315 304 318 319 316 315 314 311 308 308 305 306 302 300 299 301 301 301 302 302 302 299 299 299 298 300 299 299 298 297 298
320 320 320 320 320 321 321 321 321 322 322 323 324 317 311 309 319 319 314 313 312 311 308 310 308 305 304 300 303 301 296 300 300 301 299 299 296 296 298 299 298 297 296 297 297
320 319 319 319 320 320 321 321 321 321 322 323 323 317 307 314 319 316 315 312 312 311 311 311 309 307 304 303 300 296 296 292 299 300 298 297 292 299 298 297 296 296 295 296 296
319 319 319 319 319 320 320 320 320 321 322 322 317 314 306 315 311 316 314 310 310 310 309 309 309 303 301 295 293 295 290 293 295 299 297 295 293 296 298 297 296 296 296 296 295
319 319 319 319 320 320 320 320 321 321 320 319 316 307 309 306 310 314 313 311 308 306 305 304 301 296 296 293 287 291 290 294 293 296 296 293 293 295 296 296 295 296 295 295 295
319 319 320 320 320 320 319 317 313 309 312 308 308 308 308 306 311 309 310 307 306 303 296 300 294 291 295 296 297 295 293 292 296 296 294 293 294 297 296 295 294 295 295 294 294
320 320 320 320 321 321 318 312 312 310 303 311 311 311 309 306 301 306 309 302 301 296 299 294 291 298 300 299 297 295 292 292 296 296 293 293 293 296 296 295 296 296 294 294 292
320 320 320 320 320 317 314 314 315 315 303 305 310 309 309 305 302 301 304 302 298 296 296 293 297 300 298 296 294 294 292 292 292 295 293 290 289 293 297 297 296 297 296 295 292
321 319 319 319 314 316 312 318 318 319 296 299 304 309 309 305 300 307 306 302 298 295 297 296 300 298 295 295 295 290 297 295 293 290 285 291 283 291 295 296 294 294 293 292 292
319 319 319 319 314 312 315 318 318 315 284 302 302 309 308 303 302 299 303 299 295 294 296 294 293 294 293 294 296 292 295 292 291 288 286 287 285 289 294 294 292 292 292 291 292
315 318 319 317 316 315 318 318 314 292 283 297 299 298 298 301 297 298 298 300 299 296 296 295 297 295 294 296 296 297 293 291 289 288 281 288 288 287 293 294 292 292 292 292 291
313 315 316 319 312 317 318 311 291 283 300 294 294 298 298 296 295 294 293 291 291 287 289 293 293 295 296 291 294 294 290 282 280 279 280 288 286 291 294 293 295 292 292 292 291
313 314 314 318 317 317 313 299 283 292 295 298 298 297 294 297 295 293 291 290 294 293 291 287 286 293 295 294 292 290 290 283 276 279 281 282 281 288 290 291 292 295 293 292 291
312 313 312 315 316 316 305 289 288 293 299 296 296 293 293 296 295 292 291 290 293 294 289 289 290 294 295 295 296 289 286 293 286 277 277 284 287 291 289 288 289 292 291 291 290
307 309 308 317 316 311 299 292 292 300 301 300 292 294 291 293 291 291 291 295 294 296 297 293 288 291 289 293 292 291 294 285 286 279 278 282 284 286 286 287 288 290 290 291 290
306 301 310 318 314 301 290 290 297 302 302 298 296 295 294 294 293 291 293 296 298 296 297 294 291 285 288 286 288 287 286 288 290 285 281 277 284 291 294 291 288 290 291 291 290
303 293 312 315 297 296 291 295 298 299 302 300 300 298 297 296 294 293 292 295 300 299 292 295 293 285 285 291 293 293 291 291 285 283 285 285 286 291 291 292 291 291 291 292 291
297 298 311 310 290 291 295 294 296 297 298 299 297 299 299 296 292 295 295 300 299 297 294 296 289 285 286 288 289 287 290 292 292 288 284 280 285 289 290 291 291 290 291 291 290
296 291 298 302 300 294 292 292 292 298 296 299 298 300 297 295 297 294 294 297 296 297 299 299 289 287 286 287 287 283 287 289 289 285 285 286 288 286 287 288 290 290 291 291 290
295 291 298 290 293 295 295 294 291 292 298 298 295 296 295 292 293 293 296 296 294 295 296 296 286 288 290 291 291 287 285 287 286 288 284 288 289 293 291 290 291 292 291 290 290
291 291 297 294 296 294 293 290 291 294 294 293 293 296 297 293 294 290 295 294 294 292 291 293 286 288 286 289 290 288 290 288 287 289 289 290 289 295 297 293 290 291 291 290 290
297 295 293 291 291 291 291 291 292 294 295 297 296 294 291 294 296 294 294 294 296 293 289 288 286 284 283 286 287 283 288 290 291 290 290 286 291 289 290 291 289 290 291 291 291

GFSSW_sfc_thetae_063.txt.gz
Theta_e
321 321 322 322 322 323 324 325 325 325 326 327 327 328 327 326 324 320 308 314 319 326 321 309 307 305 305 303 303 299 291 288 290 291 294 297 296 298 299 298 299 300 298 300 303
320 320 321 321 321 322 323 324 324 325 325 326 327 327 327 325 317 311 320 328 329 326 310 304 302 303 299 301 301 295 290 291 293 293 294 297 297 297 295 296 296 297 300 302 302
320 320 320 321 321 322 322 323 324 324 325 326 326 326 326 321 309 307 326 330 328 321 310 307 305 303 297 298 297 296 291 294 295 298 299 298 296 298 295 293 296 297 298 300 299
321 321 320 320 321 321 322 322 323 324 324 325 326 325 323 314 295 311 326 328 327 313 309 306 303 298 297 296 300 292 297 297 300 300 298 297 298 296 296 296 299 299 299 299 298
321 320 320 320 320 321 322 322 322 323 324 325 325 324 315 304 306 315 324 323 315 309 306 304 300 299 296 296 297 295 297 299 300 299 298 300 296 296 295 297 298 299 299 297 297
320 320 319 320 320 321 321 321 322 322 323 324 325 322 309 298 315 316 315 313 311 306 303 303 301 301 297 296 295 297 297 298 299 300 299 297 296 296 295 296 296 298 296 295 296
320 320 319 320 320 321 321 321 321 322 321 323 323 316 306 303 314 312 311 308 308 307 304 306 304 300 299 297 299 297 293 296 297 298 297 297 294 295 296 296 295 295 294 295 295
320 319 319 319 320 320 321 321 321 321 322 323 323 313 302 311 313 313 310 307 308 307 307 307 305 302 300 300 297 292 291 289 296 297 297 296 290 297 296 295 294 294 292 294 295
319 318 319 319 319 319 320 321 320 321 323 323 313 309 302 314 310 313 310 306 306 306 305 308 304 298 297 292 289 289 286 289 293 297 295 293 291 294 295 294 293 292 292 293 293
319 319 319 319 319 319 320 321 320 319 320 318 315 300 304 303 308 311 308 308 304 302 301 300 297 292 292 289 284 287 287 290 290 294 292 291 291 293 294 294 293 292 292 292 292
319 319 319 319 320 320 318 313 309 306 309 302 303 302 303 304 308 306 307 305 303 299 293 296 290 288 292 292 293 291 289 288 291 295 292 291 291 293 294 292 291 291 292 292 292
320 320 320 320 320 320 315 309 308 307 300 309 309 307 304 304 299 304 307 299 298 293 295 292 289 295 296 295 293 292 289 289 292 294 292 291 291 293 294 294 294 294 294 293 290
320 319 320 320 320 317 312 311 313 313 299 303 308 307 305 303 300 300 303 300 295 293 293 290 294 298 296 293 292 291 290 289 290 291 290 288 288 290 294 295 294 296 296 294 291
319 320 319 319 315 315 311 316 316 314 292 296 302 306 302 304 298 305 305 300 296 293 294 292 296 295 293 292 293 289 293 293 292 288 284 288 283 288 291 292 292 295 293 292 290
314 317 319 319 314 311 314 317 316 312 284 299 300 307 304 302 299 298 301 298 294 293 295 291 292 292 292 292 295 291 294 292 290 286 284 285 283 286 292 292 295 293 291 291 291
313 313 315 317 316 315 317 318 311 292 282 294 298 297 297 299 295 296 297 298 298 294 293 292 294 294 294 293 295 294 292 290 288 286 280 285 285 286 290 293 296 292 290 290 290
312 312 312 317 311 317 318 311 289 283 297 292 292 295 294 294 292 292 291 290 290 286 287 291 291 293 294 290 292 293 289 281 279 278 280 286 284 289 292 293 295 293 291 289 290
311 311 312 313 317 318 313 299 282 289 291 296 296 295 292 294 291 291 289 287 291 290 287 285 284 291 294 292 289 288 288 282 275 277 279 283 281 287 293 292 291 293 293 290 289
311 310 310 311 315 316 304 288 287 291 295 293 294 290 290 293 292 289 287 287 291 291 287 286 286 291 292 293 294 287 285 291 285 274 275 283 286 291 290 290 289 290 290 289 289
302 305 306 314 316 311 299 291 291 297 299 296 290 292 288 291 291 289 287 291 292 294 294 292 286 288 288 292 291 290 292 284 283 275 274 281 282 287 287 289 289 288 289 289 289
300 296 305 315 313 300 286 287 295 300 300 297 294 293 293 291 291 289 290 292 295 293 296 292 290 284 287 286 287 286 286 287 288 284 277 275 284 290 292 292 289 289 290 289 289
296 289 306 314 295 295 289 293 297 297 301 299 299 297 294 294 291 290 289 293 297 296 290 293 291 280 285 289 289 290 290 290 286 281 283 281 286 289 288 290 291 290 290 290 289
294 292 307 308 288 289 292 293 295 295 297 297 296 298 297 295 292 295 293 297 298 296 293 295 288 280 284 286 288 286 289 292 292 287 284 283 286 288 288 289 288 288 288 289 289
294 286 293 300 299 292 290 291 291 297 296 298 297 299 297 294 297 294 295 296 297 298 298 298 289 285 285 286 287 283 285 289 289 285 284 286 289 289 287 287 288 288 288 289 288
290 287 292 287 291 294 294 293 291 290 295 296 294 295 294 292 293 293 295 296 294 295 298 296 288 289 290 289 287 284 285 287 287 289 286 289 288 293 294 292 290 290 288 288 288
286 285 289 288 292 291 292 290 291 293 294 292 291 294 294 291 294 289 295 294 294 291 293 294 287 288 287 289 289 287 289 288 288 289 289 290 289 294 295 296 291 290 289 289 289
294 291 292 287 287 289 290 290 291 294 295 296 296 294 292 294 297 297 294 294 293 293 291 289 286 285 283 286 286 283 287 289 290 291 290 285 291 294 293 293 290 289 290 290 290

GFSSW_sfc_thetae_066.txt.gz
Theta_e
321 321 321 322 322 323 323 324 324 325 325 326 327 327 327 327 324 317 306 313 316 324 321 307 305 303 303 301 301 296 289 286 287 289 293 295 295 297 297 297 296 298 296 298 303
320 320 321 321 321 322 322 323 323 324 324 325 326 326 326 326 315 308 320 325 327 325 307 302 300 300 298 299 299 294 288 290 291 292 293 295 295 297 294 295 294 295 298 300 302
320 320 320 320 321 322 322 322 323 323 324 325 325 326 325 321 307 305 326 327 326 320 308 305 303 300 296 296 296 293 289 293 293 296 297 297 294 296 294 292 295 296 298 299 299
321 320 320 320 321 321 322 322 322 323 323 324 325 325 323 313 294 308 324 326 325 312 307 303 301 297 295 294 298 291 295 295 298 298 296 295 296 295 295 295 298 298 298 297 297
321 320 320 319 320 321 322 322 322 322 323 323 325 323 313 299 303 312 323 321 313 307 303 301 298 298 294 294 295 293 294 297 298 298 296 298 296 295 295 295 296 298 298 297 296
320 320 319 319 319 320 321 322 322 322 322 323 324 322 308 294 312 313 313 310 309 304 301 301 299 299 296 294 293 296 296 296 297 298 297 296 294 296 294 295 295 297 296 295 296
318 320 319 319 320 320 321 321 322 322 322 323 324 316 304 299 312 311 309 306 306 305 302 304 302 299 298 295 297 296 292 294 296 296 296 296 293 294 295 294 294 295 294 294 295
318 319 319 319 319 320 320 321 322 321 322 323 324 310 298 310 311 309 308 305 306 306 305 304 303 301 298 298 296 291 290 287 293 295 295 295 290 295 295 294 293 293 292 293 294
318 318 319 319 319 319 320 321 320 321 322 324 312 307 299 313 310 312 307 304 304 304 304 307 302 297 296 291 289 288 285 286 291 295 293 292 291 294 293 293 292 291 291 292 292
318 318 319 319 319 319 320 321 320 319 319 319 314 299 303 302 307 310 307 306 302 301 299 299 295 291 290 290 284 285 285 287 288 292 291 289 290 292 293 292 293 292 291 291 292
319 319 319 319 319 320 317 312 308 305 308 299 301 298 302 304 308 305 306 303 302 298 292 294 290 288 292 291 291 289 287 287 289 294 291 290 291 294 293 291 290 290 291 292 293
320 319 319 320 320 320 313 307 307 306 299 307 308 306 303 304 299 303 305 299 297 292 294 291 288 294 295 293 291 290 287 288 290 293 291 290 290 292 292 292 294 294 294 293 291
320 319 319 320 320 318 310 310 312 310 298 301 306 305 306 302 299 300 302 298 294 292 292 290 293 296 295 292 290 289 288 286 289 290 289 287 287 289 292 294 294 295 297 295 293
315 318 319 319 315 315 310 315 315 313 293 295 300 305 301 302 298 304 304 299 295 292 292 291 294 294 291 290 292 287 292 291 290 287 284 288 283 287 290 291 292 295 295 294 292
313 313 315 319 314 311 315 317 316 310 286 298 299 306 302 301 298 298 301 297 292 293 294 290 291 291 289 291 294 289 292 290 288 285 282 284 281 286 290 290 293 296 294 292 292
312 312 313 317 316 316 317 316 311 293 284 293 297 296 297 297 294 295 297 298 296 293 292 290 293 293 293 293 294 293 290 289 286 284 279 284 284 285 287 291 293 297 295 291 290
312 312 310 314 311 317 318 309 290 286 296 291 292 295 294 293 291 291 290 290 290 286 286 289 290 292 293 290 291 291 288 280 278 277 279 284 282 289 291 293 293 295 294 289 289
311 311 311 312 314 318 313 298 283 290 292 294 294 293 291 293 290 290 288 286 290 289 286 285 283 291 293 292 289 288 287 281 274 276 279 283 280 286 291 294 294 293 291 288 288
310 306 307 310 312 311 305 289 288 289 294 293 294 289 289 292 291 288 287 286 290 290 287 284 285 289 290 291 294 286 285 290 284 272 275 282 285 290 290 291 291 291 288 286 287
300 300 304 312 312 307 298 291 292 296 298 296 290 291 286 289 288 288 286 290 291 293 294 290 284 287 288 291 290 288 290 283 282 273 272 280 281 286 288 289 292 290 288 287 287
298 294 302 312 309 297 285 286 294 298 299 296 292 291 290 289 289 287 289 291 293 292 295 291 289 284 287 286 287 286 285 286 286 281 276 275 283 289 290 291 291 292 288 287 287
297 287 303 311 294 292 287 289 296 297 301 298 297 296 293 293 291 289 288 292 295 294 289 292 289 280 285 287 288 288 288 288 284 280 281 280 285 289 290 290 290 291 289 287 288
292 290 301 306 287 288 291 291 295 295 296 297 295 298 296 295 291 291 290 295 296 294 291 293 288 281 283 286 287 286 288 291 290 286 284 279 285 287 288 290 290 289 287 287 286
292 284 290 297 298 290 289 290 290 295 294 297 297 299 296 293 296 294 295 296 296 295 298 298 289 284 284 285 287 283 285 287 289 285 285 286 289 291 287 288 290 287 287 286 286
291 287 289 284 288 292 292 290 289 289 294 295 294 295 294 292 293 292 296 296 294 297 297 296 287 289 289 287 286 283 286 287 287 289 286 289 289 293 294 294 297 292 288 286 286
287 287 288 287 290 287 291 290 290 290 293 291 291 293 295 291 293 288 295 295 294 292 295 296 288 288 287 289 289 287 287 285 287 290 290 291 290 298 294 294 293 291 289 287 287
290 294 290 286 284 285 287 288 290 293 294 295 294 292 291 293 297 297 296 293 292 292 291 290 290 287 285 289 288 283 288 289 290 290 290 287 292 296 293 294 294 293 289 289 289

GFSSW_sfc_thetae_069.txt.gz
Theta_e
320 321 321 321 321 322 322 323 323 324 324 325 326 327 327 326 324 315 305 312 314 326 320 305 303 301 301 299 299 293 287 285 287 289 292 294 293 295 295 296 294 296 296 298 305
320 320 320 320 321 321 322 322 322 323 323 324 325 326 326 325 313 307 320 327 328 324 305 300 298 299 297 297 297 292 287 289 290 290 291 294 293 296 294 294 293 294 297 299 304
320 320 320 320 320 321 322 322 322 322 323 323 324 325 324 320 305 303 325 328 327 319 307 303 301 299 295 296 295 290 288 291 291 294 295 294 293 295 293 291 294 295 297 298 299
320 320 319 319 320 321 321 322 322 322 322 323 324 325 323 311 291 306 325 326 325 311 305 301 299 296 293 292 296 292 293 293 295 296 295 294 295 293 293 295 296 297 298 297 298
320 320 320 319 319 320 321 322 322 322 322 323 324 324 311 298 302 310 322 320 310 305 301 299 297 296 293 293 294 291 292 295 296 296 294 296 295 294 295 294 295 296 297 297 297
319 319 319 319 319 319 320 321 322 322 322 322 324 322 305 293 310 310 310 308 306 302 300 299 298 298 295 292 291 293 294 295 296 295 296 294 292 294 295 295 295 296 296 295 296
318 318 319 319 319 320 320 320 321 321 321 322 324 316 303 299 310 310 307 304 304 303 300 302 300 297 296 293 296 294 291 293 294 294 295 295 292 292 294 294 294 294 294 294 295
317 317 319 319 319 319 320 320 321 321 322 322 324 309 298 308 309 307 306 304 304 304 304 303 302 300 297 297 295 290 289 287 291 294 294 294 289 294 294 293 293 293 292 293 294
318 317 318 319 318 319 320 320 320 321 322 322 310 305 297 313 308 310 305 303 303 303 303 306 301 295 295 291 288 287 284 285 290 294 292 291 290 292 292 292 292 291 291 292 292
318 318 318 319 319 319 319 320 320 319 318 318 313 297 301 300 306 309 305 305 301 299 298 298 294 291 289 288 283 284 284 285 286 290 290 288 289 293 292 291 292 291 291 291 292
319 318 319 319 319 320 316 310 307 303 306 299 299 295 300 303 307 304 304 302 300 297 292 293 289 287 291 290 289 288 285 285 288 292 289 289 289 293 293 291 290 290 291 292 293
319 319 319 319 320 320 312 305 305 305 299 306 306 305 305 303 299 302 304 298 295 291 292 289 287 293 294 292 290 288 286 286 289 291 290 290 289 291 292 292 292 294 294 294 293
316 319 319 319 320 318 309 309 312 308 297 301 305 304 304 302 298 300 301 297 293 291 291 289 292 295 293 290 289 288 286 285 287 288 288 286 285 288 292 293 294 293 296 297 295
314 315 319 319 314 315 311 314 313 310 294 296 299 303 300 301 296 303 302 298 293 291 291 290 293 293 290 289 291 286 290 289 288 286 282 286 281 287 289 291 291 295 296 295 293
312 312 314 319 314 311 314 316 315 310 286 298 298 305 301 300 298 297 300 297 292 292 292 289 290 290 289 290 292 288 291 289 287 284 282 282 281 286 288 288 292 295 296 294 293
312 312 312 315 316 315 317 316 312 293 284 293 297 296 295 295 293 295 297 297 295 292 291 289 292 292 292 292 293 292 289 287 285 283 279 284 284 284 286 289 291 295 296 294 291
311 311 310 312 311 317 317 309 292 283 296 290 291 294 293 291 290 291 290 290 290 286 286 287 289 290 292 289 290 290 288 280 278 277 279 282 281 288 290 292 292 294 295 291 288
310 310 308 311 315 316 313 298 283 290 292 294 293 292 290 292 289 288 287 286 290 288 285 285 282 290 291 291 289 287 287 281 274 275 278 282 280 286 290 293 292 292 291 289 288
308 303 305 309 311 310 304 288 287 290 294 294 294 291 290 292 290 287 286 285 290 289 287 284 285 289 289 290 293 286 284 289 283 271 274 282 284 289 290 290 292 292 288 287 287
300 298 299 310 311 306 296 289 292 297 297 296 291 292 288 290 289 286 285 289 289 292 292 289 284 286 288 291 290 288 290 283 282 274 272 279 280 285 288 290 291 291 292 288 287
299 291 300 310 307 297 286 286 293 298 298 295 293 291 290 290 291 287 288 290 292 291 295 290 287 283 286 285 286 285 284 284 286 281 275 273 283 288 289 291 291 291 290 288 287
297 286 302 307 292 290 286 289 295 295 300 298 298 296 292 292 290 288 288 291 293 292 288 292 288 279 284 287 288 287 287 287 282 279 281 279 285 290 289 289 289 291 290 287 287
289 291 298 305 286 286 289 290 293 293 294 296 295 297 297 293 290 290 290 294 294 292 290 293 286 280 282 286 286 286 287 291 288 285 283 278 284 287 287 289 289 289 288 287 286
289 281 289 294 295 290 287 288 288 294 294 296 295 297 295 293 296 294 291 295 294 293 297 297 287 285 285 286 287 283 285 287 289 284 284 286 289 292 287 288 290 289 288 287 286
290 284 287 283 284 287 291 289 287 288 293 295 293 294 292 290 291 291 294 296 295 297 296 295 286 285 286 286 285 284 285 286 286 288 285 289 289 293 295 292 295 295 289 287 286
287 283 289 285 287 286 286 287 288 289 290 289 289 292 294 291 292 289 294 293 294 293 294 295 287 287 288 288 287 286 286 286 288 289 290 291 290 297 294 294 292 293 292 290 288
292 291 287 284 283 282 284 285 285 291 292 293 292 291 289 293 297 297 297 296 295 292 291 291 289 287 285 287 286 283 287 288 287 289 290 286 291 296 293 292 293 294 291 290 290

GFSSW_sfc_thetae_072.txt.gz
Theta_e
320 320 321 321 321 322 322 322 323 323 323 324 325 326 326 325 323 314 304 311 312 326 320 303 300 299 300 298 297 291 287 284 286 288 291 292 292 292 293 294 293 296 295 298 307
319 319 320 320 320 321 321 322 322 322 323 323 324 325 325 324 311 306 319 327 327 323 302 299 296 298 295 297 295 290 285 287 289 289 293 293 292 294 294 292 292 293 296 298 309
319 319 319 319 320 321 321 321 322 322 322 323 324 324 324 319 302 302 325 325 323 317 305 302 300 297 294 297 295 288 287 290 290 293 293 293 291 294 293 291 294 295 296 298 306
320 320 319 319 319 320 321 321 322 322 321 322 323 324 323 309 288 304 323 324 325 309 303 300 297 295 292 293 294 291 292 291 293 295 293 292 293 292 293 295 294 296 297 297 301
320 320 319 319 318 319 320 321 321 321 321 322 324 324 312 297 300 309 322 319 307 303 300 298 296 295 291 293 292 291 291 293 294 294 292 294 294 293 293 295 295 294 297 297 298
318 319 319 319 318 319 320 320 321 321 321 322 324 322 303 292 308 309 308 306 304 301 298 298 297 297 294 291 291 292 293 293 294 294 294 293 291 292 294 294 294 295 295 296 297
317 317 318 319 319 319 319 320 321 321 321 322 323 314 301 297 309 309 306 303 303 301 298 300 299 296 294 292 294 293 291 292 292 292 294 293 291 292 293 292 294 294 294 294 295
317 316 317 319 319 319 319 320 320 320 321 322 323 307 296 306 308 305 305 303 303 303 302 301 301 299 295 295 294 290 289 287 290 292 292 293 288 294 293 293 294 292 292 293 294
318 317 318 318 318 318 319 320 320 320 322 322 308 303 295 311 306 308 304 302 301 301 301 304 300 294 294 289 287 287 283 284 289 292 290 290 289 292 291 291 292 292 291 292 292
318 317 318 318 318 318 319 320 320 318 317 316 312 294 298 297 304 307 303 303 299 298 298 297 293 290 288 287 281 283 283 284 285 288 288 288 289 292 292 291 292 292 291 291 292
319 318 318 318 319 319 315 309 304 302 304 296 295 292 299 302 305 303 302 301 298 296 291 291 289 287 290 289 287 286 284 284 286 291 289 288 288 292 293 290 290 291 291 292 293
317 319 319 319 320 320 311 303 302 303 298 306 304 303 305 303 298 301 302 297 294 290 291 288 286 292 292 290 289 286 285 284 287 289 289 288 288 292 293 291 294 295 294 294 295
315 316 319 319 319 317 309 308 311 307 297 300 304 303 303 301 298 299 300 296 292 289 289 287 290 293 292 288 288 286 285 284 286 287 287 285 284 287 291 291 293 293 296 296 296
313 313 315 319 314 315 311 314 313 310 294 296 298 302 300 301 296 302 301 298 292 291 290 289 292 291 289 288 290 284 289 288 287 285 281 285 280 287 289 291 291 294 294 295 295
312 312 312 318 314 311 315 316 314 310 285 297 298 305 299 297 296 296 299 296 291 291 292 288 290 290 288 289 291 288 290 288 286 283 281 280 280 284 286 288 291 295 296 293 293
311 312 311 314 316 315 316 315 312 294 284 292 296 295 294 295 293 295 296 297 295 292 290 288 291 291 291 290 292 291 287 286 283 282 278 282 283 283 285 289 291 293 294 292 290
310 310 309 310 309 316 317 310 292 285 296 290 291 293 292 290 289 291 291 290 289 285 286 287 288 290 291 288 289 288 286 280 278 276 279 281 280 287 290 291 292 294 293 290 290
310 309 307 309 312 311 312 299 284 288 291 294 292 291 290 291 289 288 287 286 289 287 284 284 282 288 291 291 288 286 286 280 273 274 278 281 280 286 290 292 291 291 290 289 291
307 300 303 307 310 309 300 289 287 289 294 292 294 289 288 290 289 287 285 286 289 289 287 283 284 288 288 289 293 285 284 288 282 270 274 281 284 288 290 290 292 291 289 289 289
298 296 297 308 310 304 295 288 290 297 297 294 291 294 289 289 288 285 284 288 289 291 291 289 283 285 287 290 289 288 289 283 281 273 270 279 280 284 288 290 290 290 291 291 288
295 289 297 309 306 296 285 286 292 298 298 295 293 293 292 290 291 287 288 290 291 290 295 289 286 283 285 285 285 285 284 284 285 280 275 272 282 287 289 290 290 291 290 290 288
292 282 298 306 290 290 285 289 295 295 300 298 298 296 292 292 290 290 288 291 293 293 289 292 288 279 283 285 286 286 285 286 282 278 280 279 285 290 290 290 290 289 289 288 288
287 287 296 303 283 283 288 289 292 293 295 296 295 297 297 293 289 291 289 293 295 293 291 293 288 281 283 285 285 285 286 290 287 284 282 278 285 287 287 289 289 289 288 288 287
289 280 286 291 292 288 284 287 287 293 293 295 295 297 295 293 295 292 291 294 294 294 297 296 287 285 284 284 286 283 285 287 289 284 284 285 288 290 287 288 289 289 289 289 287
290 284 285 281 282 284 287 289 286 286 292 293 292 293 292 289 290 289 292 293 296 296 295 294 286 284 286 285 283 283 285 287 286 288 286 288 288 292 294 291 293 291 292 289 288
286 284 287 282 286 283 284 282 285 288 289 288 289 290 292 289 289 286 291 292 291 294 294 295 285 286 287 287 286 284 286 286 288 289 289 291 289 297 294 293 292 293 294 292 289
292 291 287 283 281 281 281 283 283 285 288 291 291 290 289 291 296 296 296 295 296 294 291 290 287 285 284 288 288 282 287 288 286 290 289 286 291 296 294 291 292 294 293 292 292

GFSSW_sfc_thetae_075.txt.gz
Theta_e
320 320 320 320 321 321 322 322 322 322 323 324 324 325 325 325 323 313 303 311 313 326 320 303 302 301 302 300 299 296 290 288 290 290 293 295 295 297 298 298 299 301 301 303 311
319 319 319 320 320 321 321 322 322 322 322 323 324 325 325 324 310 305 318 327 327 324 303 300 298 300 297 298 297 292 288 289 291 292 293 295 295 296 297 297 298 298 300 303 313
319 319 319 319 319 320 321 321 322 322 322 322 323 325 324 318 300 301 325 326 323 316 305 302 301 299 296 296 295 291 289 291 292 294 295 295 294 296 296 294 297 299 299 301 311
319 319 319 319 319 320 320 321 321 322 321 322 323 324 323 308 287 303 324 326 324 308 304 301 299 297 294 293 296 291 293 292 295 296 295 294 296 294 294 298 299 298 300 301 309
320 319 319 319 318 319 320 320 321 321 321 322 324 324 308 296 298 308 322 318 306 303 300 299 297 297 293 294 294 292 292 294 295 295 294 295 295 295 295 297 298 298 298 300 306
318 319 319 319 318 319 320 320 321 321 321 322 324 321 302 291 307 308 307 305 303 301 299 299 298 298 295 293 292 293 294 295 295 295 295 295 293 294 296 296 296 297 297 298 301
317 316 317 319 319 319 319 320 320 320 321 322 323 312 298 296 308 308 305 302 302 301 300 300 300 298 296 293 295 294 292 293 293 294 295 295 293 293 296 295 296 296 296 296 298
317 316 316 317 319 319 318 319 320 320 321 322 323 305 294 304 307 304 304 302 303 303 302 301 301 299 297 296 294 291 290 288 291 293 293 294 289 295 295 294 296 295 295 295 296
317 317 317 317 318 318 318 319 320 320 322 322 306 299 292 310 305 307 303 301 301 301 301 303 300 295 295 290 288 287 284 285 289 293 292 292 290 294 294 293 294 294 294 294 296
319 317 318 318 318 318 318 319 319 317 316 314 310 292 296 296 304 305 302 302 299 298 298 297 293 290 288 288 282 284 284 285 286 290 290 289 290 293 293 293 293 294 294 294 294
319 319 318 318 318 319 315 308 302 299 302 294 293 291 298 301 305 302 301 300 298 296 291 291 289 287 290 289 287 286 284 284 287 290 290 289 289 293 294 292 292 294 294 295 296
316 318 319 319 319 319 311 302 301 301 297 304 302 301 303 303 298 301 302 297 294 290 290 288 286 292 292 290 289 287 285 285 288 289 290 289 288 292 294 294 296 297 298 297 297
313 314 317 319 319 317 307 307 310 307 296 300 303 302 302 302 297 298 300 295 292 289 289 287 289 292 291 288 287 286 285 285 287 288 288 286 285 287 291 293 295 296 298 299 298
312 312 313 319 314 315 311 313 312 309 293 296 298 302 299 300 294 301 300 297 292 290 289 289 292 291 289 287 289 284 289 288 286 286 282 286 281 286 290 291 292 296 296 296 295
311 312 312 314 313 311 314 315 313 308 281 295 297 304 298 297 295 295 298 296 291 291 291 288 289 289 288 289 290 287 289 288 286 284 283 282 282 284 287 289 293 297 296 295 295
310 310 311 313 314 315 316 316 312 294 283 290 296 295 293 294 293 294 295 297 294 291 290 288 290 291 291 290 291 291 288 286 284 283 279 283 283 283 286 290 292 295 294 294 294
310 310 308 309 308 312 316 310 292 285 297 289 289 292 292 290 290 291 291 289 288 285 285 286 288 290 291 288 289 288 286 280 277 276 279 281 281 286 290 291 292 295 294 293 293
308 308 307 308 311 308 307 299 283 289 292 293 291 290 289 290 289 288 288 287 290 287 283 284 282 288 291 291 288 286 286 280 273 275 278 281 280 286 290 293 292 291 291 292 293
306 300 300 306 309 308 300 286 286 289 294 294 293 290 287 289 288 286 286 285 289 288 286 283 283 287 288 289 292 285 283 288 283 270 275 281 284 289 290 291 291 292 290 293 293
296 295 296 306 309 304 292 288 290 297 297 296 291 294 288 288 287 285 284 288 289 290 291 288 283 285 286 289 288 288 289 283 281 274 271 279 281 284 289 290 291 291 292 292 291
293 286 295 306 304 295 284 286 292 297 299 295 293 293 292 290 290 285 287 289 290 290 294 290 287 283 285 284 285 285 284 284 284 281 276 273 283 287 289 291 291 292 293 292 291
292 280 295 307 290 287 285 289 294 294 299 297 298 296 294 293 291 290 289 291 294 292 288 291 289 285 283 286 286 285 285 285 281 278 279 279 285 289 289 290 291 291 292 291 291
286 286 295 303 282 283 288 288 292 292 295 295 293 295 297 293 289 292 291 294 294 293 290 292 288 283 284 286 287 286 286 290 287 284 280 279 285 287 287 288 290 291 291 290 289
289 280 285 292 292 285 283 285 286 292 292 295 295 296 294 292 295 292 292 295 295 294 297 297 288 286 283 285 286 283 284 287 289 284 283 285 289 289 288 289 291 290 290 290 289
290 282 284 280 281 285 287 287 285 285 291 292 290 292 291 287 289 289 292 293 296 296 295 294 284 286 289 286 285 285 285 286 286 288 285 288 287 292 293 292 292 291 291 290 290
286 285 286 282 285 281 283 282 283 286 289 287 287 289 291 288 289 284 289 290 289 292 293 293 285 285 285 289 287 285 286 286 286 288 288 290 289 297 294 294 291 294 293 292 292
292 291 288 283 281 281 280 282 282 284 285 289 290 289 287 290 292 292 293 293 292 290 290 289 285 284 282 286 286 283 287 288 286 288 289 285 291 296 291 292 292 293 293 293 294

GFSSW_sfc_thetae_078.txt.gz
Theta_e
321 321 320 320 321 321 322 322 322 322 323 323 324 325 325 325 323 320 309 315 317 326 321 311 310 310 310 307 306 304 302 299 299 298 301 302 302 303 305 305 306 309 308 310 321
320 320 320 320 320 321 321 321 321 321 322 323 323 325 325 324 315 311 321 327 326 323 310 308 306 308 307 305 305 304 301 300 301 303 302 302 303 304 303 303 304 306 308 308 321
320 320 320 319 319 320 321 321 321 321 322 322 323 325 325 322 309 308 325 328 326 320 311 310 309 307 304 305 303 300 299 298 300 301 301 302 301 304 303 302 306 307 309 308 318
319 319 319 319 318 319 320 321 321 321 322 322 324 324 323 316 296 310 324 326 325 313 310 308 307 305 303 301 303 299 300 299 300 301 301 301 302 302 303 306 307 309 308 309 312
320 319 319 318 318 318 319 320 321 321 321 322 324 324 315 304 304 314 322 320 312 310 308 307 305 305 301 302 302 300 300 300 301 301 301 301 302 303 303 307 307 305 304 307 310
319 319 319 318 318 318 319 319 320 321 321 322 324 322 308 298 313 314 312 310 309 309 307 307 306 306 303 301 301 301 301 301 302 302 302 300 301 300 304 305 305 304 305 307 308
317 317 317 318 318 318 319 319 320 320 321 322 323 315 305 302 315 315 310 309 309 308 307 307 308 305 304 300 302 301 299 301 302 300 301 301 300 300 306 304 304 304 306 306 306
317 316 316 317 318 319 318 319 320 320 321 322 323 312 301 310 316 310 310 309 309 310 309 308 309 306 304 303 301 299 299 296 298 299 300 301 296 303 303 302 304 306 307 306 307
317 316 317 317 317 318 318 318 320 320 322 322 313 308 298 315 310 312 310 307 308 308 308 307 308 303 303 300 297 297 293 294 296 299 298 299 298 303 302 302 303 306 306 306 306
318 317 317 318 318 318 318 319 320 320 318 316 313 300 302 301 310 309 309 308 306 306 305 305 304 301 300 298 290 293 293 293 294 296 297 297 297 302 304 303 303 305 306 307 306
319 319 318 318 318 318 318 314 308 305 310 300 299 296 300 307 310 307 307 306 306 304 299 299 298 294 297 299 296 294 293 293 296 296 296 297 297 300 303 303 302 304 305 306 307
315 317 319 319 319 319 316 307 305 308 301 308 305 303 306 308 302 305 306 303 302 297 298 297 294 299 297 297 296 294 293 293 296 296 295 296 296 299 301 302 303 304 305 306 307
313 314 315 319 319 318 314 311 313 311 303 304 306 305 304 306 302 303 304 302 299 295 296 294 296 297 295 294 293 294 293 293 293 295 295 294 294 297 300 300 301 303 305 306 306
312 313 313 318 314 316 312 318 316 314 296 298 300 305 303 304 298 305 306 303 297 295 295 295 297 295 293 292 294 291 296 295 292 292 289 293 286 295 298 299 301 302 305 305 306
310 310 310 313 314 311 316 319 318 313 282 299 299 308 302 300 300 299 303 301 296 295 296 294 293 293 292 293 295 293 294 293 292 291 290 292 288 294 295 296 299 302 305 304 305
310 310 309 313 314 312 316 318 315 295 284 295 299 298 296 298 296 299 300 302 300 296 295 294 296 296 296 294 295 295 293 292 292 291 286 291 289 291 294 296 299 302 301 302 303
309 309 308 308 308 310 316 310 294 286 299 293 294 296 296 294 293 295 294 294 293 289 290 292 293 295 296 293 294 295 292 286 285 284 284 289 288 292 297 298 300 303 302 302 303
307 307 307 307 310 308 310 297 283 288 295 296 295 295 294 294 294 293 293 291 294 292 290 288 286 293 296 295 293 292 293 287 283 283 287 287 285 294 299 301 303 302 300 300 301
305 304 303 307 309 308 301 286 286 290 294 294 295 293 292 292 294 293 293 293 296 295 290 289 288 292 293 295 296 291 288 295 289 281 284 289 295 299 299 299 299 300 299 302 303
301 299 299 309 310 304 291 287 291 297 298 296 291 295 291 292 292 291 291 296 295 296 299 294 288 291 292 295 294 294 296 288 289 284 283 288 289 291 296 297 300 300 299 303 302
299 291 298 310 308 297 286 286 292 297 300 295 294 293 293 291 293 289 291 294 295 294 297 296 292 289 291 290 291 291 290 290 291 289 286 285 290 299 299 301 300 301 301 302 301
296 286 299 309 292 293 288 291 295 295 299 298 297 294 292 294 292 291 290 294 296 295 291 295 292 289 290 292 293 293 293 292 287 284 287 287 289 296 297 298 299 300 300 301 301
291 290 299 303 285 285 289 290 294 294 295 296 294 296 298 293 290 292 293 297 297 295 293 294 286 285 287 288 290 288 291 293 293 289 288 287 290 293 295 296 297 299 300 299 299
291 284 290 293 293 287 286 287 288 294 295 297 296 297 294 292 293 290 292 295 297 296 297 297 290 288 287 288 291 288 290 292 291 287 287 289 292 296 296 297 298 298 299 300 299
290 286 288 283 286 287 288 287 286 286 293 293 290 294 292 289 291 290 292 294 297 297 295 292 284 286 289 289 289 287 287 290 288 291 287 292 293 297 299 298 301 301 298 298 297
288 287 288 286 286 286 287 285 285 288 290 289 288 291 291 288 290 288 291 292 292 295 294 291 286 286 284 288 288 286 287 289 289 290 291 292 292 300 302 302 300 300 300 298 298
293 292 289 286 285 283 283 284 283 288 289 289 290 289 288 290 293 293 293 292 291 290 291 289 286 285 282 288 288 283 287 289 290 292 291 288 294 299 298 298 299 300 301 300 302

GFSSW_sfc_thetae_081.txt.gz
Theta_e
322 321 321 321 321 321 321 321 321 321 322 323 324 325 325 325 323 322 311 316 318 325 320 313 312 313 313 310 311 309 303 300 301 301 302 307 306 307 309 308 308 311 311 315 322
321 321 320 320 320 320 321 321 321 321 322 322 323 324 325 325 318 312 318 327 328 326 312 309 307 310 307 307 309 307 302 302 305 305 303 305 306 307 305 306 306 308 312 312 323
320 320 320 320 320 320 320 320 321 321 322 322 323 324 325 323 311 309 324 327 327 319 313 311 310 309 305 307 305 305 302 304 302 303 304 305 304 307 305 304 308 307 310 311 320
320 320 319 319 319 319 319 320 321 321 321 322 323 324 324 319 297 312 323 326 326 315 312 309 308 305 303 302 305 300 302 302 303 303 303 303 306 304 305 307 310 311 312 312 314
320 320 319 318 318 318 319 319 320 321 321 322 324 324 318 306 306 315 322 320 314 312 310 308 306 305 302 303 304 301 302 302 303 303 303 303 303 304 305 309 311 309 308 310 311
320 319 319 318 318 318 318 319 320 320 321 322 323 322 311 300 315 316 314 312 312 311 309 309 307 308 304 303 302 304 303 303 304 304 304 301 303 303 305 308 308 309 308 309 310
318 318 318 318 318 318 318 319 319 320 321 322 323 318 307 304 317 317 312 311 312 311 308 310 310 307 306 302 304 303 300 303 303 304 302 304 300 301 307 308 306 307 308 308 310
317 317 317 317 317 319 318 318 319 320 321 322 323 315 303 313 318 312 313 311 312 312 312 311 312 308 307 306 304 301 301 296 302 302 302 302 296 305 306 306 306 307 309 309 310
317 316 317 317 317 318 318 318 319 320 321 322 315 310 301 316 310 314 313 310 310 311 310 310 310 306 305 300 298 300 294 297 298 302 301 301 298 304 306 305 305 307 309 309 310
318 317 317 317 318 318 317 318 320 320 318 317 313 303 304 302 311 312 312 311 308 308 306 306 305 301 301 299 291 295 295 296 296 299 299 299 299 303 305 305 305 306 307 308 308
319 318 318 318 318 318 318 316 309 307 310 302 301 299 302 309 313 309 310 308 308 306 300 304 299 296 299 300 299 297 295 294 297 300 297 297 298 300 304 304 304 305 306 307 308
315 318 319 319 319 319 317 308 307 311 301 308 306 304 307 309 303 307 309 303 303 298 302 299 295 300 301 300 298 297 294 294 298 300 296 297 297 301 302 303 304 305 306 307 308
313 314 316 319 319 318 315 312 315 314 301 303 307 304 304 307 302 304 306 304 300 298 298 295 297 300 298 296 295 295 294 294 294 298 298 296 295 298 302 304 304 305 307 307 307
312 312 312 317 314 317 313 319 318 316 293 295 300 305 305 305 299 309 308 304 300 296 298 297 300 297 296 294 296 291 298 296 295 293 289 296 287 296 299 300 303 305 306 307 308
310 310 310 314 314 313 316 321 319 315 283 299 300 309 305 300 301 301 307 303 298 297 297 295 295 295 294 295 297 294 297 296 295 293 292 293 289 294 299 297 300 304 307 308 309
310 310 309 312 314 312 317 320 317 296 284 296 301 299 297 299 298 300 300 304 302 298 297 297 298 298 297 296 298 297 296 295 294 293 286 291 291 292 296 299 301 304 304 305 306
307 308 308 308 307 311 314 313 293 286 299 294 296 298 298 296 295 297 295 294 293 289 289 294 294 297 298 294 296 296 293 286 286 285 285 293 291 294 299 301 302 303 307 305 306
305 306 308 307 311 309 310 296 286 294 295 300 298 298 294 297 296 295 294 292 296 295 292 289 287 294 297 296 293 293 293 288 284 284 287 290 286 293 302 304 304 305 306 306 305
304 305 305 308 309 307 302 285 285 292 298 298 297 294 294 296 297 295 294 293 296 296 290 290 290 297 297 298 298 293 289 295 290 288 285 289 294 299 302 302 303 304 304 305 305
301 300 300 310 309 304 292 287 290 297 299 298 292 296 293 294 293 293 294 298 297 299 299 295 289 294 294 297 297 295 297 287 289 284 282 287 291 292 298 300 302 303 304 305 306
300 293 302 310 310 299 286 286 292 299 300 296 294 292 294 294 295 292 295 296 299 298 299 297 294 290 293 292 292 291 291 292 293 291 287 285 290 301 301 302 302 305 305 305 306
297 287 304 309 292 293 289 291 296 296 299 297 297 295 293 294 291 292 293 295 298 298 293 297 294 289 291 296 297 296 293 293 288 287 290 289 289 301 300 300 300 303 303 305 305
292 292 301 303 285 287 290 290 294 294 294 294 293 296 296 291 289 292 293 296 298 298 294 295 289 286 287 292 293 290 294 294 295 291 288 287 289 299 300 301 301 300 303 302 302
292 285 292 294 295 289 286 287 288 297 295 295 294 295 293 291 294 290 291 295 297 297 297 297 286 287 287 287 292 289 292 294 292 287 288 289 292 298 301 301 302 302 302 303 302
292 287 290 284 286 288 288 287 286 287 295 296 293 293 292 288 290 290 293 294 296 297 297 294 285 287 289 289 288 287 287 289 289 290 287 291 292 297 300 302 303 304 302 302 302
289 287 290 288 288 287 287 286 286 287 290 288 290 292 293 290 291 289 292 293 292 295 294 292 286 287 285 289 288 285 287 289 289 290 290 291 290 298 300 302 302 303 303 303 304
294 294 291 287 286 285 286 286 286 289 291 292 291 289 290 291 293 293 293 293 292 291 291 289 287 285 281 288 288 283 287 288 290 293 292 288 294 299 298 299 301 302 303 303 304

GFSSW_sfc_thetae_084.txt.gz
Theta_e
321 322 321 321 321 321 321 321 321 322 322 323 324 325 326 326 324 321 313 316 320 325 320 311 311 311 311 310 310 307 297 294 297 297 297 302 299 301 303 301 301 306 303 310 317
321 321 321 320 320 320 321 321 321 321 322 323 323 324 325 325 318 312 319 326 326 325 312 307 305 308 303 305 306 301 296 297 299 299 298 301 299 301 298 299 300 302 306 311 319
321 321 320 320 320 320 320 320 321 321 322 322 323 324 325 322 312 310 325 326 326 320 313 310 308 306 302 303 301 301 297 299 299 301 301 301 298 302 298 298 301 301 304 308 315
320 320 320 319 319 319 319 320 320 321 321 322 324 324 323 319 298 312 323 325 325 314 312 308 305 302 300 299 302 295 300 299 302 301 300 298 302 299 300 300 303 304 305 306 313
320 320 320 319 318 318 318 319 320 320 321 322 323 323 318 308 307 314 321 320 314 312 308 306 303 302 299 300 301 297 298 300 300 300 298 301 298 298 299 302 304 305 304 305 308
320 319 319 319 318 318 318 319 320 320 321 322 324 322 313 300 315 315 312 312 312 309 307 307 304 305 301 300 298 300 301 300 300 300 300 298 297 297 298 300 301 303 302 303 305
319 319 319 318 318 318 318 318 319 320 321 322 323 318 307 304 316 315 312 311 311 310 307 309 309 305 303 300 302 301 296 299 299 300 298 299 296 297 300 302 301 300 300 302 304
318 317 318 317 317 318 318 318 319 320 321 322 323 316 303 315 316 312 312 310 311 311 311 311 309 307 304 303 300 296 294 289 297 299 298 297 290 299 299 298 299 300 300 301 303
317 316 317 317 317 317 318 318 319 320 321 322 315 310 302 316 309 313 312 309 309 310 309 309 309 303 302 295 292 294 287 290 294 299 298 296 292 298 299 298 298 299 301 302 303
317 317 317 317 317 317 318 317 320 320 319 316 312 303 303 303 311 312 311 311 308 307 305 304 301 295 295 292 285 288 289 291 289 295 295 293 293 298 300 299 298 298 299 300 301
318 317 317 318 318 318 316 315 308 308 309 302 301 300 303 309 313 309 310 307 307 303 296 300 293 291 293 295 295 293 291 289 292 296 293 292 293 295 297 297 297 297 298 299 300
318 318 318 318 318 318 317 308 308 310 301 305 304 304 307 309 303 306 308 301 301 295 298 295 291 297 299 297 294 292 290 289 292 296 292 292 292 296 297 297 299 298 299 300 300
315 315 318 318 319 316 312 310 315 313 300 302 306 303 303 306 301 303 304 301 297 295 295 293 295 299 297 293 292 291 289 288 289 292 292 290 288 292 296 298 299 300 301 300 300
311 311 313 318 314 316 311 317 317 315 290 294 300 304 305 304 298 308 306 302 297 294 295 294 298 295 292 292 293 288 293 293 291 288 283 291 280 288 293 295 296 298 299 299 300
311 311 310 318 314 312 315 319 318 313 281 297 299 309 305 298 299 301 305 301 295 294 294 291 292 292 291 293 294 291 294 292 290 287 286 286 282 287 292 291 294 297 299 299 300
307 308 309 313 314 311 314 319 315 294 280 295 299 297 296 298 298 299 299 301 300 295 295 293 295 295 294 294 295 296 292 291 289 287 280 286 285 284 288 291 294 296 297 299 299
306 306 307 309 307 310 312 312 291 284 297 293 294 297 296 294 294 295 294 292 290 286 287 291 292 294 295 291 293 292 288 280 280 278 278 286 283 287 293 295 295 297 298 299 300
305 305 308 307 310 308 309 297 284 291 293 300 298 297 292 295 294 294 291 289 293 290 287 285 283 291 294 293 290 289 289 282 275 278 280 283 281 287 295 296 299 299 298 299 299
305 304 305 308 308 308 300 284 285 292 298 296 297 293 292 295 294 292 291 290 293 293 287 286 287 293 294 294 295 289 286 291 284 277 277 282 287 292 295 297 297 298 298 297 298
300 299 299 310 309 304 291 286 289 295 299 298 292 295 290 292 291 290 290 294 293 296 296 291 284 292 292 294 293 291 293 283 284 274 273 280 282 286 292 294 296 296 297 299 298
299 292 302 310 308 298 285 286 291 298 300 295 293 292 293 293 293 290 292 294 296 295 297 292 289 286 290 288 288 288 287 289 288 285 279 277 282 293 294 295 295 297 298 298 298
296 286 303 308 291 292 288 291 295 296 299 297 298 295 293 293 291 292 291 294 297 296 292 294 292 283 286 290 291 291 289 290 283 281 283 282 285 295 295 296 295 295 298 297 298
291 291 302 302 283 285 291 291 294 294 295 293 293 296 296 293 288 290 291 296 298 297 293 294 288 282 284 289 290 287 290 292 291 286 283 278 285 294 296 296 295 294 295 297 295
292 284 291 295 293 288 286 286 287 295 295 295 293 294 292 289 293 290 291 295 297 297 298 296 287 286 284 286 290 286 287 291 290 283 284 286 288 294 296 296 297 297 297 296 297
292 286 290 282 285 286 288 287 285 286 294 295 292 292 290 287 289 289 292 294 296 297 296 292 284 286 288 287 286 285 286 288 288 289 285 288 289 293 295 295 297 298 299 299 299
287 286 290 286 288 286 286 284 284 287 290 289 290 292 292 289 290 287 292 292 292 294 293 293 284 285 284 288 288 284 286 288 288 289 289 288 289 296 297 299 297 298 299 299 300
293 293 290 286 284 284 284 284 285 288 289 291 291 290 290 291 292 292 292 292 292 292 291 288 286 283 279 285 285 280 284 287 287 290 290 286 292 296 294 295 297 297 298 298 299

GFSSW_sfc_thetae_087.txt.gz
Theta_e
319 322 322 322 321 321 321 321 321 322 322 323 323 325 325 325 325 320 311 314 318 326 320 307 306 305 305 304 305 300 293 290 292 292 293 297 296 299 300 300 299 302 304 308 315
321 322 321 321 321 321 320 320 321 321 322 322 323 324 324 324 317 311 319 325 326 325 308 303 301 303 298 301 301 296 291 292 293 293 294 297 297 297 295 297 297 300 305 313 318
322 321 321 321 320 320 320 320 320 321 321 322 323 324 324 321 311 308 326 326 324 319 309 307 304 302 297 298 296 296 293 295 294 297 297 297 296 298 296 294 297 299 303 312 314
321 321 321 320 320 319 319 319 320 321 321 322 323 323 322 316 293 310 324 324 324 311 309 305 301 297 295 295 298 291 296 296 299 298 297 295 298 296 296 298 301 301 303 309 313
320 320 320 320 319 318 318 319 319 320 321 321 323 323 314 304 304 312 321 319 311 309 305 303 299 297 294 295 297 294 295 297 298 298 295 297 295 295 296 299 300 301 303 306 311
319 319 319 319 318 318 318 318 319 320 320 321 323 323 307 296 312 312 310 310 309 306 303 303 300 301 297 296 294 297 297 297 297 297 297 295 293 295 296 298 298 300 300 302 308
319 319 318 319 318 318 318 318 319 319 320 321 323 318 303 300 311 311 310 308 307 306 303 305 304 300 299 296 299 298 292 294 295 297 296 296 291 294 297 298 297 298 297 299 301
318 317 318 318 318 318 318 318 319 319 320 321 323 311 297 311 309 309 308 306 307 307 307 307 305 303 301 300 297 292 291 286 293 296 296 294 287 295 296 296 296 296 295 297 300
317 317 317 317 317 317 318 318 318 319 321 322 310 305 297 314 306 309 306 305 306 306 305 308 305 299 298 291 287 289 284 286 290 296 295 293 288 296 297 296 296 296 297 298 298
317 317 317 317 317 317 317 317 318 318 319 317 310 296 299 300 308 308 305 307 303 302 300 300 296 291 290 287 281 284 285 287 286 293 293 290 291 294 297 296 295 294 295 296 298
318 317 317 317 317 317 314 309 302 301 306 296 296 295 301 306 309 305 306 304 302 298 291 294 289 286 289 290 290 288 287 285 288 293 291 290 290 292 295 294 294 293 293 294 296
318 318 318 318 318 318 312 304 303 304 296 304 301 300 305 307 300 303 304 298 297 291 294 291 287 293 294 293 291 289 287 286 289 292 290 289 290 293 293 295 296 295 294 295 295
312 316 318 318 318 315 310 307 312 309 294 298 301 300 301 304 298 300 302 298 293 291 291 289 292 296 294 290 290 287 286 285 287 289 289 287 285 289 292 294 296 296 297 296 296
311 312 313 318 313 312 308 315 313 310 286 290 298 301 302 301 295 305 303 298 293 291 290 290 295 292 290 290 290 285 290 290 288 285 281 287 278 285 290 292 292 296 295 295 296
309 309 310 317 312 309 312 316 314 308 278 294 297 306 302 294 297 299 301 298 292 292 291 289 290 290 289 290 292 288 291 289 288 285 283 283 280 284 287 288 291 293 294 295 296
306 307 308 313 313 311 313 315 312 288 275 293 298 296 294 295 296 297 297 299 297 292 291 290 293 292 291 292 292 293 290 290 287 284 278 282 282 280 286 290 291 293 294 298 297
305 304 305 308 306 310 313 310 289 279 293 291 291 294 293 292 293 292 292 291 287 284 284 288 289 291 293 290 292 290 285 278 277 276 277 283 280 283 289 293 293 295 295 297 298
306 306 306 307 309 309 310 296 283 287 290 296 295 293 289 292 291 292 290 287 290 286 284 283 281 289 293 290 288 287 285 279 273 276 278 282 280 286 292 295 296 297 295 296 297
306 301 302 306 308 308 299 284 285 290 295 294 294 289 289 291 290 289 288 287 291 290 285 283 283 290 291 292 293 287 284 288 282 272 275 280 284 289 293 293 294 294 296 295 296
297 296 297 308 307 302 291 286 289 294 297 297 288 291 287 289 288 287 286 290 291 294 293 289 284 289 290 292 290 289 291 283 282 272 271 278 279 283 289 292 294 294 294 295 297
295 290 299 307 305 295 285 286 290 296 299 294 293 291 290 289 289 287 288 291 292 292 295 289 287 284 288 287 287 287 286 287 287 282 276 275 280 289 292 293 293 294 295 295 296
292 284 300 305 288 288 286 290 295 295 299 297 297 294 293 293 289 289 289 290 295 295 289 291 289 280 284 289 289 287 287 287 281 279 282 281 283 294 293 293 294 294 295 294 294
287 287 298 301 280 281 288 290 293 294 295 293 293 296 296 292 287 290 291 295 296 295 292 293 286 276 281 287 289 286 288 290 289 285 281 278 283 291 293 293 294 294 296 296 296
288 280 287 292 289 285 284 286 287 293 294 294 293 293 290 290 292 289 290 295 297 296 297 295 287 284 281 283 287 283 286 289 288 282 282 283 285 290 292 292 294 295 295 295 296
289 282 286 281 282 284 285 285 285 285 293 294 291 290 288 286 288 288 292 293 295 297 295 292 285 286 287 287 286 285 286 288 287 288 282 285 286 290 293 294 297 297 297 296 296
286 281 286 283 285 283 284 282 283 286 290 289 289 291 291 287 289 287 290 291 291 294 293 292 284 285 284 286 287 285 287 288 288 288 287 287 287 295 297 297 294 295 294 294 294
288 292 289 283 282 282 281 282 283 285 287 291 291 290 289 290 291 291 292 292 292 292 291 288 285 284 279 284 285 280 284 286 287 290 289 285 289 292 290 291 292 292 291 291 292

GFSSW_sfc_thetae_090.txt.gz
Theta_e
320 320 322 322 322 322 321 321 321 321 321 322 322 323 324 324 324 317 307 315 314 323 320 305 304 303 302 301 302 298 292 288 290 291 293 296 295 296 298 298 297 300 302 306 316
320 321 322 322 321 321 321 320 320 320 321 321 322 323 324 323 314 309 321 326 325 324 306 302 300 302 297 299 299 294 289 291 292 292 293 295 295 297 294 295 295 298 305 311 317
321 322 321 321 321 321 320 320 320 320 320 321 322 323 323 320 307 307 323 325 325 319 308 305 302 300 296 295 296 295 292 294 293 294 295 296 294 296 295 292 296 299 305 311 315
322 322 321 321 320 320 320 319 319 320 320 321 322 323 322 315 290 308 323 324 323 310 306 302 299 295 294 293 296 290 294 294 296 296 295 293 296 293 295 297 299 299 307 311 313
321 320 321 320 319 319 319 318 319 319 320 321 322 323 314 301 302 311 321 320 309 307 303 301 297 296 292 294 295 291 293 295 296 295 294 296 293 294 295 298 297 298 304 309 313
319 319 319 319 318 318 318 318 319 319 320 321 323 322 304 294 310 311 309 308 308 305 302 302 299 299 296 294 292 296 295 294 295 295 295 293 291 293 294 294 296 297 299 304 310
319 319 319 319 318 318 318 318 318 319 319 320 322 317 302 297 310 309 308 306 306 305 302 304 303 298 297 295 297 296 290 292 293 295 294 295 290 293 294 295 295 295 296 299 304
318 318 318 318 318 318 318 318 318 319 319 321 322 310 294 309 309 308 307 305 306 306 306 305 304 302 299 298 295 290 289 285 290 294 294 293 287 292 294 293 295 295 294 295 298
317 317 317 318 317 317 317 318 318 318 320 321 309 301 295 312 306 308 305 303 304 304 304 307 303 297 296 290 287 287 282 285 289 295 294 291 287 293 295 294 294 294 295 295 296
317 317 317 317 317 316 316 317 317 317 318 316 309 294 298 298 306 306 305 305 302 301 299 299 294 291 288 285 280 283 284 286 285 292 291 288 289 293 294 292 293 293 293 293 296
317 317 317 317 317 316 313 307 298 296 304 293 294 293 299 305 307 303 304 303 301 297 289 293 288 286 288 289 287 288 286 285 287 291 290 289 289 291 293 292 292 292 293 293 294
318 318 318 317 317 317 310 301 298 299 293 302 300 298 303 304 299 301 303 297 295 290 292 290 285 291 291 290 289 286 285 285 287 290 289 288 288 291 292 294 295 294 294 293 292
313 316 317 318 318 314 308 306 310 307 291 296 300 298 299 303 297 298 300 296 292 289 290 287 289 294 292 289 288 286 285 284 286 287 287 286 284 286 290 291 294 295 295 294 294
311 311 316 318 312 310 306 313 312 305 284 288 297 298 300 299 293 303 301 297 291 290 290 289 293 291 289 288 288 284 289 288 286 284 280 285 277 283 288 290 291 293 291 292 294
309 309 310 316 309 306 310 314 312 302 276 291 295 304 299 293 295 297 299 296 291 290 289 287 289 290 287 289 290 287 290 287 286 283 281 281 280 283 284 286 290 291 292 292 293
306 306 309 311 312 309 311 314 310 288 276 292 296 294 293 293 294 296 296 297 295 290 289 288 291 290 291 290 290 292 288 287 284 282 277 281 281 279 284 287 288 291 293 294 297
305 304 305 308 306 309 311 308 288 275 290 289 291 293 291 290 291 291 291 290 287 284 283 287 287 290 292 288 290 288 284 277 276 275 276 280 279 282 287 290 290 293 294 294 293
306 305 303 307 308 308 309 293 280 284 287 294 293 292 288 291 290 291 288 287 289 285 283 282 281 289 292 289 287 285 284 278 272 274 276 281 279 284 290 291 293 294 293 295 295
305 301 302 306 307 307 299 284 284 289 292 293 292 287 286 289 289 288 288 287 290 288 284 282 282 289 290 290 292 286 283 286 280 270 274 279 282 288 291 291 293 294 295 294 295
295 296 297 307 307 302 290 285 289 294 296 294 287 289 284 287 286 286 286 289 289 292 291 288 282 288 288 290 289 288 290 282 280 271 270 277 278 282 286 290 293 292 293 294 295
294 290 300 307 305 295 285 286 290 295 298 294 290 289 288 287 287 286 286 289 291 290 293 289 285 283 287 287 286 286 285 285 285 280 275 272 278 286 289 292 292 292 293 293 294
292 283 300 305 291 289 284 290 294 295 299 297 296 293 291 290 287 287 287 289 293 294 288 289 287 280 283 287 288 287 287 286 281 278 280 280 282 292 292 292 293 293 294 294 295
285 287 298 301 282 284 288 290 293 294 294 293 293 294 295 292 288 290 291 292 294 293 290 291 284 274 280 285 287 285 286 289 287 283 280 277 280 290 291 291 292 293 294 294 294
286 281 288 294 290 285 285 287 288 294 295 295 294 294 290 291 293 289 291 293 294 294 297 295 286 282 280 282 286 284 285 286 286 277 281 282 284 287 289 291 292 293 293 293 293
290 282 285 281 284 286 286 285 286 285 292 294 291 291 288 286 287 287 291 293 295 296 294 292 285 286 288 287 287 286 285 287 285 286 282 286 286 288 292 292 293 293 293 292 293
286 280 285 283 284 283 284 283 284 286 289 288 288 291 290 286 288 286 290 290 290 293 292 292 284 285 284 287 287 284 284 286 288 288 287 287 286 292 292 293 291 290 291 290 291
285 292 288 282 282 281 281 282 284 286 287 290 292 290 289 290 292 292 294 293 293 291 290 287 285 283 280 285 284 277 284 286 288 290 290 286 290 291 290 290 290 288 290 290 291

GFSSW_sfc_thetae_093.txt.gz
Theta_e
321 321 321 322 322 322 322 322 321 321 321 321 322 323 323 324 324 316 305 312 313 322 318 303 303 302 301 300 300 296 291 288 290 290 292 295 294 295 296 297 300 299 302 305 319
320 319 321 322 321 322 321 320 320 320 320 321 322 323 324 323 312 308 320 328 326 322 304 301 299 300 297 298 297 293 289 290 291 290 292 295 294 295 297 296 297 300 307 310 317
321 321 321 321 321 321 320 320 319 319 320 321 322 323 323 320 306 304 324 326 326 318 306 303 300 300 295 294 294 293 291 292 292 293 295 295 293 294 294 293 296 298 303 311 314
321 322 321 321 320 320 320 319 319 319 320 320 322 322 322 314 289 307 324 325 324 308 305 302 299 294 293 293 296 290 293 293 295 295 294 293 294 292 294 295 297 298 304 311 314
320 320 321 320 320 319 319 318 318 319 319 320 322 322 314 299 299 310 321 319 307 306 302 299 296 295 292 293 294 290 291 292 295 294 292 294 291 292 293 297 296 297 307 310 315
319 319 319 319 319 318 318 318 318 318 319 320 322 322 303 293 309 310 308 307 306 304 302 300 298 298 294 293 292 293 294 293 294 294 293 292 290 291 293 292 293 295 300 307 310
319 318 319 319 318 317 317 317 318 318 319 320 322 316 302 296 309 307 307 305 306 304 301 302 302 297 296 294 296 294 290 290 292 293 292 294 289 292 293 294 292 292 293 298 305
318 318 318 318 318 317 317 318 318 318 318 320 322 310 294 308 308 307 306 304 305 305 304 303 303 301 296 296 294 289 288 283 288 292 292 291 285 291 292 292 293 294 292 293 296
317 317 317 318 317 317 316 317 318 318 320 321 308 300 293 312 306 307 304 302 304 303 304 306 302 296 294 289 285 286 281 283 287 293 292 289 287 290 293 292 293 293 294 294 294
317 317 316 317 317 316 315 316 317 316 317 315 307 295 297 296 304 305 304 304 301 300 299 298 294 289 287 284 280 282 283 284 283 290 289 288 289 292 293 292 292 292 292 292 293
317 317 317 317 317 316 312 304 296 294 303 293 294 293 298 305 306 302 304 302 300 295 290 292 289 286 288 287 284 285 284 284 285 290 289 288 288 291 293 291 291 291 291 292 292
317 317 317 317 317 317 310 299 295 297 291 301 299 297 302 304 298 300 303 297 293 289 291 289 284 290 290 289 287 285 283 283 286 289 288 287 288 290 291 292 292 292 292 291 291
318 317 317 317 318 312 307 306 309 306 290 294 299 297 299 302 295 297 300 296 290 289 288 286 288 291 290 287 286 284 283 283 285 286 285 284 284 285 288 289 292 292 293 292 293
312 316 317 317 309 308 304 311 312 303 284 287 295 296 300 299 292 301 300 296 290 289 289 288 291 290 288 287 287 283 289 287 286 283 280 283 277 282 286 288 289 292 289 289 291
308 310 315 317 307 303 307 313 310 299 275 290 294 302 298 293 294 295 298 295 290 289 289 287 289 288 286 288 289 287 288 286 285 281 280 280 279 282 283 285 289 289 291 291 291
305 306 310 313 312 309 310 313 308 287 275 288 295 293 291 292 293 295 295 296 293 289 287 286 290 290 290 289 289 290 287 285 283 281 276 280 280 279 282 285 285 289 291 292 294
306 304 306 309 306 309 311 307 286 279 289 288 289 291 289 289 291 290 290 288 286 283 282 286 286 290 290 287 288 285 283 277 275 274 276 278 278 281 286 286 286 290 292 293 293
306 305 304 307 308 308 309 293 278 282 285 292 292 290 286 290 288 289 287 286 288 284 282 281 280 288 290 288 286 283 283 278 271 273 275 281 278 284 287 290 291 293 292 293 293
304 299 303 306 307 308 301 283 281 284 289 291 290 285 286 288 288 287 285 286 289 287 283 281 281 287 288 289 290 285 281 284 279 268 273 278 281 287 289 291 290 292 292 293 293
294 294 297 308 307 301 291 286 287 293 295 292 285 287 283 285 286 286 285 288 288 290 287 286 280 286 287 289 289 287 288 281 279 270 269 276 277 281 286 288 289 291 291 293 293
293 286 300 306 306 292 284 286 289 294 297 293 289 287 286 285 285 285 285 287 289 289 291 286 284 283 286 285 285 285 283 283 283 279 273 271 277 284 288 290 290 291 292 293 293
289 280 299 304 289 288 286 288 293 294 298 297 294 292 289 288 285 285 285 286 292 291 287 289 286 280 283 286 287 286 285 285 280 277 279 279 281 289 290 291 292 291 293 293 292
284 286 297 300 282 285 288 289 293 292 295 294 293 295 293 291 286 287 287 292 293 293 289 290 283 273 279 283 285 284 285 287 285 282 280 276 279 288 289 291 291 292 292 292 292
285 281 289 293 290 286 286 286 287 295 293 293 293 293 291 291 292 289 290 293 294 293 296 295 285 283 280 281 285 283 284 285 286 280 281 281 283 286 289 288 290 291 291 291 291
289 280 283 282 285 286 286 287 286 287 293 294 291 290 289 285 288 287 292 293 294 295 293 292 285 284 285 286 285 285 283 285 284 286 283 285 284 288 289 290 290 291 290 290 291
284 281 285 281 284 285 285 283 284 287 290 289 287 290 290 287 288 286 288 289 289 293 291 292 284 286 284 287 285 281 284 284 285 285 286 285 285 291 292 291 288 290 290 289 290
284 290 288 281 280 282 282 283 284 287 288 290 292 290 287 290 292 291 293 293 292 289 287 286 285 284 281 285 284 280 283 283 284 287 287 284 288 290 289 290 288 288 289 289 289

GFSSW_sfc_thetae_096.txt.gz
Theta_e
322 322 321 322 323 323 323 322 322 322 322 322 322 323 323 324 323 314 305 311 313 322 318 303 302 300 301 299 299 296 290 288 289 289 291 292 293 293 295 296 298 297 298 304 319
321 321 320 322 322 322 322 322 321 321 321 321 321 322 323 323 311 307 318 326 324 322 303 301 298 298 296 296 296 293 288 290 291 290 292 294 293 295 296 294 297 299 304 310 320
321 320 320 321 322 322 321 320 320 319 320 320 321 322 322 319 305 302 323 324 325 317 303 301 300 298 293 294 293 291 290 291 291 292 294 295 292 293 293 293 296 297 300 310 315
320 320 321 322 321 321 320 320 319 319 319 319 320 322 322 313 288 306 322 325 322 307 304 300 298 294 293 292 295 292 291 292 294 294 292 293 294 292 293 296 295 297 301 310 314
318 320 320 321 320 320 320 319 318 318 318 320 321 322 314 300 299 309 321 318 306 305 301 298 295 294 292 292 293 288 291 292 293 292 291 293 290 291 292 295 294 296 304 309 314
319 319 319 320 320 319 318 318 318 318 318 319 321 322 303 292 308 310 308 306 305 303 300 298 297 296 294 292 291 292 292 291 292 292 292 290 290 291 290 292 292 294 299 306 310
319 318 319 319 318 318 318 317 317 317 318 319 321 316 301 296 308 307 306 305 305 302 300 301 300 296 296 293 294 293 289 289 290 292 291 293 288 291 291 291 291 292 292 296 306
318 318 318 318 318 318 317 317 317 317 317 319 321 309 294 307 307 305 305 303 304 304 303 302 302 299 295 295 293 289 286 283 286 291 291 289 284 288 292 291 292 292 291 292 294
317 317 318 318 318 317 317 316 317 317 319 320 308 299 292 311 305 306 303 302 303 303 303 304 299 295 294 289 286 286 280 282 286 291 290 289 286 289 291 291 293 290 292 293 293
317 317 317 318 317 316 315 316 316 316 315 313 306 296 297 296 304 304 303 304 300 300 299 297 293 290 286 285 281 282 283 282 282 287 289 288 288 291 292 290 291 291 291 291 292
317 317 317 317 317 316 311 301 295 294 301 293 294 294 297 304 306 301 303 301 298 295 290 292 288 285 288 287 284 285 283 282 284 288 288 287 287 290 292 290 290 290 291 291 292
317 317 317 317 317 316 308 294 294 297 291 299 299 297 302 303 297 299 302 295 292 288 290 289 285 289 289 288 287 285 283 283 284 288 288 285 287 289 290 291 291 291 291 290 290
317 317 317 317 317 310 305 303 309 304 289 293 298 296 299 301 295 298 300 295 290 289 288 286 287 290 289 285 285 282 282 282 282 284 284 282 283 284 286 288 289 290 290 290 292
317 316 316 317 309 308 303 309 311 301 284 287 294 295 300 299 293 300 299 296 290 288 288 287 289 288 287 285 285 281 287 286 285 283 279 282 276 281 284 287 288 289 288 289 289
310 315 317 315 306 303 306 312 310 296 275 289 292 300 298 293 294 295 298 295 289 289 289 286 288 287 285 287 288 285 287 286 283 281 280 279 278 281 282 285 287 287 290 290 292
307 309 315 312 310 308 310 312 305 285 273 286 294 292 290 291 292 294 295 296 293 289 287 286 289 289 288 287 287 289 285 284 281 279 276 279 279 279 281 283 287 286 290 291 292
306 308 308 309 307 308 310 304 285 277 287 287 288 290 288 288 290 290 290 288 286 282 282 285 286 289 289 286 288 284 283 277 275 274 275 277 277 280 284 285 285 289 292 292 291
306 304 306 307 308 309 307 292 276 282 284 291 290 288 286 289 288 288 287 286 287 284 282 281 280 288 290 288 286 284 283 278 271 272 275 280 277 282 286 289 290 291 291 292 292
304 300 303 306 308 308 298 283 280 282 288 289 289 284 284 287 287 287 285 286 288 286 282 281 281 286 287 288 290 284 281 283 278 267 273 277 281 286 287 289 290 290 290 291 291
294 293 299 307 308 302 291 284 285 291 294 290 285 286 282 285 285 285 285 288 287 288 286 286 280 285 286 288 288 285 287 280 278 269 268 275 277 280 284 287 289 289 290 291 291
292 288 301 307 304 293 285 283 289 293 295 291 287 285 284 285 285 285 285 287 288 288 289 285 283 282 286 284 283 283 282 282 282 278 273 270 276 282 284 288 289 289 290 291 291
288 282 300 304 288 286 285 288 293 292 296 295 292 290 286 286 284 285 285 285 291 289 286 287 284 279 282 285 286 284 284 284 279 276 277 277 280 287 289 290 290 291 292 291 290
283 288 298 300 283 285 288 289 292 291 293 295 293 293 293 288 284 286 285 291 292 290 287 288 282 273 279 282 284 283 284 285 283 281 278 275 281 287 288 289 289 290 290 291 291
284 282 288 293 290 286 285 286 286 293 291 292 290 293 292 290 292 288 288 292 294 292 296 294 284 283 280 280 285 283 283 285 285 278 282 279 281 285 288 289 289 289 290 290 290
286 281 283 282 286 285 286 286 285 285 292 292 289 288 289 286 289 289 292 292 295 295 293 291 282 282 282 283 282 282 283 284 284 286 281 285 282 287 290 290 290 290 289 289 289
279 281 284 281 284 284 284 283 285 286 288 288 288 289 289 286 288 286 290 291 290 292 291 292 281 285 282 286 283 280 283 283 285 286 283 283 283 289 290 290 289 289 289 288 288
284 286 287 281 280 283 283 282 284 288 289 291 291 290 289 290 292 292 294 293 292 289 287 287 285 283 281 285 284 281 284 284 284 285 286 283 288 290 287 289 288 288 288 287 288

GFSSW_sfc_thetae_099.txt.gz
Theta_e
323 323 323 322 323 323 324 324 324 324 324 325 324 323 323 324 323 315 305 310 313 323 317 304 304 303 305 301 301 300 293 290 291 291 294 295 296 297 299 299 299 303 303 309 324
323 323 321 322 323 323 323 323 322 322 321 321 322 322 323 323 311 306 317 325 325 323 303 301 300 301 298 299 299 296 292 292 294 293 294 295 296 298 298 298 299 301 306 317 325
322 323 320 321 322 323 322 322 321 321 320 321 321 322 322 319 306 303 325 326 322 317 304 302 301 299 297 298 296 295 293 294 293 294 296 296 295 297 296 295 299 300 302 315 322
322 322 320 322 322 322 322 321 320 320 320 320 321 322 322 312 289 306 324 324 320 308 304 300 299 296 295 294 296 293 293 293 296 296 295 295 296 295 295 298 299 299 303 314 320
320 319 319 321 322 321 321 320 319 319 319 320 321 321 313 302 301 309 322 319 307 305 301 299 297 295 293 293 294 292 293 293 294 294 293 295 293 294 294 297 297 299 306 311 319
318 318 319 320 321 320 320 319 319 319 318 319 321 321 304 293 307 310 308 306 305 303 299 298 297 297 294 293 293 292 293 292 294 294 294 293 291 293 293 294 294 296 300 307 314
318 318 319 320 320 320 319 319 318 318 318 318 321 314 301 297 307 307 306 305 305 303 300 301 299 297 296 293 295 294 291 291 292 293 293 294 290 292 293 293 294 294 295 299 308
317 318 318 319 319 319 318 318 318 317 318 319 321 308 294 307 306 305 305 303 304 304 303 303 302 299 296 296 292 290 288 286 289 292 292 291 286 290 293 291 293 294 294 294 295
317 317 318 318 318 318 318 318 317 316 318 320 306 297 292 311 304 305 303 302 303 303 302 303 300 295 295 289 287 287 283 284 286 292 292 290 287 291 293 293 293 294 294 294 295
317 317 318 318 318 318 317 316 317 315 314 312 306 295 297 297 304 303 303 303 301 300 299 297 293 290 287 286 282 283 283 283 282 288 289 288 289 292 293 292 293 293 293 293 294
317 317 317 317 317 316 313 302 294 293 300 293 294 294 296 303 304 301 303 300 298 296 291 292 289 287 288 288 285 286 284 282 285 289 289 289 288 291 293 291 292 293 294 294 294
316 317 317 317 317 317 302 294 293 296 291 298 297 297 302 303 297 299 302 295 293 288 290 289 285 290 290 288 287 285 285 284 286 288 288 286 288 290 291 292 293 293 292 292 292
316 316 317 317 317 309 301 299 307 301 289 293 298 296 299 300 295 297 299 294 290 288 287 286 287 290 289 285 286 284 284 283 284 285 285 284 285 285 288 288 290 291 291 291 291
316 316 316 317 308 306 301 308 310 298 283 287 293 295 299 299 293 299 298 295 289 287 288 287 288 287 286 284 285 282 287 286 285 284 280 283 278 283 285 287 288 290 291 291 292
316 316 316 314 306 302 303 310 308 294 275 289 291 299 297 293 294 294 298 295 289 288 288 285 287 286 285 286 287 285 287 286 284 282 281 281 279 282 283 286 287 289 291 293 293
312 316 316 311 309 307 310 310 302 283 273 285 292 291 290 290 292 294 295 295 293 289 287 286 289 289 288 287 288 288 285 284 282 280 277 279 280 279 282 284 285 288 292 293 293
308 314 311 311 305 309 310 301 284 272 286 285 287 289 288 287 289 289 290 288 286 282 282 284 286 288 289 286 288 285 283 278 277 275 276 278 278 281 284 285 286 289 294 293 292
307 307 307 307 308 309 305 292 275 282 283 290 289 288 285 288 287 287 287 286 287 284 282 281 279 287 290 287 286 284 284 279 273 273 275 279 277 282 287 290 291 292 293 292 292
303 301 303 306 308 308 297 283 281 282 288 288 287 283 283 287 287 286 285 285 288 286 283 280 281 287 287 288 290 284 282 283 277 267 273 278 281 285 287 289 290 291 291 291 291
295 297 300 307 307 305 293 283 285 289 292 289 284 285 281 284 285 285 284 287 287 288 287 286 280 286 287 288 287 285 286 281 278 270 269 276 277 280 285 288 290 290 291 291 291
292 290 301 307 305 296 285 283 288 293 295 290 286 285 283 284 284 284 285 286 288 288 288 286 284 283 286 285 283 283 282 281 282 279 273 270 277 282 284 288 290 290 291 290 290
288 285 300 305 288 285 285 289 293 291 297 294 291 289 285 285 284 284 284 285 289 289 285 287 284 280 283 285 286 284 283 283 279 276 277 277 279 287 286 289 291 291 290 290 291
284 289 298 301 284 285 287 290 292 291 293 294 291 292 291 286 284 285 285 290 291 288 287 288 282 274 279 282 284 282 283 284 282 281 277 276 281 287 288 289 290 290 290 291 290
284 280 289 293 290 287 286 286 287 293 291 292 291 293 291 289 290 286 286 292 293 292 296 293 283 282 279 280 284 282 283 284 284 278 282 279 282 285 288 289 290 290 290 289 289
283 280 283 282 285 285 287 287 286 286 292 292 289 290 290 287 289 287 290 292 294 295 292 290 280 281 282 284 283 282 283 283 284 286 281 285 282 285 290 290 290 290 289 289 289
279 280 284 283 284 284 286 283 284 287 289 288 287 289 289 288 289 288 291 290 289 292 291 291 280 283 278 284 284 279 284 284 286 287 286 283 283 286 293 290 289 289 289 288 288
285 285 283 281 283 282 281 282 284 288 289 291 291 289 287 289 291 292 294 294 292 291 288 288 283 280 277 282 283 280 284 283 284 285 286 283 288 289 287 290 289 288 288 288 288

GFSSW_sfc_thetae_102.txt.gz
Theta_e
324 324 325 324 324 324 325 326 327 327 328 327 327 325 324 324 322 316 305 312 315 324 317 307 309 309 310 307 307 307 303 299 299 299 300 303 304 304 306 306 307 311 308 314 330
323 324 324 324 324 324 324 325 326 326 326 327 325 324 324 322 311 306 317 324 326 325 307 306 304 306 305 305 306 306 302 301 303 303 303 304 305 305 305 304 305 307 310 323 331
322 323 323 324 323 324 325 325 324 324 324 324 324 323 323 319 304 304 322 327 327 322 309 308 308 306 303 304 303 302 302 302 301 301 303 303 302 305 304 303 307 307 309 322 327
322 322 322 322 324 323 323 324 323 323 323 323 323 322 321 314 292 308 327 328 325 312 308 305 305 302 302 301 302 300 299 301 301 302 301 302 304 303 304 306 305 308 310 321 326
320 321 320 322 323 323 323 322 321 321 321 322 322 322 314 303 303 312 323 322 312 307 305 305 303 302 299 301 300 300 299 299 301 300 301 301 301 302 302 307 305 304 309 315 323
319 319 318 320 322 323 322 321 320 320 320 321 322 321 309 296 310 314 313 310 308 307 305 305 305 304 300 298 299 299 299 299 299 300 300 299 298 299 302 302 302 303 306 311 318
319 318 318 320 321 322 321 320 320 320 320 320 322 316 304 300 311 312 310 309 309 307 304 306 305 303 303 299 300 299 297 298 298 299 299 300 298 298 302 301 301 301 305 307 313
318 317 317 319 320 320 320 320 320 320 320 321 322 314 299 310 311 307 308 307 308 308 307 308 308 303 302 301 299 297 298 294 296 298 298 298 295 297 300 300 301 302 303 304 306
317 317 318 318 319 319 319 319 319 318 319 321 311 305 296 313 306 308 308 306 307 307 306 305 306 301 300 297 295 294 292 292 292 297 298 297 295 297 299 300 300 302 303 303 304
316 317 318 318 318 318 319 318 317 318 316 314 307 301 301 301 307 306 307 307 305 306 304 303 300 298 297 295 289 291 289 290 291 295 296 295 296 300 301 300 302 303 303 303 304
317 317 317 318 318 318 316 312 303 301 305 298 299 297 299 306 308 304 306 304 303 303 297 297 295 292 295 296 293 294 292 291 291 294 295 295 295 298 301 300 301 303 304 305 305
317 317 317 318 318 318 310 302 301 303 295 301 300 301 305 306 300 302 305 301 300 294 296 295 292 295 292 293 293 292 291 290 292 294 294 293 294 298 300 301 302 303 303 304 303
316 317 317 317 317 313 306 301 310 306 295 296 300 299 302 303 298 300 303 298 296 293 294 293 292 294 293 291 291 291 291 290 290 291 292 291 293 294 297 295 297 298 300 299 299
316 316 316 317 310 309 303 311 312 304 290 290 294 298 302 302 296 302 303 299 294 292 293 292 292 292 292 290 292 288 292 291 290 291 287 290 286 293 295 295 295 297 298 300 301
316 316 316 315 309 304 306 313 313 301 279 293 293 302 300 297 298 298 303 299 293 292 294 291 290 290 290 292 292 290 292 292 290 291 290 289 287 292 290 293 296 298 300 301 301
315 315 316 311 311 309 312 312 306 288 279 288 294 293 294 294 295 297 298 299 297 294 292 292 294 293 292 291 292 292 292 291 290 289 284 289 288 290 291 293 294 296 300 300 300
315 315 313 313 305 312 314 307 288 283 291 288 289 292 292 290 292 294 293 292 291 287 288 290 291 293 293 291 292 291 291 284 283 283 282 284 284 291 293 292 295 295 300 299 300
309 314 309 309 311 313 309 295 283 286 287 293 292 291 289 291 290 291 291 289 292 290 287 285 283 290 293 292 290 290 291 285 280 279 283 283 283 290 293 296 296 297 299 299 300
305 303 305 307 309 311 299 284 286 287 292 291 290 287 287 289 290 290 291 291 293 291 288 285 285 291 291 292 294 289 287 290 282 276 283 286 289 293 293 293 296 297 298 298 298
299 300 301 308 308 308 293 287 289 291 294 293 287 289 285 287 287 288 288 292 291 292 292 289 283 289 290 293 292 291 292 286 286 281 280 283 284 288 290 292 296 296 297 297 297
295 294 301 307 307 299 286 288 290 296 297 292 289 287 288 287 288 287 288 290 293 291 292 290 289 286 289 288 288 287 287 287 288 287 284 281 286 293 294 295 296 297 298 297 298
292 289 300 304 289 286 287 291 294 294 298 296 294 291 288 289 287 288 287 290 293 292 288 291 289 284 287 289 290 289 289 289 285 282 283 283 286 292 292 297 299 297 296 297 298
290 292 300 302 284 285 287 291 293 294 295 295 294 294 293 289 286 289 289 294 295 292 291 291 289 283 284 287 290 288 288 290 289 288 284 284 286 292 293 295 297 296 296 296 296
290 285 290 295 291 288 287 288 288 294 293 294 294 295 293 290 293 287 288 293 296 294 296 295 288 287 283 285 289 286 287 288 288 286 286 286 289 291 292 294 295 296 296 296 295
287 284 287 284 285 289 289 288 287 287 293 294 291 292 293 288 290 289 291 293 295 296 295 292 286 287 288 288 289 289 288 287 287 289 286 289 288 292 295 295 297 297 296 294 293
286 285 287 285 288 287 288 287 287 288 290 288 289 291 292 291 291 288 291 291 291 294 293 293 286 286 283 287 287 286 287 288 289 289 289 290 289 293 297 299 296 296 294 293 293
289 290 288 285 286 285 286 286 288 290 290 292 292 290 289 291 293 294 294 295 295 293 291 290 286 285 284 285 286 283 286 288 289 291 290 287 291 294 292 295 295 295 295 294 293

GFSSW_sfc_thetae_105.txt.gz
Theta_e
324 324 324 325 326 326 328 329 328 325 325 326 326 326 326 326 324 317 304 312 315 326 320 311 310 311 312 310 310 311 303 301 302 302 302 307 305 308 309 307 309 312 310 317 331
323 323 324 324 325 325 327 328 328 328 327 327 327 326 325 325 315 308 316 323 325 327 309 309 305 308 306 307 308 306 303 304 307 306 304 306 306 306 305 306 306 309 315 324 331
322 323 324 324 324 325 326 326 326 327 327 326 326 325 324 322 306 304 327 327 327 325 311 310 309 308 305 307 306 306 303 306 305 306 307 306 306 308 305 304 307 307 311 323 328
322 322 323 323 323 324 324 325 325 325 325 325 324 323 322 315 294 308 325 327 328 319 310 306 306 304 302 301 305 302 303 305 304 304 305 305 307 305 306 306 309 311 313 321 325
321 321 322 322 323 324 325 325 324 323 323 323 323 322 315 303 302 314 326 326 319 312 306 305 303 304 300 302 302 302 301 302 304 303 305 305 304 305 305 309 308 309 311 317 322
319 320 320 320 322 324 324 323 323 322 322 322 323 322 312 297 311 316 317 314 310 307 306 307 304 307 302 302 301 303 302 301 301 302 302 303 303 302 306 307 307 307 309 313 318
319 319 319 320 321 322 323 322 321 321 322 321 323 317 304 302 312 316 314 311 311 309 305 307 308 305 304 300 302 302 298 300 300 301 300 302 299 300 306 304 303 304 306 309 312
318 318 318 319 320 321 321 321 321 321 321 323 323 313 299 312 314 310 312 309 310 310 308 309 308 306 304 304 300 299 300 295 299 300 301 300 297 304 304 303 303 304 305 306 309
317 317 317 319 319 320 320 320 320 320 320 322 312 308 297 312 306 310 311 307 308 309 309 307 308 303 302 298 295 296 291 294 294 300 299 299 298 302 302 302 302 304 305 305 306
317 316 317 318 319 319 319 319 319 318 318 315 309 302 302 301 308 308 309 310 306 306 305 304 303 299 298 296 289 291 293 293 294 297 298 297 297 300 302 302 303 304 305 305 305
316 317 317 318 319 319 317 314 306 304 307 299 300 299 300 306 309 306 308 305 306 304 296 302 296 292 295 298 297 297 294 293 296 296 296 296 297 299 302 302 302 304 305 306 306
316 317 317 318 319 319 314 303 303 305 297 302 302 302 306 307 300 303 307 301 300 296 299 296 292 298 298 296 295 296 294 293 294 296 296 296 296 299 301 301 303 303 305 306 307
316 317 317 317 318 316 310 306 310 309 296 297 301 301 303 305 299 300 304 302 298 295 296 293 295 297 296 293 293 294 293 293 293 294 295 294 293 296 300 302 303 303 305 306 305
316 316 316 317 311 311 306 309 313 309 291 292 295 299 303 303 297 303 305 301 297 294 296 294 294 294 294 293 293 289 294 294 292 292 288 293 287 296 298 298 298 300 301 302 303
316 316 316 315 309 306 307 312 315 304 280 294 295 303 303 297 298 299 303 300 295 294 295 291 291 292 292 293 295 292 295 293 293 292 291 290 288 293 294 294 297 299 302 303 304
315 315 315 312 312 310 314 314 308 289 281 290 295 294 295 296 296 299 299 301 300 294 295 293 295 295 295 294 296 295 293 293 293 291 284 289 289 290 293 294 296 299 302 303 303
315 315 314 314 306 314 316 308 288 284 292 289 290 294 293 291 293 295 294 293 291 288 288 292 291 294 295 291 294 294 291 285 283 284 283 287 286 291 296 295 298 298 302 303 303
315 314 312 312 312 315 312 296 283 288 289 294 293 293 290 292 292 292 292 290 295 293 290 286 284 292 295 293 291 292 292 287 281 281 285 285 283 290 296 298 297 297 302 303 303
313 308 309 308 312 314 302 285 287 290 294 291 292 288 289 291 291 291 291 291 293 293 289 287 286 292 293 294 295 290 287 292 285 281 285 288 291 295 295 295 297 298 300 302 302
301 301 302 309 311 308 296 289 291 294 296 294 287 290 286 288 289 290 290 294 293 294 294 291 284 290 291 294 293 292 294 286 287 283 281 285 287 289 292 293 296 297 299 300 301
299 292 301 308 311 299 287 290 293 296 297 293 291 289 290 288 289 288 289 293 295 293 294 293 291 286 290 289 289 289 288 289 290 289 286 283 286 294 295 297 296 299 300 300 300
296 286 300 306 292 290 289 292 295 295 299 296 295 293 291 291 288 288 289 291 295 293 289 293 291 285 287 290 292 292 291 290 286 284 286 285 287 294 295 298 300 300 300 300 300
292 291 300 300 284 286 289 292 294 294 296 296 294 295 294 291 287 290 291 295 293 293 292 292 290 284 284 288 291 288 290 292 292 290 286 285 287 295 295 296 300 299 298 298 299
293 286 289 289 291 289 288 289 290 295 296 296 296 297 292 290 293 290 291 294 297 294 295 295 292 288 284 286 290 286 289 290 290 287 286 287 289 292 294 294 298 299 298 299 298
290 287 289 285 286 289 290 290 288 289 294 296 294 295 293 289 290 289 292 293 296 296 295 294 287 289 290 289 291 290 289 289 287 289 286 289 289 293 296 296 298 300 299 298 297
288 287 289 287 290 288 288 286 288 288 291 291 291 294 295 291 292 290 292 293 292 295 293 294 285 288 284 289 289 287 290 290 289 290 290 290 290 297 298 300 299 299 298 297 297
291 293 291 288 288 287 287 288 288 291 291 294 294 293 292 293 296 297 298 297 297 293 292 291 287 285 285 287 287 283 286 289 290 291 291 287 292 296 294 296 298 299 299 298 297

GFSSW_sfc_thetae_108.txt.gz
Theta_e
324 325 325 325 326 327 328 329 328 325 325 326 326 325 326 325 324 314 307 314 314 324 321 311 308 309 310 308 310 310 299 296 299 299 299 304 301 303 302 302 302 306 308 318 329
324 324 324 325 325 326 328 329 327 325 325 325 326 325 326 324 314 309 320 324 327 326 309 306 304 308 303 305 305 302 298 300 304 300 300 302 302 302 298 300 300 305 312 325 327
323 323 324 325 325 326 327 327 327 325 325 325 327 326 324 320 306 304 323 327 328 326 310 308 308 306 301 304 302 302 299 302 301 302 304 303 300 303 299 298 301 303 312 322 323
322 322 323 324 324 325 326 327 327 327 327 327 326 324 323 313 294 309 325 326 330 320 310 305 304 301 301 299 303 298 302 302 303 302 302 302 302 300 300 299 304 305 315 320 321
321 321 322 323 323 324 325 326 326 326 326 326 325 322 314 302 301 317 325 325 322 312 306 304 301 301 298 300 300 299 299 301 302 301 301 303 301 298 300 302 303 306 315 317 319
320 320 320 321 322 323 324 325 325 324 324 324 324 321 308 296 310 318 319 319 313 308 305 305 302 303 301 300 298 300 299 298 299 300 299 299 297 298 301 302 302 304 304 312 316
319 319 320 320 321 322 323 324 324 323 323 324 323 314 304 302 311 315 315 312 310 307 305 307 306 303 302 299 300 300 295 296 296 297 296 298 295 296 297 299 300 301 301 305 309
319 319 319 320 321 322 323 323 322 322 322 323 323 311 300 311 312 313 313 310 310 309 308 308 306 305 302 301 297 296 295 290 295 297 298 297 293 299 300 298 297 298 297 300 304
318 318 318 319 320 320 321 321 320 321 322 323 313 307 298 312 306 310 311 307 307 307 308 307 307 301 300 294 291 293 288 290 291 298 296 294 292 295 297 297 296 296 297 298 301
317 317 318 319 319 320 320 320 320 319 318 315 309 301 303 300 307 308 309 309 305 305 302 302 300 296 295 292 285 287 288 291 290 293 293 292 293 294 296 296 296 296 297 297 299
317 317 318 318 319 320 317 312 305 302 306 299 299 299 300 306 308 305 307 306 305 302 294 299 293 290 292 294 294 292 290 288 291 294 292 291 292 295 297 296 296 296 297 297 298
317 317 318 319 319 319 314 302 303 305 297 303 302 302 306 306 299 302 306 299 299 293 296 294 290 295 296 296 293 291 290 288 291 294 292 291 291 294 296 296 296 297 297 298 300
316 316 317 318 318 315 309 305 310 307 295 298 301 300 302 304 299 299 302 300 296 293 293 291 293 296 294 291 291 290 289 288 289 291 290 287 287 291 295 296 297 298 298 298 298
316 316 317 317 311 311 306 310 311 308 289 291 295 299 303 303 297 303 304 300 295 292 294 292 293 293 292 290 291 286 290 292 290 287 283 286 279 287 291 293 294 296 296 295 295
316 316 317 316 308 305 309 310 312 304 278 293 294 304 303 297 297 298 302 298 293 293 293 290 290 291 291 292 293 289 292 290 291 287 285 284 280 284 288 289 292 292 295 295 298
315 316 316 312 311 310 311 312 308 287 278 289 294 294 294 295 296 298 297 299 298 293 293 291 293 293 292 292 293 294 291 290 287 286 278 283 282 283 286 289 289 293 296 299 297
315 315 313 313 305 313 312 306 286 280 292 288 288 293 292 291 292 294 292 290 288 285 285 289 289 292 293 289 292 291 287 279 278 277 277 282 281 286 289 289 291 294 297 297 298
315 314 312 311 312 314 308 293 278 286 288 293 291 292 288 291 291 292 290 288 291 289 287 284 282 289 292 290 288 288 287 281 275 276 278 281 278 284 292 292 292 297 297 298 298
314 311 308 309 312 313 298 283 282 288 292 291 290 287 287 290 290 290 289 289 291 291 286 284 284 291 291 291 291 288 284 289 281 275 278 281 284 290 292 292 291 293 296 296 297
308 305 304 310 313 308 292 286 290 295 295 293 285 289 285 287 287 288 288 292 291 293 291 288 282 289 289 291 290 288 290 283 284 274 273 278 280 283 288 289 292 292 294 296 296
301 295 300 311 310 299 286 287 292 296 297 292 289 287 288 287 287 287 288 291 293 291 291 289 288 284 288 287 286 286 285 287 286 284 277 275 280 285 288 291 290 292 295 295 296
296 286 301 309 292 290 288 292 295 295 299 296 294 292 289 289 287 286 287 289 293 292 288 290 288 282 284 288 289 288 287 287 282 280 281 281 280 289 290 292 293 294 296 296 297
287 288 299 302 285 286 291 292 294 294 295 295 293 294 293 289 285 289 289 293 292 291 290 291 286 279 282 286 288 286 287 288 287 284 279 277 279 291 290 292 295 295 295 296 296
290 284 286 291 293 290 288 289 289 296 296 297 295 295 291 289 292 288 290 294 294 293 295 294 288 285 281 284 287 283 286 287 287 281 282 282 284 288 290 292 295 295 295 295 295
291 286 287 283 286 290 291 290 288 289 295 296 293 294 292 287 288 288 291 292 294 295 293 291 281 284 286 286 286 284 285 287 285 287 282 286 285 288 291 291 295 295 294 295 295
288 287 290 287 290 289 290 288 288 290 292 291 292 295 295 289 290 288 291 291 290 292 290 291 279 283 280 287 286 283 286 287 287 287 287 287 285 291 292 292 294 295 295 295 295
292 293 292 288 286 286 286 287 289 292 291 294 294 293 291 292 295 296 296 296 295 291 289 287 283 279 276 283 282 278 284 286 287 289 288 284 289 291 290 293 293 295 296 295 295

GFSSW_sfc_thetae_111.txt.gz
Theta_e
325 325 325 325 326 328 329 330 329 328 328 325 325 324 325 324 323 314 305 313 314 321 319 309 307 307 308 305 305 304 294 292 293 295 296 300 298 300 300 301 302 306 307 316 326
324 324 325 326 326 327 329 329 328 327 327 326 325 325 326 324 312 308 317 327 325 326 309 306 303 304 302 303 302 296 295 297 300 299 297 299 299 299 297 298 300 307 321 325 326
323 323 324 325 325 326 327 328 326 325 326 326 325 326 324 319 302 304 324 327 330 322 311 309 307 304 299 301 300 298 295 299 299 300 302 299 298 299 297 294 300 304 317 322 322
322 323 323 324 325 325 326 327 326 325 325 326 325 324 322 309 293 307 325 327 329 318 309 307 304 298 298 297 301 295 300 298 300 301 300 299 300 297 298 299 303 308 320 320 320
321 321 322 322 324 325 326 327 326 324 325 326 324 322 311 299 299 311 326 326 323 314 306 303 301 299 296 298 299 296 297 299 300 300 299 301 297 298 297 298 303 310 319 318 319
320 320 321 322 323 324 326 326 326 326 326 325 323 321 304 294 308 317 317 316 317 309 305 304 302 303 299 297 297 298 297 297 298 297 297 298 295 297 298 299 304 312 314 317 318
319 320 320 321 322 323 324 325 325 325 325 325 323 312 301 299 308 316 317 314 314 307 304 306 305 301 299 296 300 298 294 295 295 296 295 297 294 294 295 298 299 301 304 312 315
319 319 319 320 321 322 323 324 323 323 324 324 322 308 296 309 309 312 311 308 309 308 308 309 306 302 299 300 296 294 292 289 292 296 296 295 290 296 296 296 296 297 297 300 306
318 318 319 319 320 321 321 322 322 323 323 323 310 302 296 311 305 310 310 306 306 306 306 307 304 298 298 292 288 289 284 287 290 296 295 294 290 294 295 295 294 294 294 296 298
318 318 319 319 319 320 320 320 321 320 318 314 309 295 300 298 304 308 309 307 303 302 300 301 298 294 291 290 283 284 284 287 288 293 293 290 290 292 294 295 295 295 294 294 296
317 318 318 319 320 320 318 312 302 301 305 298 298 296 298 302 305 303 306 303 302 298 291 296 290 288 290 291 291 289 288 286 287 293 292 291 290 292 294 293 292 293 295 294 295
317 318 318 319 320 319 313 300 300 302 295 302 301 300 302 302 297 300 304 297 296 291 294 291 287 293 294 294 292 290 287 285 288 292 290 289 289 292 293 293 294 295 295 295 294
317 317 318 318 318 313 305 302 307 305 293 296 300 299 299 301 296 296 301 297 294 290 291 288 291 295 294 291 291 288 287 285 286 288 288 285 285 288 293 294 294 295 295 296 296
317 317 317 318 311 308 303 308 306 302 285 290 293 297 300 300 294 300 301 297 293 290 291 290 293 293 291 290 290 286 290 290 288 285 280 283 278 283 287 290 292 294 294 295 295
316 316 317 317 309 303 305 308 307 298 274 291 293 302 301 294 294 295 299 295 291 291 291 288 289 290 289 291 292 288 291 289 288 286 282 281 279 284 285 286 291 292 293 293 295
316 316 316 312 310 308 309 308 301 285 276 287 292 293 293 293 293 295 294 295 295 291 291 290 292 291 291 291 292 293 290 289 286 283 278 280 280 279 284 289 287 290 292 295 295
315 315 313 312 304 310 310 302 283 276 290 285 286 293 290 288 290 290 289 287 286 284 283 287 288 290 292 289 291 290 286 279 277 276 276 279 279 283 287 288 292 292 294 294 294
315 314 312 311 311 310 304 290 271 281 285 290 289 291 286 289 288 289 287 284 288 287 285 282 281 287 291 289 286 287 286 280 274 274 276 280 278 284 289 289 291 294 295 295 296
314 310 307 309 311 309 295 282 277 284 289 288 288 285 284 287 288 287 284 286 288 288 284 283 283 290 290 291 290 286 284 289 281 273 276 279 282 288 290 289 291 293 294 293 295
308 305 304 310 312 303 290 281 287 292 292 290 283 285 280 284 284 284 284 288 288 290 289 287 282 288 288 290 289 288 290 283 283 273 272 277 278 281 287 288 289 291 292 293 294
306 298 303 312 308 296 284 283 289 295 293 289 286 284 284 284 284 284 285 288 291 290 290 288 286 284 287 286 285 285 284 285 285 282 275 274 278 285 287 289 289 290 292 293 294
296 288 301 309 292 289 283 288 294 293 297 293 291 288 286 286 285 285 285 288 293 291 287 289 286 281 283 287 288 287 286 286 281 279 280 279 280 288 288 291 291 291 293 293 294
287 289 297 303 285 286 287 290 293 292 294 293 291 292 290 287 283 287 288 292 292 291 289 290 284 278 281 285 287 285 286 286 285 282 278 276 279 289 289 290 291 292 293 294 294
289 285 288 296 289 289 286 287 287 294 294 296 293 292 289 287 290 287 288 293 293 292 295 295 286 283 279 282 285 283 285 286 286 279 279 280 282 287 289 291 292 293 294 294 294
289 285 289 287 286 289 290 289 287 288 293 295 292 292 289 285 287 287 290 291 293 294 292 290 281 283 285 286 286 284 285 286 285 287 282 286 284 287 289 290 293 293 294 294 293
285 286 289 292 289 289 290 287 288 289 291 290 291 293 293 288 288 286 289 289 287 290 288 289 275 281 279 285 284 282 285 286 287 287 286 284 284 289 291 291 293 294 294 294 294
291 292 291 290 289 288 287 287 289 291 291 294 294 291 290 292 293 294 294 294 292 289 287 286 281 276 272 282 282 279 283 284 285 286 287 283 289 289 288 290 291 293 294 294 294

GFSSW_sfc_thetae_114.txt.gz
Theta_e
325 325 325 326 325 326 329 330 330 328 328 327 326 325 325 325 323 314 305 315 314 323 320 308 308 306 307 305 306 302 294 291 293 293 295 297 298 298 298 300 302 306 313 317 324
323 325 325 325 325 325 328 329 330 328 327 326 326 324 324 323 310 306 316 325 326 323 308 305 304 305 301 303 302 296 293 295 298 296 296 297 297 298 297 298 301 313 319 323 323
324 324 324 324 325 326 327 328 328 328 326 326 325 325 324 318 302 303 323 328 328 324 310 308 306 303 298 301 300 297 295 296 296 298 299 299 296 296 296 293 301 313 318 321 320
324 324 323 323 325 325 326 327 327 327 326 325 325 325 323 307 292 305 324 327 329 315 310 308 303 299 297 296 300 296 299 298 299 299 298 297 298 295 295 297 301 320 322 321 321
322 322 322 322 323 324 325 327 326 325 325 325 325 323 309 297 298 308 325 325 321 312 308 311 303 300 296 298 299 296 297 297 299 298 298 299 297 297 296 297 301 319 321 321 321
320 320 321 321 322 324 324 326 325 325 325 325 323 321 301 293 307 313 317 318 315 309 305 310 309 304 300 298 297 298 297 296 297 297 298 297 294 297 296 298 305 317 318 320 320
320 320 320 320 321 323 324 325 324 324 325 324 323 311 300 299 307 315 314 315 313 307 303 306 307 304 301 297 299 297 292 293 293 296 296 297 293 294 295 299 304 311 314 315 317
320 319 319 320 321 323 323 325 323 324 324 324 322 305 297 308 309 312 311 309 312 309 307 307 306 302 299 300 295 293 291 287 292 296 295 294 291 296 295 297 300 305 306 312 314
319 318 319 320 320 321 322 323 323 324 324 322 309 300 296 310 304 309 308 306 307 307 306 307 304 299 299 292 289 290 283 285 288 294 292 293 291 295 295 295 296 296 297 301 307
318 318 318 319 320 320 322 322 323 322 318 312 310 296 298 297 303 308 305 305 302 302 302 303 299 295 293 289 283 285 284 285 286 290 291 289 291 292 293 293 294 292 292 293 296
318 318 318 319 320 321 320 314 305 304 305 298 298 295 297 301 305 303 305 302 299 296 292 298 294 290 293 290 290 288 288 287 288 291 291 289 290 292 293 291 292 292 292 293 294
317 318 318 319 320 320 314 304 304 305 296 301 302 299 301 301 296 300 304 295 294 290 292 291 290 295 295 293 291 289 286 286 288 291 289 287 289 291 291 293 293 293 292 294 294
317 317 318 318 319 315 308 301 308 306 292 295 300 297 299 300 294 296 300 296 291 289 289 287 291 297 293 291 290 287 286 285 286 288 287 285 284 287 291 293 293 294 294 294 294
317 317 317 318 312 310 303 305 309 300 284 288 293 296 299 299 292 299 301 297 291 290 289 287 292 292 290 290 291 286 289 289 288 285 281 283 278 282 285 289 291 294 293 294 294
316 317 317 317 310 304 304 306 306 296 274 289 292 301 299 294 294 294 298 294 289 288 288 287 288 289 289 290 291 289 291 289 287 285 282 280 279 281 283 286 287 291 292 293 292
316 316 316 312 310 307 308 306 299 284 276 286 292 292 291 292 292 293 294 294 293 290 288 288 290 291 291 291 292 292 289 288 285 282 278 281 280 280 283 287 287 288 291 292 293
316 316 314 312 304 307 307 300 282 277 288 283 286 291 289 287 288 289 289 287 285 282 284 285 286 289 291 288 290 290 284 279 278 277 276 278 277 282 285 287 288 289 290 292 294
315 315 312 310 311 307 301 289 273 281 284 288 289 290 285 288 286 287 286 286 286 285 282 280 279 287 289 288 286 286 285 279 273 273 275 279 278 283 288 288 290 291 293 293 293
315 311 309 308 310 306 295 282 278 283 288 287 288 285 283 287 286 285 284 287 287 286 282 280 281 288 289 289 290 286 284 287 280 274 276 278 281 287 288 288 289 292 292 292 293
310 306 305 310 309 300 290 283 284 289 290 290 283 285 281 285 283 283 283 287 286 288 286 285 281 287 287 289 289 288 289 283 282 274 272 276 277 280 285 287 291 291 291 292 293
306 299 305 310 305 295 284 283 288 293 292 288 286 284 284 283 284 283 283 286 289 287 288 287 285 283 287 286 285 285 284 284 285 281 275 273 278 285 286 289 289 292 292 292 293
299 291 307 308 292 288 285 286 293 292 294 292 290 288 286 287 284 283 282 287 292 289 286 288 285 280 283 286 288 287 286 286 282 279 279 279 279 286 287 290 290 290 292 293 294
293 292 301 304 286 287 286 288 291 291 292 291 289 290 289 287 283 285 286 291 291 291 288 289 282 277 281 284 286 285 286 286 285 282 280 276 279 287 288 289 289 290 292 293 293
292 288 294 298 290 290 286 287 287 292 293 294 291 291 288 286 288 285 287 292 292 292 295 294 285 282 278 281 285 283 285 285 285 280 280 279 281 285 288 290 291 291 292 293 293
290 291 293 288 289 290 289 288 286 287 292 294 290 289 288 283 285 285 289 290 292 294 293 291 280 281 283 284 285 284 285 286 284 286 282 285 284 286 289 289 292 293 293 293 293
287 290 290 292 292 290 289 286 287 289 291 289 289 291 290 286 287 285 288 288 287 289 287 288 277 282 279 284 285 283 285 286 287 286 286 283 283 288 290 291 292 293 293 293 294
291 292 295 292 289 288 287 287 288 290 291 293 293 291 289 291 293 293 292 292 291 289 287 286 280 276 274 280 281 281 284 285 285 287 286 283 289 288 287 289 292 293 294 294 295

GFSSW_sfc_thetae_120.txt.gz
Theta_e
321 322 322 324 328 328 328 329 329 329 329 329 328 327 328 326 325 315 311 320 320 327 322 307 307 306 306 304 306 302 296 291 293 293 294 297 297 297 298 304 300 305 311 314 324
321 321 322 323 327 327 327 328 328 328 329 329 329 328 326 324 312 308 319 327 330 328 314 305 303 304 302 302 303 299 294 294 297 297 294 296 297 297 298 298 302 307 314 320 327
320 321 322 322 322 326 326 327 327 327 328 328 328 327 325 315 305 305 323 324 331 324 315 309 309 304 300 301 300 298 294 297 297 297 298 296 295 297 297 295 302 307 312 319 324
320 320 321 321 321 321 326 325 326 327 328 327 327 325 322 306 298 305 323 327 329 315 307 307 302 301 298 297 300 295 298 299 299 298 297 296 297 295 297 298 300 309 316 320 322
318 319 319 321 321 321 325 326 326 327 327 326 325 322 310 298 299 307 325 326 320 309 307 302 300 298 298 298 299 297 298 298 298 297 297 297 296 295 295 295 301 315 317 318 321
316 318 319 320 321 319 325 325 326 326 326 325 324 318 303 296 308 308 318 319 313 305 306 303 300 300 297 296 300 299 299 296 296 295 296 295 293 295 296 301 312 315 315 316 319
315 317 318 319 320 318 323 323 325 325 325 325 323 310 302 302 306 312 316 313 309 306 305 311 308 303 301 297 300 297 296 296 294 295 295 296 291 293 294 300 311 313 314 315 317
315 315 317 318 319 318 322 323 324 325 324 324 321 307 299 307 311 312 311 309 308 305 305 308 309 305 304 301 299 294 293 290 291 294 294 295 289 296 295 299 307 310 311 313 315
313 313 316 317 317 319 322 323 323 325 324 323 312 305 298 311 305 309 308 306 306 304 306 306 305 297 297 295 292 292 286 285 289 293 292 292 290 295 293 297 299 307 309 312 313
313 313 313 316 317 320 321 322 323 323 321 316 311 300 298 297 304 306 305 307 302 303 301 300 296 292 289 293 286 288 286 286 287 291 289 289 291 294 292 294 297 300 306 309 311
312 313 313 316 316 321 320 316 311 309 309 302 300 296 297 301 305 302 304 301 299 298 293 297 291 290 290 291 289 294 291 286 287 291 290 289 291 295 292 290 290 293 297 302 305
311 312 314 316 315 320 318 310 311 309 296 301 303 298 299 302 297 299 303 296 294 289 294 293 288 291 292 292 291 288 287 291 290 291 289 286 288 292 290 291 291 292 292 296 298
311 312 313 316 316 317 313 312 313 309 295 296 302 297 297 300 296 296 301 293 289 288 290 289 289 293 294 290 288 286 284 284 287 289 289 286 286 289 289 290 291 291 292 292 294
311 313 314 315 313 314 311 311 312 307 289 289 296 298 297 297 293 299 300 295 290 287 289 288 291 292 291 290 291 287 290 289 287 287 284 284 281 286 288 288 290 292 291 292 293
310 312 314 315 312 309 312 313 310 304 278 291 294 301 297 295 294 294 297 295 288 288 290 287 288 289 288 290 291 287 291 289 287 285 283 281 278 283 284 286 286 290 292 293 295
310 314 313 314 314 314 313 311 304 287 277 287 293 291 291 290 290 293 294 294 293 290 289 289 289 293 292 292 292 292 289 289 286 284 279 285 280 280 284 287 288 289 293 295 296
311 314 312 315 308 312 312 302 286 282 288 283 286 290 289 286 287 290 290 286 285 282 282 285 285 287 290 287 288 290 288 279 279 278 277 277 278 286 287 286 288 290 290 290 289
313 313 313 315 313 312 305 293 282 283 284 287 288 289 285 286 284 286 288 286 286 284 283 282 279 285 287 287 284 289 288 279 272 272 276 279 277 283 288 290 288 289 289 290 290
314 311 310 309 312 309 298 285 283 284 286 286 287 284 281 286 285 285 287 287 287 285 282 281 280 285 286 287 290 285 284 288 279 270 273 277 280 286 287 288 288 290 290 291 291
308 308 305 309 311 304 292 287 282 287 289 289 282 283 280 284 282 282 284 289 287 287 285 284 280 284 285 287 285 287 289 281 280 270 270 276 277 281 282 288 290 288 291 291 291
308 299 304 309 308 297 287 285 284 289 292 286 282 281 283 283 282 281 283 285 290 286 286 284 283 281 284 283 282 283 283 282 284 279 274 271 277 283 287 287 287 289 291 292 292
304 291 304 308 293 293 290 287 291 288 288 287 286 285 285 286 281 283 282 287 290 287 284 286 283 278 280 284 285 283 284 285 281 278 277 278 280 284 286 286 288 289 291 291 292
298 295 305 304 285 287 290 288 289 287 287 286 285 287 287 285 281 282 284 289 290 290 286 287 279 272 279 282 284 282 282 284 283 281 279 276 282 285 286 288 288 289 289 292 293
296 288 295 298 294 291 287 285 285 290 288 288 286 288 286 285 285 282 283 288 289 290 294 292 282 280 278 280 283 282 283 284 284 279 280 279 282 285 284 286 289 290 289 292 293
294 291 294 288 289 291 290 286 285 285 288 289 285 288 285 281 282 282 285 287 287 293 291 289 280 280 281 282 284 283 284 284 283 286 281 285 281 285 286 287 290 290 290 291 292
290 293 295 293 292 290 290 286 285 286 288 286 285 287 286 283 285 282 286 285 285 286 287 286 276 280 276 282 282 281 283 285 286 286 285 281 282 285 286 289 289 292 291 291 292
291 293 296 294 289 289 287 287 287 289 289 289 288 286 285 286 288 290 291 291 290 288 285 284 279 276 272 280 281 277 282 283 284 285 284 281 287 286 286 288 290 291 292 292 293